<?xml version="1.0" encoding="UTF-8" standalone="no" ?>
<gpx xmlns="http://www.topografix.com/GPX/1/1" creator="MapSource 6.11.6" version="1.1" xmlns:xsi="http://www.w3.org/2001/XMLSchema-instance" xsi:schemaLocation="http://www.topografix.com/GPX/1/1 http://www.topografix.com/GPX/1/1/gpx.xsd">

  <metadata>
    <link href="http://www.garmin.com">
      <text>Garmin International</text>
    </link>
    <time>2009-06-14T14:56:08Z</time>
    <bounds maxlat="50.624571" maxlon="6.478612" minlat="50.612330" minlon="6.409831"/>
  </metadata>

  <trk>
    <name>Kloster Mariawald</name>
    <link href="http://www.gpsies.com/map.do?fileId=akkpjfkcroeuzkqq"/>
    <extensions>
      <gpxx:TrackExtension xmlns:gpxx="http://www.garmin.com/xmlschemas/GpxExtensions/v3" xmlns:xsi="http://www.w3.org/2001/XMLSchema-instance" xsi:schemaLocation="http://www.garmin.com/xmlschemas/GpxExtensions/v3 http://www.garmin.com/xmlschemas/GpxExtensions/v3/GpxExtensionsv3.xsd">
        <gpxx:DisplayColor>White</gpxx:DisplayColor>
      </gpxx:TrackExtension>
    </extensions>
    <trkseg>
      <trkpt lat="50.617810" lon="6.476781">
        <ele>442.800000</ele>
        <time>2009-06-14T16:37:16Z</time>
      </trkpt>
      <trkpt lat="50.617815" lon="6.476775">
        <ele>442.300000</ele>
        <time>2009-06-14T16:37:17Z</time>
      </trkpt>
      <trkpt lat="50.617858" lon="6.476685">
        <ele>441.900000</ele>
        <time>2009-06-14T16:37:20Z</time>
      </trkpt>
      <trkpt lat="50.617875" lon="6.476652">
        <ele>441.900000</ele>
        <time>2009-06-14T16:37:21Z</time>
      </trkpt>
      <trkpt lat="50.617894" lon="6.476619">
        <ele>442.300000</ele>
        <time>2009-06-14T16:37:22Z</time>
      </trkpt>
      <trkpt lat="50.617968" lon="6.476454">
        <ele>442.300000</ele>
        <time>2009-06-14T16:37:27Z</time>
      </trkpt>
      <trkpt lat="50.618003" lon="6.476377">
        <ele>441.900000</ele>
        <time>2009-06-14T16:37:29Z</time>
      </trkpt>
      <trkpt lat="50.618066" lon="6.476285">
        <ele>441.400000</ele>
        <time>2009-06-14T16:37:33Z</time>
      </trkpt>
      <trkpt lat="50.618102" lon="6.476212">
        <ele>441.400000</ele>
        <time>2009-06-14T16:37:35Z</time>
      </trkpt>
      <trkpt lat="50.618114" lon="6.476197">
        <ele>441.400000</ele>
        <time>2009-06-14T16:37:36Z</time>
      </trkpt>
      <trkpt lat="50.618177" lon="6.476046">
        <ele>441.900000</ele>
        <time>2009-06-14T16:37:40Z</time>
      </trkpt>
      <trkpt lat="50.618200" lon="6.475895">
        <ele>442.800000</ele>
        <time>2009-06-14T16:37:44Z</time>
      </trkpt>
      <trkpt lat="50.618207" lon="6.475843">
        <ele>443.800000</ele>
        <time>2009-06-14T16:37:46Z</time>
      </trkpt>
      <trkpt lat="50.618209" lon="6.475729">
        <ele>445.700000</ele>
        <time>2009-06-14T16:37:48Z</time>
      </trkpt>
      <trkpt lat="50.618216" lon="6.475655">
        <ele>446.200000</ele>
        <time>2009-06-14T16:37:50Z</time>
      </trkpt>
      <trkpt lat="50.618212" lon="6.475547">
        <ele>448.100000</ele>
        <time>2009-06-14T16:37:53Z</time>
      </trkpt>
      <trkpt lat="50.618182" lon="6.475516">
        <ele>449.600000</ele>
        <time>2009-06-14T16:37:55Z</time>
      </trkpt>
      <trkpt lat="50.618177" lon="6.475511">
        <ele>450.000000</ele>
        <time>2009-06-14T16:37:55Z</time>
      </trkpt>
      <trkpt lat="50.617820" lon="6.474851">
        <ele>461.600000</ele>
        <time>2009-06-14T16:38:17Z</time>
      </trkpt>
      <trkpt lat="50.617819" lon="6.474831">
        <ele>461.100000</ele>
        <time>2009-06-14T16:38:17Z</time>
      </trkpt>
      <trkpt lat="50.617786" lon="6.474701">
        <ele>464.000000</ele>
        <time>2009-06-14T16:38:21Z</time>
      </trkpt>
      <trkpt lat="50.617750" lon="6.474546">
        <ele>460.600000</ele>
        <time>2009-06-14T16:38:25Z</time>
      </trkpt>
      <trkpt lat="50.617692" lon="6.474393">
        <ele>459.200000</ele>
        <time>2009-06-14T16:38:30Z</time>
      </trkpt>
      <trkpt lat="50.617627" lon="6.474293">
        <ele>456.800000</ele>
        <time>2009-06-14T16:38:33Z</time>
      </trkpt>
      <trkpt lat="50.617551" lon="6.474188">
        <ele>453.900000</ele>
        <time>2009-06-14T16:38:37Z</time>
      </trkpt>
      <trkpt lat="50.617544" lon="6.474174">
        <ele>453.400000</ele>
        <time>2009-06-14T16:38:38Z</time>
      </trkpt>
      <trkpt lat="50.617486" lon="6.474098">
        <ele>451.500000</ele>
        <time>2009-06-14T16:38:41Z</time>
      </trkpt>
      <trkpt lat="50.617446" lon="6.474059">
        <ele>451.500000</ele>
        <time>2009-06-14T16:38:43Z</time>
      </trkpt>
      <trkpt lat="50.617350" lon="6.473980">
        <ele>449.100000</ele>
        <time>2009-06-14T16:38:47Z</time>
      </trkpt>
      <trkpt lat="50.617280" lon="6.473962">
        <ele>448.600000</ele>
        <time>2009-06-14T16:38:50Z</time>
      </trkpt>
      <trkpt lat="50.617183" lon="6.473959">
        <ele>448.600000</ele>
        <time>2009-06-14T16:38:54Z</time>
      </trkpt>
      <trkpt lat="50.617086" lon="6.473979">
        <ele>448.600000</ele>
        <time>2009-06-14T16:38:58Z</time>
      </trkpt>
      <trkpt lat="50.617036" lon="6.473994">
        <ele>448.600000</ele>
        <time>2009-06-14T16:39:00Z</time>
      </trkpt>
      <trkpt lat="50.616951" lon="6.474006">
        <ele>449.600000</ele>
        <time>2009-06-14T16:39:03Z</time>
      </trkpt>
      <trkpt lat="50.616921" lon="6.474016">
        <ele>449.600000</ele>
        <time>2009-06-14T16:39:04Z</time>
      </trkpt>
      <trkpt lat="50.616865" lon="6.474016">
        <ele>450.000000</ele>
        <time>2009-06-14T16:39:06Z</time>
      </trkpt>
      <trkpt lat="50.616777" lon="6.474019">
        <ele>449.600000</ele>
        <time>2009-06-14T16:39:10Z</time>
      </trkpt>
      <trkpt lat="50.616683" lon="6.474027">
        <ele>450.500000</ele>
        <time>2009-06-14T16:39:14Z</time>
      </trkpt>
      <trkpt lat="50.616599" lon="6.474010">
        <ele>451.500000</ele>
        <time>2009-06-14T16:39:17Z</time>
      </trkpt>
      <trkpt lat="50.616551" lon="6.474005">
        <ele>451.500000</ele>
        <time>2009-06-14T16:39:19Z</time>
      </trkpt>
      <trkpt lat="50.616516" lon="6.473991">
        <ele>451.000000</ele>
        <time>2009-06-14T16:39:21Z</time>
      </trkpt>
      <trkpt lat="50.616461" lon="6.473972">
        <ele>449.600000</ele>
        <time>2009-06-14T16:39:23Z</time>
      </trkpt>
      <trkpt lat="50.616357" lon="6.473894">
        <ele>448.100000</ele>
        <time>2009-06-14T16:39:27Z</time>
      </trkpt>
      <trkpt lat="50.616243" lon="6.473796">
        <ele>448.600000</ele>
        <time>2009-06-14T16:39:33Z</time>
      </trkpt>
      <trkpt lat="50.616181" lon="6.473770">
        <ele>450.500000</ele>
        <time>2009-06-14T16:39:35Z</time>
      </trkpt>
      <trkpt lat="50.616109" lon="6.473699">
        <ele>450.000000</ele>
        <time>2009-06-14T16:39:39Z</time>
      </trkpt>
      <trkpt lat="50.616021" lon="6.473642">
        <ele>449.100000</ele>
        <time>2009-06-14T16:39:42Z</time>
      </trkpt>
      <trkpt lat="50.615938" lon="6.473571">
        <ele>447.600000</ele>
        <time>2009-06-14T16:39:46Z</time>
      </trkpt>
      <trkpt lat="50.615880" lon="6.473491">
        <ele>445.700000</ele>
        <time>2009-06-14T16:39:49Z</time>
      </trkpt>
      <trkpt lat="50.615823" lon="6.473418">
        <ele>443.800000</ele>
        <time>2009-06-14T16:39:52Z</time>
      </trkpt>
      <trkpt lat="50.615739" lon="6.473308">
        <ele>440.900000</ele>
        <time>2009-06-14T16:39:57Z</time>
      </trkpt>
      <trkpt lat="50.615657" lon="6.473216">
        <ele>441.400000</ele>
        <time>2009-06-14T16:40:01Z</time>
      </trkpt>
      <trkpt lat="50.615574" lon="6.473121">
        <ele>442.300000</ele>
        <time>2009-06-14T16:40:05Z</time>
      </trkpt>
      <trkpt lat="50.615495" lon="6.473002">
        <ele>440.900000</ele>
        <time>2009-06-14T16:40:09Z</time>
      </trkpt>
      <trkpt lat="50.615420" lon="6.472904">
        <ele>441.900000</ele>
        <time>2009-06-14T16:40:13Z</time>
      </trkpt>
      <trkpt lat="50.615372" lon="6.472815">
        <ele>439.900000</ele>
        <time>2009-06-14T16:40:16Z</time>
      </trkpt>
      <trkpt lat="50.615317" lon="6.472709">
        <ele>440.400000</ele>
        <time>2009-06-14T16:40:19Z</time>
      </trkpt>
      <trkpt lat="50.615290" lon="6.472674">
        <ele>439.000000</ele>
        <time>2009-06-14T16:40:21Z</time>
      </trkpt>
      <trkpt lat="50.615256" lon="6.472619">
        <ele>439.500000</ele>
        <time>2009-06-14T16:40:23Z</time>
      </trkpt>
      <trkpt lat="50.615211" lon="6.472535">
        <ele>446.200000</ele>
        <time>2009-06-14T16:40:26Z</time>
      </trkpt>
      <trkpt lat="50.615132" lon="6.472482">
        <ele>457.200000</ele>
        <time>2009-06-14T16:40:29Z</time>
      </trkpt>
      <trkpt lat="50.615102" lon="6.472427">
        <ele>460.100000</ele>
        <time>2009-06-14T16:40:31Z</time>
      </trkpt>
      <trkpt lat="50.615049" lon="6.472339">
        <ele>466.400000</ele>
        <time>2009-06-14T16:40:34Z</time>
      </trkpt>
      <trkpt lat="50.615016" lon="6.472260">
        <ele>476.000000</ele>
        <time>2009-06-14T16:40:36Z</time>
      </trkpt>
      <trkpt lat="50.615001" lon="6.472219">
        <ele>479.400000</ele>
        <time>2009-06-14T16:40:38Z</time>
      </trkpt>
      <trkpt lat="50.614985" lon="6.472137">
        <ele>479.400000</ele>
        <time>2009-06-14T16:40:40Z</time>
      </trkpt>
      <trkpt lat="50.614983" lon="6.472065">
        <ele>484.200000</ele>
        <time>2009-06-14T16:40:42Z</time>
      </trkpt>
      <trkpt lat="50.615027" lon="6.471960">
        <ele>489.400000</ele>
        <time>2009-06-14T16:40:45Z</time>
      </trkpt>
      <trkpt lat="50.615097" lon="6.471935">
        <ele>488.000000</ele>
        <time>2009-06-14T16:40:48Z</time>
      </trkpt>
      <trkpt lat="50.615175" lon="6.471937">
        <ele>478.900000</ele>
        <time>2009-06-14T16:40:51Z</time>
      </trkpt>
      <trkpt lat="50.615279" lon="6.471924">
        <ele>470.700000</ele>
        <time>2009-06-14T16:40:55Z</time>
      </trkpt>
      <trkpt lat="50.615374" lon="6.471913">
        <ele>462.500000</ele>
        <time>2009-06-14T16:40:59Z</time>
      </trkpt>
      <trkpt lat="50.615426" lon="6.471887">
        <ele>452.000000</ele>
        <time>2009-06-14T16:41:01Z</time>
      </trkpt>
      <trkpt lat="50.615520" lon="6.471819">
        <ele>440.900000</ele>
        <time>2009-06-14T16:41:05Z</time>
      </trkpt>
      <trkpt lat="50.615531" lon="6.471801">
        <ele>439.000000</ele>
        <time>2009-06-14T16:41:06Z</time>
      </trkpt>
      <trkpt lat="50.615590" lon="6.471780">
        <ele>431.300000</ele>
        <time>2009-06-14T16:41:08Z</time>
      </trkpt>
      <trkpt lat="50.615722" lon="6.471762">
        <ele>420.700000</ele>
        <time>2009-06-14T16:41:13Z</time>
      </trkpt>
      <trkpt lat="50.615778" lon="6.471749">
        <ele>417.800000</ele>
        <time>2009-06-14T16:41:16Z</time>
      </trkpt>
      <trkpt lat="50.615848" lon="6.471735">
        <ele>414.500000</ele>
        <time>2009-06-14T16:41:18Z</time>
      </trkpt>
      <trkpt lat="50.615919" lon="6.471715">
        <ele>412.100000</ele>
        <time>2009-06-14T16:41:21Z</time>
      </trkpt>
      <trkpt lat="50.616028" lon="6.471720">
        <ele>408.700000</ele>
        <time>2009-06-14T16:41:26Z</time>
      </trkpt>
      <trkpt lat="50.616158" lon="6.471640">
        <ele>408.200000</ele>
        <time>2009-06-14T16:41:31Z</time>
      </trkpt>
      <trkpt lat="50.616172" lon="6.471627">
        <ele>408.700000</ele>
        <time>2009-06-14T16:41:32Z</time>
      </trkpt>
      <trkpt lat="50.616243" lon="6.471543">
        <ele>414.500000</ele>
        <time>2009-06-14T16:41:36Z</time>
      </trkpt>
      <trkpt lat="50.616300" lon="6.471445">
        <ele>414.500000</ele>
        <time>2009-06-14T16:41:39Z</time>
      </trkpt>
      <trkpt lat="50.616338" lon="6.471375">
        <ele>414.900000</ele>
        <time>2009-06-14T16:41:41Z</time>
      </trkpt>
      <trkpt lat="50.616384" lon="6.471328">
        <ele>423.100000</ele>
        <time>2009-06-14T16:41:43Z</time>
      </trkpt>
      <trkpt lat="50.616418" lon="6.471194">
        <ele>429.800000</ele>
        <time>2009-06-14T16:41:47Z</time>
      </trkpt>
      <trkpt lat="50.616462" lon="6.471113">
        <ele>433.200000</ele>
        <time>2009-06-14T16:41:50Z</time>
      </trkpt>
      <trkpt lat="50.616527" lon="6.470981">
        <ele>434.700000</ele>
        <time>2009-06-14T16:41:54Z</time>
      </trkpt>
      <trkpt lat="50.616579" lon="6.470903">
        <ele>436.100000</ele>
        <time>2009-06-14T16:41:57Z</time>
      </trkpt>
      <trkpt lat="50.616656" lon="6.470762">
        <ele>431.800000</ele>
        <time>2009-06-14T16:42:02Z</time>
      </trkpt>
      <trkpt lat="50.616681" lon="6.470728">
        <ele>431.300000</ele>
        <time>2009-06-14T16:42:03Z</time>
      </trkpt>
      <trkpt lat="50.616751" lon="6.470600">
        <ele>428.400000</ele>
        <time>2009-06-14T16:42:07Z</time>
      </trkpt>
      <trkpt lat="50.616779" lon="6.470561">
        <ele>428.400000</ele>
        <time>2009-06-14T16:42:09Z</time>
      </trkpt>
      <trkpt lat="50.616840" lon="6.470394">
        <ele>426.500000</ele>
        <time>2009-06-14T16:42:14Z</time>
      </trkpt>
      <trkpt lat="50.616924" lon="6.470286">
        <ele>426.000000</ele>
        <time>2009-06-14T16:42:18Z</time>
      </trkpt>
      <trkpt lat="50.616944" lon="6.470273">
        <ele>426.000000</ele>
        <time>2009-06-14T16:42:19Z</time>
      </trkpt>
      <trkpt lat="50.616976" lon="6.470160">
        <ele>426.000000</ele>
        <time>2009-06-14T16:42:22Z</time>
      </trkpt>
      <trkpt lat="50.616972" lon="6.469977">
        <ele>425.000000</ele>
        <time>2009-06-14T16:42:27Z</time>
      </trkpt>
      <trkpt lat="50.616943" lon="6.469808">
        <ele>424.100000</ele>
        <time>2009-06-14T16:42:31Z</time>
      </trkpt>
      <trkpt lat="50.616923" lon="6.469675">
        <ele>425.500000</ele>
        <time>2009-06-14T16:42:35Z</time>
      </trkpt>
      <trkpt lat="50.616890" lon="6.469511">
        <ele>426.500000</ele>
        <time>2009-06-14T16:42:39Z</time>
      </trkpt>
      <trkpt lat="50.616870" lon="6.469388">
        <ele>427.000000</ele>
        <time>2009-06-14T16:42:42Z</time>
      </trkpt>
      <trkpt lat="50.616860" lon="6.469271">
        <ele>430.300000</ele>
        <time>2009-06-14T16:42:45Z</time>
      </trkpt>
      <trkpt lat="50.616869" lon="6.469145">
        <ele>433.200000</ele>
        <time>2009-06-14T16:42:48Z</time>
      </trkpt>
      <trkpt lat="50.616927" lon="6.469056">
        <ele>437.500000</ele>
        <time>2009-06-14T16:42:52Z</time>
      </trkpt>
      <trkpt lat="50.616986" lon="6.468970">
        <ele>435.100000</ele>
        <time>2009-06-14T16:42:55Z</time>
      </trkpt>
      <trkpt lat="50.617035" lon="6.468893">
        <ele>434.200000</ele>
        <time>2009-06-14T16:42:58Z</time>
      </trkpt>
      <trkpt lat="50.617085" lon="6.468805">
        <ele>432.700000</ele>
        <time>2009-06-14T16:43:01Z</time>
      </trkpt>
      <trkpt lat="50.617097" lon="6.468790">
        <ele>433.200000</ele>
        <time>2009-06-14T16:43:01Z</time>
      </trkpt>
      <trkpt lat="50.617129" lon="6.468755">
        <ele>432.700000</ele>
        <time>2009-06-14T16:43:03Z</time>
      </trkpt>
      <trkpt lat="50.617154" lon="6.468723">
        <ele>431.800000</ele>
        <time>2009-06-14T16:43:04Z</time>
      </trkpt>
      <trkpt lat="50.617191" lon="6.468674">
        <ele>431.800000</ele>
        <time>2009-06-14T16:43:06Z</time>
      </trkpt>
      <trkpt lat="50.617212" lon="6.468654">
        <ele>429.400000</ele>
        <time>2009-06-14T16:43:07Z</time>
      </trkpt>
      <trkpt lat="50.617335" lon="6.468637">
        <ele>427.900000</ele>
        <time>2009-06-14T16:43:12Z</time>
      </trkpt>
      <trkpt lat="50.617351" lon="6.468626">
        <ele>426.000000</ele>
        <time>2009-06-14T16:43:13Z</time>
      </trkpt>
      <trkpt lat="50.617406" lon="6.468614">
        <ele>424.600000</ele>
        <time>2009-06-14T16:43:15Z</time>
      </trkpt>
      <trkpt lat="50.617472" lon="6.468621">
        <ele>424.100000</ele>
        <time>2009-06-14T16:43:18Z</time>
      </trkpt>
      <trkpt lat="50.617584" lon="6.468577">
        <ele>418.800000</ele>
        <time>2009-06-14T16:43:22Z</time>
      </trkpt>
      <trkpt lat="50.617614" lon="6.468551">
        <ele>417.300000</ele>
        <time>2009-06-14T16:43:24Z</time>
      </trkpt>
      <trkpt lat="50.617697" lon="6.468515">
        <ele>417.800000</ele>
        <time>2009-06-14T16:43:27Z</time>
      </trkpt>
      <trkpt lat="50.617710" lon="6.468502">
        <ele>417.300000</ele>
        <time>2009-06-14T16:43:28Z</time>
      </trkpt>
      <trkpt lat="50.617795" lon="6.468456">
        <ele>415.900000</ele>
        <time>2009-06-14T16:43:31Z</time>
      </trkpt>
      <trkpt lat="50.617914" lon="6.468391">
        <ele>417.300000</ele>
        <time>2009-06-14T16:43:36Z</time>
      </trkpt>
      <trkpt lat="50.617983" lon="6.468345">
        <ele>422.600000</ele>
        <time>2009-06-14T16:43:39Z</time>
      </trkpt>
      <trkpt lat="50.618077" lon="6.468250">
        <ele>423.600000</ele>
        <time>2009-06-14T16:43:44Z</time>
      </trkpt>
      <trkpt lat="50.618160" lon="6.468175">
        <ele>424.100000</ele>
        <time>2009-06-14T16:43:48Z</time>
      </trkpt>
      <trkpt lat="50.618201" lon="6.468122">
        <ele>421.200000</ele>
        <time>2009-06-14T16:43:50Z</time>
      </trkpt>
      <trkpt lat="50.618285" lon="6.467994">
        <ele>420.200000</ele>
        <time>2009-06-14T16:43:54Z</time>
      </trkpt>
      <trkpt lat="50.618337" lon="6.467890">
        <ele>420.200000</ele>
        <time>2009-06-14T16:43:58Z</time>
      </trkpt>
      <trkpt lat="50.618363" lon="6.467782">
        <ele>423.100000</ele>
        <time>2009-06-14T16:44:01Z</time>
      </trkpt>
      <trkpt lat="50.618368" lon="6.467772">
        <ele>423.100000</ele>
        <time>2009-06-14T16:44:01Z</time>
      </trkpt>
      <trkpt lat="50.618381" lon="6.467734">
        <ele>425.500000</ele>
        <time>2009-06-14T16:44:02Z</time>
      </trkpt>
      <trkpt lat="50.618439" lon="6.467626">
        <ele>426.000000</ele>
        <time>2009-06-14T16:44:06Z</time>
      </trkpt>
      <trkpt lat="50.618474" lon="6.467551">
        <ele>424.100000</ele>
        <time>2009-06-14T16:44:08Z</time>
      </trkpt>
      <trkpt lat="50.618505" lon="6.467493">
        <ele>422.600000</ele>
        <time>2009-06-14T16:44:10Z</time>
      </trkpt>
      <trkpt lat="50.618576" lon="6.467366">
        <ele>421.200000</ele>
        <time>2009-06-14T16:44:14Z</time>
      </trkpt>
      <trkpt lat="50.618597" lon="6.467335">
        <ele>420.700000</ele>
        <time>2009-06-14T16:44:15Z</time>
      </trkpt>
      <trkpt lat="50.618615" lon="6.467295">
        <ele>420.700000</ele>
        <time>2009-06-14T16:44:17Z</time>
      </trkpt>
      <trkpt lat="50.618663" lon="6.467175">
        <ele>418.800000</ele>
        <time>2009-06-14T16:44:20Z</time>
      </trkpt>
      <trkpt lat="50.618707" lon="6.467064">
        <ele>418.800000</ele>
        <time>2009-06-14T16:44:24Z</time>
      </trkpt>
      <trkpt lat="50.618750" lon="6.466925">
        <ele>415.900000</ele>
        <time>2009-06-14T16:44:27Z</time>
      </trkpt>
      <trkpt lat="50.618828" lon="6.466836">
        <ele>414.500000</ele>
        <time>2009-06-14T16:44:31Z</time>
      </trkpt>
      <trkpt lat="50.618853" lon="6.466816">
        <ele>415.400000</ele>
        <time>2009-06-14T16:44:32Z</time>
      </trkpt>
      <trkpt lat="50.618918" lon="6.466728">
        <ele>415.400000</ele>
        <time>2009-06-14T16:44:36Z</time>
      </trkpt>
      <trkpt lat="50.618973" lon="6.466631">
        <ele>417.800000</ele>
        <time>2009-06-14T16:44:39Z</time>
      </trkpt>
      <trkpt lat="50.619014" lon="6.466536">
        <ele>417.800000</ele>
        <time>2009-06-14T16:44:42Z</time>
      </trkpt>
      <trkpt lat="50.619049" lon="6.466431">
        <ele>415.900000</ele>
        <time>2009-06-14T16:44:45Z</time>
      </trkpt>
      <trkpt lat="50.619120" lon="6.466310">
        <ele>412.100000</ele>
        <time>2009-06-14T16:44:49Z</time>
      </trkpt>
      <trkpt lat="50.619188" lon="6.466180">
        <ele>411.100000</ele>
        <time>2009-06-14T16:44:54Z</time>
      </trkpt>
      <trkpt lat="50.619198" lon="6.466163">
        <ele>411.100000</ele>
        <time>2009-06-14T16:44:54Z</time>
      </trkpt>
      <trkpt lat="50.619237" lon="6.466074">
        <ele>410.600000</ele>
        <time>2009-06-14T16:44:57Z</time>
      </trkpt>
      <trkpt lat="50.619279" lon="6.465959">
        <ele>409.200000</ele>
        <time>2009-06-14T16:45:00Z</time>
      </trkpt>
      <trkpt lat="50.619312" lon="6.465849">
        <ele>406.300000</ele>
        <time>2009-06-14T16:45:03Z</time>
      </trkpt>
      <trkpt lat="50.619330" lon="6.465767">
        <ele>404.900000</ele>
        <time>2009-06-14T16:45:06Z</time>
      </trkpt>
      <trkpt lat="50.619382" lon="6.465612">
        <ele>403.900000</ele>
        <time>2009-06-14T16:45:10Z</time>
      </trkpt>
      <trkpt lat="50.619411" lon="6.465541">
        <ele>403.400000</ele>
        <time>2009-06-14T16:45:12Z</time>
      </trkpt>
      <trkpt lat="50.619424" lon="6.465503">
        <ele>403.900000</ele>
        <time>2009-06-14T16:45:13Z</time>
      </trkpt>
      <trkpt lat="50.619455" lon="6.465390">
        <ele>403.900000</ele>
        <time>2009-06-14T16:45:16Z</time>
      </trkpt>
      <trkpt lat="50.619463" lon="6.465259">
        <ele>404.900000</ele>
        <time>2009-06-14T16:45:20Z</time>
      </trkpt>
      <trkpt lat="50.619476" lon="6.465114">
        <ele>405.300000</ele>
        <time>2009-06-14T16:45:23Z</time>
      </trkpt>
      <trkpt lat="50.619476" lon="6.465073">
        <ele>405.800000</ele>
        <time>2009-06-14T16:45:24Z</time>
      </trkpt>
      <trkpt lat="50.619455" lon="6.464915">
        <ele>405.800000</ele>
        <time>2009-06-14T16:45:29Z</time>
      </trkpt>
      <trkpt lat="50.619426" lon="6.464783">
        <ele>408.200000</ele>
        <time>2009-06-14T16:45:32Z</time>
      </trkpt>
      <trkpt lat="50.619330" lon="6.464474">
        <ele>418.800000</ele>
        <time>2009-06-14T16:45:41Z</time>
      </trkpt>
      <trkpt lat="50.619271" lon="6.464321">
        <ele>422.600000</ele>
        <time>2009-06-14T16:45:45Z</time>
      </trkpt>
      <trkpt lat="50.619228" lon="6.464252">
        <ele>424.600000</ele>
        <time>2009-06-14T16:45:48Z</time>
      </trkpt>
      <trkpt lat="50.619222" lon="6.464180">
        <ele>423.100000</ele>
        <time>2009-06-14T16:45:50Z</time>
      </trkpt>
      <trkpt lat="50.619224" lon="6.464172">
        <ele>423.100000</ele>
        <time>2009-06-14T16:45:50Z</time>
      </trkpt>
      <trkpt lat="50.619165" lon="6.464097">
        <ele>427.000000</ele>
        <time>2009-06-14T16:45:53Z</time>
      </trkpt>
      <trkpt lat="50.619125" lon="6.464085">
        <ele>428.400000</ele>
        <time>2009-06-14T16:45:55Z</time>
      </trkpt>
      <trkpt lat="50.619067" lon="6.464036">
        <ele>427.400000</ele>
        <time>2009-06-14T16:45:57Z</time>
      </trkpt>
      <trkpt lat="50.619000" lon="6.463997">
        <ele>425.500000</ele>
        <time>2009-06-14T16:46:00Z</time>
      </trkpt>
      <trkpt lat="50.618917" lon="6.463933">
        <ele>424.100000</ele>
        <time>2009-06-14T16:46:04Z</time>
      </trkpt>
      <trkpt lat="50.618874" lon="6.463897">
        <ele>423.600000</ele>
        <time>2009-06-14T16:46:06Z</time>
      </trkpt>
      <trkpt lat="50.618789" lon="6.463829">
        <ele>425.000000</ele>
        <time>2009-06-14T16:46:10Z</time>
      </trkpt>
      <trkpt lat="50.618738" lon="6.463757">
        <ele>427.000000</ele>
        <time>2009-06-14T16:46:12Z</time>
      </trkpt>
      <trkpt lat="50.618738" lon="6.463756">
        <ele>427.000000</ele>
        <time>2009-06-14T16:46:12Z</time>
      </trkpt>
      <trkpt lat="50.618691" lon="6.463628">
        <ele>437.100000</ele>
        <time>2009-06-14T16:46:16Z</time>
      </trkpt>
      <trkpt lat="50.618694" lon="6.463632">
        <ele>439.000000</ele>
        <time>2009-06-14T16:46:16Z</time>
      </trkpt>
      <trkpt lat="50.618772" lon="6.463445">
        <ele>442.800000</ele>
        <time>2009-06-14T16:46:22Z</time>
      </trkpt>
      <trkpt lat="50.618781" lon="6.463428">
        <ele>442.300000</ele>
        <time>2009-06-14T16:46:23Z</time>
      </trkpt>
      <trkpt lat="50.618814" lon="6.463370">
        <ele>442.800000</ele>
        <time>2009-06-14T16:46:24Z</time>
      </trkpt>
      <trkpt lat="50.618874" lon="6.463247">
        <ele>443.800000</ele>
        <time>2009-06-14T16:46:28Z</time>
      </trkpt>
      <trkpt lat="50.618890" lon="6.463221">
        <ele>443.300000</ele>
        <time>2009-06-14T16:46:29Z</time>
      </trkpt>
      <trkpt lat="50.618940" lon="6.463092">
        <ele>439.500000</ele>
        <time>2009-06-14T16:46:33Z</time>
      </trkpt>
      <trkpt lat="50.618977" lon="6.463015">
        <ele>435.600000</ele>
        <time>2009-06-14T16:46:36Z</time>
      </trkpt>
      <trkpt lat="50.619017" lon="6.462932">
        <ele>432.700000</ele>
        <time>2009-06-14T16:46:38Z</time>
      </trkpt>
      <trkpt lat="50.619094" lon="6.462761">
        <ele>428.900000</ele>
        <time>2009-06-14T16:46:44Z</time>
      </trkpt>
      <trkpt lat="50.619135" lon="6.462623">
        <ele>428.900000</ele>
        <time>2009-06-14T16:46:47Z</time>
      </trkpt>
      <trkpt lat="50.619182" lon="6.462555">
        <ele>429.400000</ele>
        <time>2009-06-14T16:46:50Z</time>
      </trkpt>
      <trkpt lat="50.619223" lon="6.462462">
        <ele>432.200000</ele>
        <time>2009-06-14T16:46:53Z</time>
      </trkpt>
      <trkpt lat="50.619242" lon="6.462263">
        <ele>431.800000</ele>
        <time>2009-06-14T16:46:58Z</time>
      </trkpt>
      <trkpt lat="50.619244" lon="6.462166">
        <ele>438.000000</ele>
        <time>2009-06-14T16:47:01Z</time>
      </trkpt>
      <trkpt lat="50.619260" lon="6.462062">
        <ele>437.100000</ele>
        <time>2009-06-14T16:47:03Z</time>
      </trkpt>
      <trkpt lat="50.619274" lon="6.462017">
        <ele>435.100000</ele>
        <time>2009-06-14T16:47:04Z</time>
      </trkpt>
      <trkpt lat="50.619273" lon="6.461970">
        <ele>433.700000</ele>
        <time>2009-06-14T16:47:06Z</time>
      </trkpt>
      <trkpt lat="50.619278" lon="6.461929">
        <ele>431.300000</ele>
        <time>2009-06-14T16:47:07Z</time>
      </trkpt>
      <trkpt lat="50.619281" lon="6.461751">
        <ele>427.400000</ele>
        <time>2009-06-14T16:47:11Z</time>
      </trkpt>
      <trkpt lat="50.619273" lon="6.461615">
        <ele>425.500000</ele>
        <time>2009-06-14T16:47:15Z</time>
      </trkpt>
      <trkpt lat="50.619291" lon="6.461484">
        <ele>427.000000</ele>
        <time>2009-06-14T16:47:18Z</time>
      </trkpt>
      <trkpt lat="50.619292" lon="6.461409">
        <ele>426.500000</ele>
        <time>2009-06-14T16:47:20Z</time>
      </trkpt>
      <trkpt lat="50.619308" lon="6.461320">
        <ele>427.000000</ele>
        <time>2009-06-14T16:47:22Z</time>
      </trkpt>
      <trkpt lat="50.619312" lon="6.461307">
        <ele>427.400000</ele>
        <time>2009-06-14T16:47:23Z</time>
      </trkpt>
      <trkpt lat="50.619320" lon="6.461227">
        <ele>427.000000</ele>
        <time>2009-06-14T16:47:25Z</time>
      </trkpt>
      <trkpt lat="50.619323" lon="6.461124">
        <ele>425.000000</ele>
        <time>2009-06-14T16:47:27Z</time>
      </trkpt>
      <trkpt lat="50.619329" lon="6.461085">
        <ele>424.100000</ele>
        <time>2009-06-14T16:47:28Z</time>
      </trkpt>
      <trkpt lat="50.619349" lon="6.460976">
        <ele>421.200000</ele>
        <time>2009-06-14T16:47:31Z</time>
      </trkpt>
      <trkpt lat="50.619347" lon="6.460935">
        <ele>421.700000</ele>
        <time>2009-06-14T16:47:32Z</time>
      </trkpt>
      <trkpt lat="50.619353" lon="6.460863">
        <ele>424.100000</ele>
        <time>2009-06-14T16:47:34Z</time>
      </trkpt>
      <trkpt lat="50.619365" lon="6.460828">
        <ele>426.000000</ele>
        <time>2009-06-14T16:47:35Z</time>
      </trkpt>
      <trkpt lat="50.619365" lon="6.460789">
        <ele>426.500000</ele>
        <time>2009-06-14T16:47:36Z</time>
      </trkpt>
      <trkpt lat="50.619387" lon="6.460720">
        <ele>425.500000</ele>
        <time>2009-06-14T16:47:38Z</time>
      </trkpt>
      <trkpt lat="50.619415" lon="6.460556">
        <ele>421.200000</ele>
        <time>2009-06-14T16:47:43Z</time>
      </trkpt>
      <trkpt lat="50.619423" lon="6.460508">
        <ele>421.200000</ele>
        <time>2009-06-14T16:47:44Z</time>
      </trkpt>
      <trkpt lat="50.619447" lon="6.460380">
        <ele>418.300000</ele>
        <time>2009-06-14T16:47:47Z</time>
      </trkpt>
      <trkpt lat="50.619447" lon="6.460296">
        <ele>417.300000</ele>
        <time>2009-06-14T16:47:49Z</time>
      </trkpt>
      <trkpt lat="50.619460" lon="6.460234">
        <ele>415.400000</ele>
        <time>2009-06-14T16:47:51Z</time>
      </trkpt>
      <trkpt lat="50.619476" lon="6.460146">
        <ele>414.000000</ele>
        <time>2009-06-14T16:47:53Z</time>
      </trkpt>
      <trkpt lat="50.619479" lon="6.460099">
        <ele>413.000000</ele>
        <time>2009-06-14T16:47:54Z</time>
      </trkpt>
      <trkpt lat="50.619489" lon="6.459980">
        <ele>411.100000</ele>
        <time>2009-06-14T16:47:58Z</time>
      </trkpt>
      <trkpt lat="50.619511" lon="6.459800">
        <ele>411.100000</ele>
        <time>2009-06-14T16:48:02Z</time>
      </trkpt>
      <trkpt lat="50.619510" lon="6.459560">
        <ele>412.100000</ele>
        <time>2009-06-14T16:48:08Z</time>
      </trkpt>
      <trkpt lat="50.619509" lon="6.459352">
        <ele>414.000000</ele>
        <time>2009-06-14T16:48:14Z</time>
      </trkpt>
      <trkpt lat="50.619499" lon="6.459116">
        <ele>416.900000</ele>
        <time>2009-06-14T16:48:20Z</time>
      </trkpt>
      <trkpt lat="50.619496" lon="6.458947">
        <ele>416.900000</ele>
        <time>2009-06-14T16:48:24Z</time>
      </trkpt>
      <trkpt lat="50.619486" lon="6.458829">
        <ele>416.900000</ele>
        <time>2009-06-14T16:48:27Z</time>
      </trkpt>
      <trkpt lat="50.619493" lon="6.458729">
        <ele>417.300000</ele>
        <time>2009-06-14T16:48:29Z</time>
      </trkpt>
      <trkpt lat="50.619489" lon="6.458606">
        <ele>416.900000</ele>
        <time>2009-06-14T16:48:33Z</time>
      </trkpt>
      <trkpt lat="50.619471" lon="6.458463">
        <ele>420.200000</ele>
        <time>2009-06-14T16:48:36Z</time>
      </trkpt>
      <trkpt lat="50.619426" lon="6.458303">
        <ele>424.100000</ele>
        <time>2009-06-14T16:48:41Z</time>
      </trkpt>
      <trkpt lat="50.619360" lon="6.458161">
        <ele>424.600000</ele>
        <time>2009-06-14T16:48:45Z</time>
      </trkpt>
      <trkpt lat="50.619329" lon="6.458107">
        <ele>423.600000</ele>
        <time>2009-06-14T16:48:47Z</time>
      </trkpt>
      <trkpt lat="50.619254" lon="6.458029">
        <ele>421.700000</ele>
        <time>2009-06-14T16:48:51Z</time>
      </trkpt>
      <trkpt lat="50.619171" lon="6.457985">
        <ele>423.600000</ele>
        <time>2009-06-14T16:48:54Z</time>
      </trkpt>
      <trkpt lat="50.619083" lon="6.457976">
        <ele>427.400000</ele>
        <time>2009-06-14T16:48:58Z</time>
      </trkpt>
      <trkpt lat="50.619007" lon="6.457949">
        <ele>427.400000</ele>
        <time>2009-06-14T16:49:01Z</time>
      </trkpt>
      <trkpt lat="50.618992" lon="6.457944">
        <ele>426.500000</ele>
        <time>2009-06-14T16:49:01Z</time>
      </trkpt>
      <trkpt lat="50.618933" lon="6.457908">
        <ele>425.000000</ele>
        <time>2009-06-14T16:49:04Z</time>
      </trkpt>
      <trkpt lat="50.618870" lon="6.457881">
        <ele>423.100000</ele>
        <time>2009-06-14T16:49:07Z</time>
      </trkpt>
      <trkpt lat="50.618755" lon="6.457834">
        <ele>421.700000</ele>
        <time>2009-06-14T16:49:11Z</time>
      </trkpt>
      <trkpt lat="50.618669" lon="6.457796">
        <ele>418.300000</ele>
        <time>2009-06-14T16:49:15Z</time>
      </trkpt>
      <trkpt lat="50.618603" lon="6.457771">
        <ele>416.900000</ele>
        <time>2009-06-14T16:49:18Z</time>
      </trkpt>
      <trkpt lat="50.618565" lon="6.457768">
        <ele>416.900000</ele>
        <time>2009-06-14T16:49:19Z</time>
      </trkpt>
      <trkpt lat="50.618491" lon="6.457753">
        <ele>418.800000</ele>
        <time>2009-06-14T16:49:22Z</time>
      </trkpt>
      <trkpt lat="50.618401" lon="6.457721">
        <ele>418.300000</ele>
        <time>2009-06-14T16:49:26Z</time>
      </trkpt>
      <trkpt lat="50.618354" lon="6.457703">
        <ele>420.200000</ele>
        <time>2009-06-14T16:49:28Z</time>
      </trkpt>
      <trkpt lat="50.618269" lon="6.457678">
        <ele>419.800000</ele>
        <time>2009-06-14T16:49:31Z</time>
      </trkpt>
      <trkpt lat="50.618233" lon="6.457686">
        <ele>419.800000</ele>
        <time>2009-06-14T16:49:33Z</time>
      </trkpt>
      <trkpt lat="50.618120" lon="6.457718">
        <ele>419.800000</ele>
        <time>2009-06-14T16:49:37Z</time>
      </trkpt>
      <trkpt lat="50.618091" lon="6.457741">
        <ele>420.700000</ele>
        <time>2009-06-14T16:49:39Z</time>
      </trkpt>
      <trkpt lat="50.618033" lon="6.457754">
        <ele>422.200000</ele>
        <time>2009-06-14T16:49:41Z</time>
      </trkpt>
      <trkpt lat="50.617967" lon="6.457802">
        <ele>427.000000</ele>
        <time>2009-06-14T16:49:44Z</time>
      </trkpt>
      <trkpt lat="50.617881" lon="6.457813">
        <ele>427.000000</ele>
        <time>2009-06-14T16:49:47Z</time>
      </trkpt>
      <trkpt lat="50.617853" lon="6.457815">
        <ele>427.400000</ele>
        <time>2009-06-14T16:49:48Z</time>
      </trkpt>
      <trkpt lat="50.617782" lon="6.457838">
        <ele>430.800000</ele>
        <time>2009-06-14T16:49:51Z</time>
      </trkpt>
      <trkpt lat="50.617644" lon="6.457878">
        <ele>437.100000</ele>
        <time>2009-06-14T16:49:57Z</time>
      </trkpt>
      <trkpt lat="50.617577" lon="6.457882">
        <ele>437.100000</ele>
        <time>2009-06-14T16:50:00Z</time>
      </trkpt>
      <trkpt lat="50.617495" lon="6.457898">
        <ele>443.800000</ele>
        <time>2009-06-14T16:50:03Z</time>
      </trkpt>
      <trkpt lat="50.617471" lon="6.457890">
        <ele>444.300000</ele>
        <time>2009-06-14T16:50:04Z</time>
      </trkpt>
      <trkpt lat="50.617399" lon="6.457923">
        <ele>454.800000</ele>
        <time>2009-06-14T16:50:07Z</time>
      </trkpt>
      <trkpt lat="50.617389" lon="6.457918">
        <ele>454.800000</ele>
        <time>2009-06-14T16:50:07Z</time>
      </trkpt>
      <trkpt lat="50.617327" lon="6.457871">
        <ele>453.400000</ele>
        <time>2009-06-14T16:50:10Z</time>
      </trkpt>
      <trkpt lat="50.617237" lon="6.457849">
        <ele>452.900000</ele>
        <time>2009-06-14T16:50:14Z</time>
      </trkpt>
      <trkpt lat="50.617146" lon="6.457804">
        <ele>453.900000</ele>
        <time>2009-06-14T16:50:18Z</time>
      </trkpt>
      <trkpt lat="50.617120" lon="6.457713">
        <ele>453.900000</ele>
        <time>2009-06-14T16:50:20Z</time>
      </trkpt>
      <trkpt lat="50.617118" lon="6.457505">
        <ele>445.200000</ele>
        <time>2009-06-14T16:50:25Z</time>
      </trkpt>
      <trkpt lat="50.617111" lon="6.457446">
        <ele>445.700000</ele>
        <time>2009-06-14T16:50:27Z</time>
      </trkpt>
      <trkpt lat="50.617139" lon="6.457302">
        <ele>444.700000</ele>
        <time>2009-06-14T16:50:31Z</time>
      </trkpt>
      <trkpt lat="50.617145" lon="6.457173">
        <ele>445.200000</ele>
        <time>2009-06-14T16:50:34Z</time>
      </trkpt>
      <trkpt lat="50.617149" lon="6.457100">
        <ele>445.200000</ele>
        <time>2009-06-14T16:50:36Z</time>
      </trkpt>
      <trkpt lat="50.617165" lon="6.457022">
        <ele>445.200000</ele>
        <time>2009-06-14T16:50:38Z</time>
      </trkpt>
      <trkpt lat="50.617227" lon="6.456942">
        <ele>441.400000</ele>
        <time>2009-06-14T16:50:41Z</time>
      </trkpt>
      <trkpt lat="50.617247" lon="6.456904">
        <ele>439.000000</ele>
        <time>2009-06-14T16:50:42Z</time>
      </trkpt>
      <trkpt lat="50.617317" lon="6.456780">
        <ele>434.200000</ele>
        <time>2009-06-14T16:50:47Z</time>
      </trkpt>
      <trkpt lat="50.617375" lon="6.456637">
        <ele>433.200000</ele>
        <time>2009-06-14T16:50:51Z</time>
      </trkpt>
      <trkpt lat="50.617376" lon="6.456619">
        <ele>432.700000</ele>
        <time>2009-06-14T16:50:51Z</time>
      </trkpt>
      <trkpt lat="50.617405" lon="6.456573">
        <ele>432.200000</ele>
        <time>2009-06-14T16:50:53Z</time>
      </trkpt>
      <trkpt lat="50.617425" lon="6.456507">
        <ele>431.300000</ele>
        <time>2009-06-14T16:50:55Z</time>
      </trkpt>
      <trkpt lat="50.617439" lon="6.456473">
        <ele>430.800000</ele>
        <time>2009-06-14T16:50:56Z</time>
      </trkpt>
      <trkpt lat="50.617461" lon="6.456401">
        <ele>430.800000</ele>
        <time>2009-06-14T16:50:58Z</time>
      </trkpt>
      <trkpt lat="50.617502" lon="6.456289">
        <ele>433.200000</ele>
        <time>2009-06-14T16:51:01Z</time>
      </trkpt>
      <trkpt lat="50.617516" lon="6.456231">
        <ele>434.700000</ele>
        <time>2009-06-14T16:51:03Z</time>
      </trkpt>
      <trkpt lat="50.617508" lon="6.456140">
        <ele>434.700000</ele>
        <time>2009-06-14T16:51:05Z</time>
      </trkpt>
      <trkpt lat="50.617500" lon="6.456069">
        <ele>434.200000</ele>
        <time>2009-06-14T16:51:07Z</time>
      </trkpt>
      <trkpt lat="50.617449" lon="6.455894">
        <ele>436.100000</ele>
        <time>2009-06-14T16:51:12Z</time>
      </trkpt>
      <trkpt lat="50.617398" lon="6.455733">
        <ele>439.500000</ele>
        <time>2009-06-14T16:51:16Z</time>
      </trkpt>
      <trkpt lat="50.617388" lon="6.455699">
        <ele>439.900000</ele>
        <time>2009-06-14T16:51:17Z</time>
      </trkpt>
      <trkpt lat="50.617321" lon="6.455495">
        <ele>441.900000</ele>
        <time>2009-06-14T16:51:23Z</time>
      </trkpt>
      <trkpt lat="50.617256" lon="6.455329">
        <ele>441.900000</ele>
        <time>2009-06-14T16:51:28Z</time>
      </trkpt>
      <trkpt lat="50.617210" lon="6.455189">
        <ele>442.300000</ele>
        <time>2009-06-14T16:51:32Z</time>
      </trkpt>
      <trkpt lat="50.617164" lon="6.455083">
        <ele>441.900000</ele>
        <time>2009-06-14T16:51:35Z</time>
      </trkpt>
      <trkpt lat="50.617140" lon="6.455047">
        <ele>445.700000</ele>
        <time>2009-06-14T16:51:37Z</time>
      </trkpt>
      <trkpt lat="50.616984" lon="6.454622">
        <ele>452.000000</ele>
        <time>2009-06-14T16:51:49Z</time>
      </trkpt>
      <trkpt lat="50.616971" lon="6.454594">
        <ele>452.000000</ele>
        <time>2009-06-14T16:51:50Z</time>
      </trkpt>
      <trkpt lat="50.616946" lon="6.454492">
        <ele>450.000000</ele>
        <time>2009-06-14T16:51:53Z</time>
      </trkpt>
      <trkpt lat="50.616893" lon="6.454327">
        <ele>450.000000</ele>
        <time>2009-06-14T16:51:58Z</time>
      </trkpt>
      <trkpt lat="50.616838" lon="6.454177">
        <ele>449.600000</ele>
        <time>2009-06-14T16:52:02Z</time>
      </trkpt>
      <trkpt lat="50.616818" lon="6.454069">
        <ele>451.000000</ele>
        <time>2009-06-14T16:52:05Z</time>
      </trkpt>
      <trkpt lat="50.616773" lon="6.453947">
        <ele>452.400000</ele>
        <time>2009-06-14T16:52:08Z</time>
      </trkpt>
      <trkpt lat="50.616742" lon="6.453814">
        <ele>453.400000</ele>
        <time>2009-06-14T16:52:12Z</time>
      </trkpt>
      <trkpt lat="50.616738" lon="6.453792">
        <ele>453.400000</ele>
        <time>2009-06-14T16:52:13Z</time>
      </trkpt>
      <trkpt lat="50.616718" lon="6.453726">
        <ele>453.900000</ele>
        <time>2009-06-14T16:52:14Z</time>
      </trkpt>
      <trkpt lat="50.616667" lon="6.453547">
        <ele>454.800000</ele>
        <time>2009-06-14T16:52:19Z</time>
      </trkpt>
      <trkpt lat="50.616638" lon="6.453440">
        <ele>456.300000</ele>
        <time>2009-06-14T16:52:22Z</time>
      </trkpt>
      <trkpt lat="50.616585" lon="6.453270">
        <ele>454.800000</ele>
        <time>2009-06-14T16:52:27Z</time>
      </trkpt>
      <trkpt lat="50.616543" lon="6.453152">
        <ele>457.700000</ele>
        <time>2009-06-14T16:52:31Z</time>
      </trkpt>
      <trkpt lat="50.616525" lon="6.453096">
        <ele>458.700000</ele>
        <time>2009-06-14T16:52:32Z</time>
      </trkpt>
      <trkpt lat="50.616510" lon="6.453016">
        <ele>461.100000</ele>
        <time>2009-06-14T16:52:34Z</time>
      </trkpt>
      <trkpt lat="50.616467" lon="6.452847">
        <ele>464.000000</ele>
        <time>2009-06-14T16:52:39Z</time>
      </trkpt>
      <trkpt lat="50.616431" lon="6.452705">
        <ele>462.500000</ele>
        <time>2009-06-14T16:52:43Z</time>
      </trkpt>
      <trkpt lat="50.616391" lon="6.452551">
        <ele>462.500000</ele>
        <time>2009-06-14T16:52:47Z</time>
      </trkpt>
      <trkpt lat="50.616383" lon="6.452498">
        <ele>463.500000</ele>
        <time>2009-06-14T16:52:48Z</time>
      </trkpt>
      <trkpt lat="50.616384" lon="6.452416">
        <ele>469.700000</ele>
        <time>2009-06-14T16:52:51Z</time>
      </trkpt>
      <trkpt lat="50.616406" lon="6.452382">
        <ele>469.700000</ele>
        <time>2009-06-14T16:52:52Z</time>
      </trkpt>
      <trkpt lat="50.616440" lon="6.452307">
        <ele>472.100000</ele>
        <time>2009-06-14T16:52:54Z</time>
      </trkpt>
      <trkpt lat="50.616532" lon="6.452222">
        <ele>472.600000</ele>
        <time>2009-06-14T16:52:58Z</time>
      </trkpt>
      <trkpt lat="50.616544" lon="6.452220">
        <ele>472.600000</ele>
        <time>2009-06-14T16:52:59Z</time>
      </trkpt>
      <trkpt lat="50.616655" lon="6.452202">
        <ele>471.700000</ele>
        <time>2009-06-14T16:53:03Z</time>
      </trkpt>
      <trkpt lat="50.616732" lon="6.452237">
        <ele>473.100000</ele>
        <time>2009-06-14T16:53:07Z</time>
      </trkpt>
      <trkpt lat="50.616838" lon="6.452201">
        <ele>470.700000</ele>
        <time>2009-06-14T16:53:11Z</time>
      </trkpt>
      <trkpt lat="50.616914" lon="6.452261">
        <ele>474.100000</ele>
        <time>2009-06-14T16:53:14Z</time>
      </trkpt>
      <trkpt lat="50.616934" lon="6.452260">
        <ele>474.100000</ele>
        <time>2009-06-14T16:53:15Z</time>
      </trkpt>
      <trkpt lat="50.616953" lon="6.452269">
        <ele>473.600000</ele>
        <time>2009-06-14T16:53:16Z</time>
      </trkpt>
      <trkpt lat="50.617021" lon="6.452287">
        <ele>470.200000</ele>
        <time>2009-06-14T16:53:19Z</time>
      </trkpt>
      <trkpt lat="50.617071" lon="6.452306">
        <ele>470.700000</ele>
        <time>2009-06-14T16:53:21Z</time>
      </trkpt>
      <trkpt lat="50.617095" lon="6.452307">
        <ele>470.700000</ele>
        <time>2009-06-14T16:53:22Z</time>
      </trkpt>
      <trkpt lat="50.617139" lon="6.452312">
        <ele>467.800000</ele>
        <time>2009-06-14T16:53:23Z</time>
      </trkpt>
      <trkpt lat="50.617164" lon="6.452313">
        <ele>465.400000</ele>
        <time>2009-06-14T16:53:24Z</time>
      </trkpt>
      <trkpt lat="50.617228" lon="6.452360">
        <ele>464.500000</ele>
        <time>2009-06-14T16:53:27Z</time>
      </trkpt>
      <trkpt lat="50.617306" lon="6.452404">
        <ele>468.800000</ele>
        <time>2009-06-14T16:53:31Z</time>
      </trkpt>
      <trkpt lat="50.617412" lon="6.452417">
        <ele>472.100000</ele>
        <time>2009-06-14T16:53:35Z</time>
      </trkpt>
      <trkpt lat="50.617479" lon="6.452420">
        <ele>474.100000</ele>
        <time>2009-06-14T16:53:38Z</time>
      </trkpt>
      <trkpt lat="50.617576" lon="6.452445">
        <ele>475.500000</ele>
        <time>2009-06-14T16:53:41Z</time>
      </trkpt>
      <trkpt lat="50.617597" lon="6.452453">
        <ele>474.500000</ele>
        <time>2009-06-14T16:53:42Z</time>
      </trkpt>
      <trkpt lat="50.617633" lon="6.452453">
        <ele>473.100000</ele>
        <time>2009-06-14T16:53:44Z</time>
      </trkpt>
      <trkpt lat="50.617704" lon="6.452472">
        <ele>471.200000</ele>
        <time>2009-06-14T16:53:47Z</time>
      </trkpt>
      <trkpt lat="50.617816" lon="6.452489">
        <ele>468.800000</ele>
        <time>2009-06-14T16:53:51Z</time>
      </trkpt>
      <trkpt lat="50.617941" lon="6.452478">
        <ele>468.300000</ele>
        <time>2009-06-14T16:53:56Z</time>
      </trkpt>
      <trkpt lat="50.617997" lon="6.452466">
        <ele>468.300000</ele>
        <time>2009-06-14T16:53:58Z</time>
      </trkpt>
      <trkpt lat="50.618082" lon="6.452379">
        <ele>469.700000</ele>
        <time>2009-06-14T16:54:02Z</time>
      </trkpt>
      <trkpt lat="50.618101" lon="6.452327">
        <ele>470.200000</ele>
        <time>2009-06-14T16:54:04Z</time>
      </trkpt>
      <trkpt lat="50.618160" lon="6.452242">
        <ele>470.200000</ele>
        <time>2009-06-14T16:54:07Z</time>
      </trkpt>
      <trkpt lat="50.618220" lon="6.452142">
        <ele>470.200000</ele>
        <time>2009-06-14T16:54:11Z</time>
      </trkpt>
      <trkpt lat="50.618227" lon="6.452141">
        <ele>471.700000</ele>
        <time>2009-06-14T16:54:11Z</time>
      </trkpt>
      <trkpt lat="50.618317" lon="6.451920">
        <ele>474.100000</ele>
        <time>2009-06-14T16:54:18Z</time>
      </trkpt>
      <trkpt lat="50.618330" lon="6.451907">
        <ele>473.600000</ele>
        <time>2009-06-14T16:54:18Z</time>
      </trkpt>
      <trkpt lat="50.618390" lon="6.451824">
        <ele>472.600000</ele>
        <time>2009-06-14T16:54:21Z</time>
      </trkpt>
      <trkpt lat="50.618417" lon="6.451791">
        <ele>472.600000</ele>
        <time>2009-06-14T16:54:23Z</time>
      </trkpt>
      <trkpt lat="50.618518" lon="6.451705">
        <ele>471.700000</ele>
        <time>2009-06-14T16:54:27Z</time>
      </trkpt>
      <trkpt lat="50.618606" lon="6.451634">
        <ele>471.700000</ele>
        <time>2009-06-14T16:54:31Z</time>
      </trkpt>
      <trkpt lat="50.618687" lon="6.451572">
        <ele>474.100000</ele>
        <time>2009-06-14T16:54:35Z</time>
      </trkpt>
      <trkpt lat="50.618761" lon="6.451473">
        <ele>477.900000</ele>
        <time>2009-06-14T16:54:39Z</time>
      </trkpt>
      <trkpt lat="50.618800" lon="6.451449">
        <ele>479.400000</ele>
        <time>2009-06-14T16:54:41Z</time>
      </trkpt>
      <trkpt lat="50.618870" lon="6.451326">
        <ele>477.900000</ele>
        <time>2009-06-14T16:54:45Z</time>
      </trkpt>
      <trkpt lat="50.618886" lon="6.451292">
        <ele>477.400000</ele>
        <time>2009-06-14T16:54:46Z</time>
      </trkpt>
      <trkpt lat="50.618972" lon="6.451182">
        <ele>477.400000</ele>
        <time>2009-06-14T16:54:50Z</time>
      </trkpt>
      <trkpt lat="50.619034" lon="6.451069">
        <ele>475.000000</ele>
        <time>2009-06-14T16:54:54Z</time>
      </trkpt>
      <trkpt lat="50.619087" lon="6.450921">
        <ele>473.100000</ele>
        <time>2009-06-14T16:54:58Z</time>
      </trkpt>
      <trkpt lat="50.619119" lon="6.450825">
        <ele>472.600000</ele>
        <time>2009-06-14T16:55:01Z</time>
      </trkpt>
      <trkpt lat="50.619137" lon="6.450751">
        <ele>474.500000</ele>
        <time>2009-06-14T16:55:03Z</time>
      </trkpt>
      <trkpt lat="50.619158" lon="6.450620">
        <ele>477.400000</ele>
        <time>2009-06-14T16:55:07Z</time>
      </trkpt>
      <trkpt lat="50.619175" lon="6.450561">
        <ele>477.900000</ele>
        <time>2009-06-14T16:55:08Z</time>
      </trkpt>
      <trkpt lat="50.619168" lon="6.450489">
        <ele>479.400000</ele>
        <time>2009-06-14T16:55:10Z</time>
      </trkpt>
      <trkpt lat="50.619163" lon="6.450388">
        <ele>480.800000</ele>
        <time>2009-06-14T16:55:13Z</time>
      </trkpt>
      <trkpt lat="50.619155" lon="6.450211">
        <ele>482.700000</ele>
        <time>2009-06-14T16:55:17Z</time>
      </trkpt>
      <trkpt lat="50.619135" lon="6.449951">
        <ele>482.700000</ele>
        <time>2009-06-14T16:55:24Z</time>
      </trkpt>
      <trkpt lat="50.619136" lon="6.449847">
        <ele>483.200000</ele>
        <time>2009-06-14T16:55:26Z</time>
      </trkpt>
      <trkpt lat="50.619146" lon="6.449722">
        <ele>484.600000</ele>
        <time>2009-06-14T16:55:30Z</time>
      </trkpt>
      <trkpt lat="50.619143" lon="6.449643">
        <ele>485.600000</ele>
        <time>2009-06-14T16:55:32Z</time>
      </trkpt>
      <trkpt lat="50.619137" lon="6.449555">
        <ele>487.000000</ele>
        <time>2009-06-14T16:55:34Z</time>
      </trkpt>
      <trkpt lat="50.619140" lon="6.449474">
        <ele>489.000000</ele>
        <time>2009-06-14T16:55:36Z</time>
      </trkpt>
      <trkpt lat="50.619143" lon="6.449387">
        <ele>488.500000</ele>
        <time>2009-06-14T16:55:38Z</time>
      </trkpt>
      <trkpt lat="50.619182" lon="6.449325">
        <ele>489.400000</ele>
        <time>2009-06-14T16:55:40Z</time>
      </trkpt>
      <trkpt lat="50.619256" lon="6.449299">
        <ele>489.000000</ele>
        <time>2009-06-14T16:55:43Z</time>
      </trkpt>
      <trkpt lat="50.619369" lon="6.449258">
        <ele>485.600000</ele>
        <time>2009-06-14T16:55:48Z</time>
      </trkpt>
      <trkpt lat="50.619411" lon="6.449235">
        <ele>483.700000</ele>
        <time>2009-06-14T16:55:50Z</time>
      </trkpt>
      <trkpt lat="50.619472" lon="6.449207">
        <ele>481.800000</ele>
        <time>2009-06-14T16:55:52Z</time>
      </trkpt>
      <trkpt lat="50.619527" lon="6.449226">
        <ele>479.800000</ele>
        <time>2009-06-14T16:55:55Z</time>
      </trkpt>
      <trkpt lat="50.619582" lon="6.449237">
        <ele>478.900000</ele>
        <time>2009-06-14T16:55:57Z</time>
      </trkpt>
      <trkpt lat="50.619646" lon="6.449237">
        <ele>478.900000</ele>
        <time>2009-06-14T16:55:59Z</time>
      </trkpt>
      <trkpt lat="50.619661" lon="6.449242">
        <ele>478.900000</ele>
        <time>2009-06-14T16:56:00Z</time>
      </trkpt>
      <trkpt lat="50.619709" lon="6.449284">
        <ele>477.400000</ele>
        <time>2009-06-14T16:56:02Z</time>
      </trkpt>
      <trkpt lat="50.619721" lon="6.449309">
        <ele>477.000000</ele>
        <time>2009-06-14T16:56:03Z</time>
      </trkpt>
      <trkpt lat="50.619806" lon="6.449347">
        <ele>476.500000</ele>
        <time>2009-06-14T16:56:07Z</time>
      </trkpt>
      <trkpt lat="50.619810" lon="6.449354">
        <ele>475.500000</ele>
        <time>2009-06-14T16:56:07Z</time>
      </trkpt>
      <trkpt lat="50.619897" lon="6.449350">
        <ele>473.100000</ele>
        <time>2009-06-14T16:56:10Z</time>
      </trkpt>
      <trkpt lat="50.619936" lon="6.449379">
        <ele>472.100000</ele>
        <time>2009-06-14T16:56:12Z</time>
      </trkpt>
      <trkpt lat="50.620004" lon="6.449391">
        <ele>470.700000</ele>
        <time>2009-06-14T16:56:15Z</time>
      </trkpt>
      <trkpt lat="50.620051" lon="6.449411">
        <ele>471.200000</ele>
        <time>2009-06-14T16:56:17Z</time>
      </trkpt>
      <trkpt lat="50.620144" lon="6.449407">
        <ele>472.100000</ele>
        <time>2009-06-14T16:56:20Z</time>
      </trkpt>
      <trkpt lat="50.620216" lon="6.449416">
        <ele>471.700000</ele>
        <time>2009-06-14T16:56:23Z</time>
      </trkpt>
      <trkpt lat="50.620258" lon="6.449435">
        <ele>470.200000</ele>
        <time>2009-06-14T16:56:25Z</time>
      </trkpt>
      <trkpt lat="50.620283" lon="6.449468">
        <ele>467.800000</ele>
        <time>2009-06-14T16:56:26Z</time>
      </trkpt>
      <trkpt lat="50.620331" lon="6.449556">
        <ele>465.900000</ele>
        <time>2009-06-14T16:56:29Z</time>
      </trkpt>
      <trkpt lat="50.620402" lon="6.449626">
        <ele>464.500000</ele>
        <time>2009-06-14T16:56:33Z</time>
      </trkpt>
      <trkpt lat="50.620457" lon="6.449618">
        <ele>467.300000</ele>
        <time>2009-06-14T16:56:35Z</time>
      </trkpt>
      <trkpt lat="50.620526" lon="6.449570">
        <ele>469.300000</ele>
        <time>2009-06-14T16:56:38Z</time>
      </trkpt>
      <trkpt lat="50.620543" lon="6.449504">
        <ele>470.700000</ele>
        <time>2009-06-14T16:56:40Z</time>
      </trkpt>
      <trkpt lat="50.620557" lon="6.449409">
        <ele>469.700000</ele>
        <time>2009-06-14T16:56:42Z</time>
      </trkpt>
      <trkpt lat="50.620586" lon="6.449336">
        <ele>468.800000</ele>
        <time>2009-06-14T16:56:44Z</time>
      </trkpt>
      <trkpt lat="50.620610" lon="6.449286">
        <ele>467.800000</ele>
        <time>2009-06-14T16:56:46Z</time>
      </trkpt>
      <trkpt lat="50.620655" lon="6.449242">
        <ele>466.400000</ele>
        <time>2009-06-14T16:56:48Z</time>
      </trkpt>
      <trkpt lat="50.620754" lon="6.449193">
        <ele>464.900000</ele>
        <time>2009-06-14T16:56:52Z</time>
      </trkpt>
      <trkpt lat="50.620824" lon="6.449147">
        <ele>465.900000</ele>
        <time>2009-06-14T16:56:55Z</time>
      </trkpt>
      <trkpt lat="50.620885" lon="6.449141">
        <ele>464.500000</ele>
        <time>2009-06-14T16:56:58Z</time>
      </trkpt>
      <trkpt lat="50.620916" lon="6.449132">
        <ele>464.000000</ele>
        <time>2009-06-14T16:56:59Z</time>
      </trkpt>
      <trkpt lat="50.620997" lon="6.449126">
        <ele>463.500000</ele>
        <time>2009-06-14T16:57:02Z</time>
      </trkpt>
      <trkpt lat="50.621079" lon="6.449103">
        <ele>461.600000</ele>
        <time>2009-06-14T16:57:06Z</time>
      </trkpt>
      <trkpt lat="50.621150" lon="6.449038">
        <ele>459.200000</ele>
        <time>2009-06-14T16:57:09Z</time>
      </trkpt>
      <trkpt lat="50.621195" lon="6.448993">
        <ele>457.700000</ele>
        <time>2009-06-14T16:57:11Z</time>
      </trkpt>
      <trkpt lat="50.621237" lon="6.448919">
        <ele>455.300000</ele>
        <time>2009-06-14T16:57:13Z</time>
      </trkpt>
      <trkpt lat="50.621266" lon="6.448828">
        <ele>456.300000</ele>
        <time>2009-06-14T16:57:16Z</time>
      </trkpt>
      <trkpt lat="50.621294" lon="6.448758">
        <ele>456.300000</ele>
        <time>2009-06-14T16:57:18Z</time>
      </trkpt>
      <trkpt lat="50.621291" lon="6.448728">
        <ele>458.200000</ele>
        <time>2009-06-14T16:57:19Z</time>
      </trkpt>
      <trkpt lat="50.621266" lon="6.448788">
        <ele>461.100000</ele>
        <time>2009-06-14T16:57:21Z</time>
      </trkpt>
      <trkpt lat="50.621256" lon="6.448810">
        <ele>460.600000</ele>
        <time>2009-06-14T16:57:21Z</time>
      </trkpt>
      <trkpt lat="50.621158" lon="6.448680">
        <ele>460.100000</ele>
        <time>2009-06-14T16:57:27Z</time>
      </trkpt>
      <trkpt lat="50.621120" lon="6.448639">
        <ele>458.700000</ele>
        <time>2009-06-14T16:57:28Z</time>
      </trkpt>
      <trkpt lat="50.621100" lon="6.448590">
        <ele>459.200000</ele>
        <time>2009-06-14T16:57:30Z</time>
      </trkpt>
      <trkpt lat="50.621052" lon="6.448556">
        <ele>458.200000</ele>
        <time>2009-06-14T16:57:32Z</time>
      </trkpt>
      <trkpt lat="50.620987" lon="6.448534">
        <ele>455.800000</ele>
        <time>2009-06-14T16:57:35Z</time>
      </trkpt>
      <trkpt lat="50.620886" lon="6.448472">
        <ele>455.300000</ele>
        <time>2009-06-14T16:57:39Z</time>
      </trkpt>
      <trkpt lat="50.620850" lon="6.448462">
        <ele>455.800000</ele>
        <time>2009-06-14T16:57:40Z</time>
      </trkpt>
      <trkpt lat="50.620837" lon="6.448475">
        <ele>456.300000</ele>
        <time>2009-06-14T16:57:41Z</time>
      </trkpt>
      <trkpt lat="50.620961" lon="6.448095">
        <ele>454.800000</ele>
        <time>2009-06-14T16:57:52Z</time>
      </trkpt>
      <trkpt lat="50.620962" lon="6.447994">
        <ele>455.300000</ele>
        <time>2009-06-14T16:57:55Z</time>
      </trkpt>
      <trkpt lat="50.620927" lon="6.447839">
        <ele>457.200000</ele>
        <time>2009-06-14T16:57:59Z</time>
      </trkpt>
      <trkpt lat="50.620896" lon="6.447732">
        <ele>456.300000</ele>
        <time>2009-06-14T16:58:02Z</time>
      </trkpt>
      <trkpt lat="50.620854" lon="6.447623">
        <ele>457.700000</ele>
        <time>2009-06-14T16:58:05Z</time>
      </trkpt>
      <trkpt lat="50.620806" lon="6.447515">
        <ele>458.700000</ele>
        <time>2009-06-14T16:58:08Z</time>
      </trkpt>
      <trkpt lat="50.620781" lon="6.447435">
        <ele>459.600000</ele>
        <time>2009-06-14T16:58:11Z</time>
      </trkpt>
      <trkpt lat="50.620733" lon="6.447286">
        <ele>459.200000</ele>
        <time>2009-06-14T16:58:15Z</time>
      </trkpt>
      <trkpt lat="50.620703" lon="6.447157">
        <ele>458.700000</ele>
        <time>2009-06-14T16:58:18Z</time>
      </trkpt>
      <trkpt lat="50.620662" lon="6.447047">
        <ele>459.200000</ele>
        <time>2009-06-14T16:58:22Z</time>
      </trkpt>
      <trkpt lat="50.620594" lon="6.446889">
        <ele>458.700000</ele>
        <time>2009-06-14T16:58:26Z</time>
      </trkpt>
      <trkpt lat="50.620538" lon="6.446697">
        <ele>458.200000</ele>
        <time>2009-06-14T16:58:32Z</time>
      </trkpt>
      <trkpt lat="50.620504" lon="6.446586">
        <ele>457.200000</ele>
        <time>2009-06-14T16:58:35Z</time>
      </trkpt>
      <trkpt lat="50.620454" lon="6.446451">
        <ele>456.300000</ele>
        <time>2009-06-14T16:58:39Z</time>
      </trkpt>
      <trkpt lat="50.620417" lon="6.446361">
        <ele>455.800000</ele>
        <time>2009-06-14T16:58:42Z</time>
      </trkpt>
      <trkpt lat="50.620372" lon="6.446240">
        <ele>455.300000</ele>
        <time>2009-06-14T16:58:45Z</time>
      </trkpt>
      <trkpt lat="50.620316" lon="6.446103">
        <ele>456.300000</ele>
        <time>2009-06-14T16:58:49Z</time>
      </trkpt>
      <trkpt lat="50.620257" lon="6.445994">
        <ele>456.300000</ele>
        <time>2009-06-14T16:58:53Z</time>
      </trkpt>
      <trkpt lat="50.620208" lon="6.445870">
        <ele>454.800000</ele>
        <time>2009-06-14T16:58:57Z</time>
      </trkpt>
      <trkpt lat="50.620178" lon="6.445750">
        <ele>454.800000</ele>
        <time>2009-06-14T16:59:00Z</time>
      </trkpt>
      <trkpt lat="50.620133" lon="6.445635">
        <ele>453.400000</ele>
        <time>2009-06-14T16:59:03Z</time>
      </trkpt>
      <trkpt lat="50.620116" lon="6.445599">
        <ele>453.900000</ele>
        <time>2009-06-14T16:59:04Z</time>
      </trkpt>
      <trkpt lat="50.620092" lon="6.445550">
        <ele>454.400000</ele>
        <time>2009-06-14T16:59:06Z</time>
      </trkpt>
      <trkpt lat="50.620062" lon="6.445462">
        <ele>453.900000</ele>
        <time>2009-06-14T16:59:09Z</time>
      </trkpt>
      <trkpt lat="50.620049" lon="6.445424">
        <ele>453.400000</ele>
        <time>2009-06-14T16:59:10Z</time>
      </trkpt>
      <trkpt lat="50.620028" lon="6.445363">
        <ele>452.000000</ele>
        <time>2009-06-14T16:59:11Z</time>
      </trkpt>
      <trkpt lat="50.619999" lon="6.445205">
        <ele>451.500000</ele>
        <time>2009-06-14T16:59:16Z</time>
      </trkpt>
      <trkpt lat="50.619986" lon="6.445163">
        <ele>452.400000</ele>
        <time>2009-06-14T16:59:17Z</time>
      </trkpt>
      <trkpt lat="50.619965" lon="6.445011">
        <ele>453.400000</ele>
        <time>2009-06-14T16:59:21Z</time>
      </trkpt>
      <trkpt lat="50.619987" lon="6.444844">
        <ele>452.900000</ele>
        <time>2009-06-14T16:59:25Z</time>
      </trkpt>
      <trkpt lat="50.620001" lon="6.444711">
        <ele>451.500000</ele>
        <time>2009-06-14T16:59:28Z</time>
      </trkpt>
      <trkpt lat="50.620018" lon="6.444655">
        <ele>452.000000</ele>
        <time>2009-06-14T16:59:30Z</time>
      </trkpt>
      <trkpt lat="50.620027" lon="6.444556">
        <ele>452.900000</ele>
        <time>2009-06-14T16:59:33Z</time>
      </trkpt>
      <trkpt lat="50.620012" lon="6.444487">
        <ele>452.900000</ele>
        <time>2009-06-14T16:59:34Z</time>
      </trkpt>
      <trkpt lat="50.620018" lon="6.444384">
        <ele>453.400000</ele>
        <time>2009-06-14T16:59:37Z</time>
      </trkpt>
      <trkpt lat="50.619989" lon="6.444244">
        <ele>452.400000</ele>
        <time>2009-06-14T16:59:41Z</time>
      </trkpt>
      <trkpt lat="50.619972" lon="6.444179">
        <ele>452.900000</ele>
        <time>2009-06-14T16:59:43Z</time>
      </trkpt>
      <trkpt lat="50.619922" lon="6.444033">
        <ele>453.400000</ele>
        <time>2009-06-14T16:59:47Z</time>
      </trkpt>
      <trkpt lat="50.619885" lon="6.443954">
        <ele>453.900000</ele>
        <time>2009-06-14T16:59:49Z</time>
      </trkpt>
      <trkpt lat="50.619824" lon="6.443841">
        <ele>455.300000</ele>
        <time>2009-06-14T16:59:53Z</time>
      </trkpt>
      <trkpt lat="50.619759" lon="6.443732">
        <ele>455.800000</ele>
        <time>2009-06-14T16:59:57Z</time>
      </trkpt>
      <trkpt lat="50.619699" lon="6.443616">
        <ele>456.300000</ele>
        <time>2009-06-14T17:00:01Z</time>
      </trkpt>
      <trkpt lat="50.619654" lon="6.443568">
        <ele>456.800000</ele>
        <time>2009-06-14T17:00:03Z</time>
      </trkpt>
      <trkpt lat="50.619581" lon="6.443456">
        <ele>456.800000</ele>
        <time>2009-06-14T17:00:07Z</time>
      </trkpt>
      <trkpt lat="50.619521" lon="6.443382">
        <ele>455.800000</ele>
        <time>2009-06-14T17:00:10Z</time>
      </trkpt>
      <trkpt lat="50.619469" lon="6.443318">
        <ele>455.800000</ele>
        <time>2009-06-14T17:00:13Z</time>
      </trkpt>
      <trkpt lat="50.619435" lon="6.443309">
        <ele>454.800000</ele>
        <time>2009-06-14T17:00:14Z</time>
      </trkpt>
      <trkpt lat="50.619322" lon="6.443327">
        <ele>453.900000</ele>
        <time>2009-06-14T17:00:19Z</time>
      </trkpt>
      <trkpt lat="50.619226" lon="6.443348">
        <ele>454.800000</ele>
        <time>2009-06-14T17:00:22Z</time>
      </trkpt>
      <trkpt lat="50.619116" lon="6.443360">
        <ele>452.000000</ele>
        <time>2009-06-14T17:00:27Z</time>
      </trkpt>
      <trkpt lat="50.619106" lon="6.443365">
        <ele>452.400000</ele>
        <time>2009-06-14T17:00:27Z</time>
      </trkpt>
      <trkpt lat="50.619068" lon="6.443360">
        <ele>451.000000</ele>
        <time>2009-06-14T17:00:29Z</time>
      </trkpt>
      <trkpt lat="50.618875" lon="6.443316">
        <ele>452.000000</ele>
        <time>2009-06-14T17:00:37Z</time>
      </trkpt>
      <trkpt lat="50.618775" lon="6.443275">
        <ele>450.500000</ele>
        <time>2009-06-14T17:00:41Z</time>
      </trkpt>
      <trkpt lat="50.618751" lon="6.443260">
        <ele>450.000000</ele>
        <time>2009-06-14T17:00:42Z</time>
      </trkpt>
      <trkpt lat="50.618733" lon="6.443257">
        <ele>450.000000</ele>
        <time>2009-06-14T17:00:42Z</time>
      </trkpt>
      <trkpt lat="50.618725" lon="6.443260">
        <ele>451.000000</ele>
        <time>2009-06-14T17:00:43Z</time>
      </trkpt>
      <trkpt lat="50.618433" lon="6.442996">
        <ele>458.700000</ele>
        <time>2009-06-14T17:00:56Z</time>
      </trkpt>
      <trkpt lat="50.618401" lon="6.443002">
        <ele>458.200000</ele>
        <time>2009-06-14T17:00:58Z</time>
      </trkpt>
      <trkpt lat="50.618351" lon="6.442942">
        <ele>457.700000</ele>
        <time>2009-06-14T17:01:00Z</time>
      </trkpt>
      <trkpt lat="50.618286" lon="6.442865">
        <ele>457.200000</ele>
        <time>2009-06-14T17:01:03Z</time>
      </trkpt>
      <trkpt lat="50.618219" lon="6.442748">
        <ele>459.200000</ele>
        <time>2009-06-14T17:01:07Z</time>
      </trkpt>
      <trkpt lat="50.618162" lon="6.442648">
        <ele>462.100000</ele>
        <time>2009-06-14T17:01:11Z</time>
      </trkpt>
      <trkpt lat="50.618137" lon="6.442585">
        <ele>463.000000</ele>
        <time>2009-06-14T17:01:13Z</time>
      </trkpt>
      <trkpt lat="50.618103" lon="6.442507">
        <ele>465.400000</ele>
        <time>2009-06-14T17:01:15Z</time>
      </trkpt>
      <trkpt lat="50.618061" lon="6.442357">
        <ele>467.300000</ele>
        <time>2009-06-14T17:01:19Z</time>
      </trkpt>
      <trkpt lat="50.618008" lon="6.442295">
        <ele>464.900000</ele>
        <time>2009-06-14T17:01:22Z</time>
      </trkpt>
      <trkpt lat="50.617959" lon="6.442231">
        <ele>463.500000</ele>
        <time>2009-06-14T17:01:24Z</time>
      </trkpt>
      <trkpt lat="50.617946" lon="6.442210">
        <ele>463.000000</ele>
        <time>2009-06-14T17:01:25Z</time>
      </trkpt>
      <trkpt lat="50.617907" lon="6.442112">
        <ele>464.000000</ele>
        <time>2009-06-14T17:01:28Z</time>
      </trkpt>
      <trkpt lat="50.617900" lon="6.442094">
        <ele>464.500000</ele>
        <time>2009-06-14T17:01:29Z</time>
      </trkpt>
      <trkpt lat="50.617812" lon="6.441985">
        <ele>469.700000</ele>
        <time>2009-06-14T17:01:33Z</time>
      </trkpt>
      <trkpt lat="50.617744" lon="6.441851">
        <ele>472.600000</ele>
        <time>2009-06-14T17:01:37Z</time>
      </trkpt>
      <trkpt lat="50.617653" lon="6.441743">
        <ele>471.700000</ele>
        <time>2009-06-14T17:01:42Z</time>
      </trkpt>
      <trkpt lat="50.617606" lon="6.441621">
        <ele>472.100000</ele>
        <time>2009-06-14T17:01:46Z</time>
      </trkpt>
      <trkpt lat="50.617557" lon="6.441530">
        <ele>471.200000</ele>
        <time>2009-06-14T17:01:49Z</time>
      </trkpt>
      <trkpt lat="50.617543" lon="6.441497">
        <ele>470.700000</ele>
        <time>2009-06-14T17:01:50Z</time>
      </trkpt>
      <trkpt lat="50.617513" lon="6.441377">
        <ele>471.200000</ele>
        <time>2009-06-14T17:01:53Z</time>
      </trkpt>
      <trkpt lat="50.617467" lon="6.441344">
        <ele>470.700000</ele>
        <time>2009-06-14T17:01:55Z</time>
      </trkpt>
      <trkpt lat="50.617433" lon="6.441294">
        <ele>470.700000</ele>
        <time>2009-06-14T17:01:57Z</time>
      </trkpt>
      <trkpt lat="50.617425" lon="6.441282">
        <ele>470.700000</ele>
        <time>2009-06-14T17:01:57Z</time>
      </trkpt>
      <trkpt lat="50.617413" lon="6.441144">
        <ele>475.500000</ele>
        <time>2009-06-14T17:02:01Z</time>
      </trkpt>
      <trkpt lat="50.617448" lon="6.441090">
        <ele>476.500000</ele>
        <time>2009-06-14T17:02:03Z</time>
      </trkpt>
      <trkpt lat="50.617466" lon="6.441087">
        <ele>474.500000</ele>
        <time>2009-06-14T17:02:04Z</time>
      </trkpt>
      <trkpt lat="50.617524" lon="6.441110">
        <ele>468.800000</ele>
        <time>2009-06-14T17:02:06Z</time>
      </trkpt>
      <trkpt lat="50.617536" lon="6.441116">
        <ele>467.800000</ele>
        <time>2009-06-14T17:02:06Z</time>
      </trkpt>
      <trkpt lat="50.617588" lon="6.441121">
        <ele>468.300000</ele>
        <time>2009-06-14T17:02:09Z</time>
      </trkpt>
      <trkpt lat="50.617678" lon="6.441090">
        <ele>471.200000</ele>
        <time>2009-06-14T17:02:12Z</time>
      </trkpt>
      <trkpt lat="50.617747" lon="6.441081">
        <ele>471.200000</ele>
        <time>2009-06-14T17:02:15Z</time>
      </trkpt>
      <trkpt lat="50.617822" lon="6.441130">
        <ele>471.700000</ele>
        <time>2009-06-14T17:02:18Z</time>
      </trkpt>
      <trkpt lat="50.617911" lon="6.441144">
        <ele>473.600000</ele>
        <time>2009-06-14T17:02:22Z</time>
      </trkpt>
      <trkpt lat="50.617941" lon="6.441134">
        <ele>474.100000</ele>
        <time>2009-06-14T17:02:23Z</time>
      </trkpt>
      <trkpt lat="50.618023" lon="6.441111">
        <ele>476.500000</ele>
        <time>2009-06-14T17:02:26Z</time>
      </trkpt>
      <trkpt lat="50.618113" lon="6.441112">
        <ele>477.400000</ele>
        <time>2009-06-14T17:02:30Z</time>
      </trkpt>
      <trkpt lat="50.618165" lon="6.441123">
        <ele>475.000000</ele>
        <time>2009-06-14T17:02:32Z</time>
      </trkpt>
      <trkpt lat="50.618222" lon="6.441096">
        <ele>475.000000</ele>
        <time>2009-06-14T17:02:34Z</time>
      </trkpt>
      <trkpt lat="50.618266" lon="6.440998">
        <ele>474.500000</ele>
        <time>2009-06-14T17:02:37Z</time>
      </trkpt>
      <trkpt lat="50.618313" lon="6.440915">
        <ele>477.000000</ele>
        <time>2009-06-14T17:02:40Z</time>
      </trkpt>
      <trkpt lat="50.618339" lon="6.440812">
        <ele>477.900000</ele>
        <time>2009-06-14T17:02:43Z</time>
      </trkpt>
      <trkpt lat="50.618366" lon="6.440765">
        <ele>477.900000</ele>
        <time>2009-06-14T17:02:45Z</time>
      </trkpt>
      <trkpt lat="50.618365" lon="6.440742">
        <ele>477.400000</ele>
        <time>2009-06-14T17:02:45Z</time>
      </trkpt>
      <trkpt lat="50.618388" lon="6.440647">
        <ele>478.900000</ele>
        <time>2009-06-14T17:02:48Z</time>
      </trkpt>
      <trkpt lat="50.618422" lon="6.440570">
        <ele>477.900000</ele>
        <time>2009-06-14T17:02:50Z</time>
      </trkpt>
      <trkpt lat="50.618456" lon="6.440466">
        <ele>472.600000</ele>
        <time>2009-06-14T17:02:53Z</time>
      </trkpt>
      <trkpt lat="50.618500" lon="6.440317">
        <ele>472.100000</ele>
        <time>2009-06-14T17:02:57Z</time>
      </trkpt>
      <trkpt lat="50.618486" lon="6.440248">
        <ele>471.700000</ele>
        <time>2009-06-14T17:02:59Z</time>
      </trkpt>
      <trkpt lat="50.618485" lon="6.440233">
        <ele>472.600000</ele>
        <time>2009-06-14T17:03:00Z</time>
      </trkpt>
      <trkpt lat="50.618483" lon="6.440168">
        <ele>476.500000</ele>
        <time>2009-06-14T17:03:01Z</time>
      </trkpt>
      <trkpt lat="50.618487" lon="6.440052">
        <ele>478.900000</ele>
        <time>2009-06-14T17:03:04Z</time>
      </trkpt>
      <trkpt lat="50.618549" lon="6.440038">
        <ele>477.900000</ele>
        <time>2009-06-14T17:03:07Z</time>
      </trkpt>
      <trkpt lat="50.618569" lon="6.440032">
        <ele>478.400000</ele>
        <time>2009-06-14T17:03:08Z</time>
      </trkpt>
      <trkpt lat="50.618611" lon="6.439997">
        <ele>475.000000</ele>
        <time>2009-06-14T17:03:09Z</time>
      </trkpt>
      <trkpt lat="50.618678" lon="6.439924">
        <ele>473.600000</ele>
        <time>2009-06-14T17:03:13Z</time>
      </trkpt>
      <trkpt lat="50.618719" lon="6.439913">
        <ele>471.200000</ele>
        <time>2009-06-14T17:03:14Z</time>
      </trkpt>
      <trkpt lat="50.618793" lon="6.439896">
        <ele>472.100000</ele>
        <time>2009-06-14T17:03:17Z</time>
      </trkpt>
      <trkpt lat="50.618877" lon="6.439834">
        <ele>475.500000</ele>
        <time>2009-06-14T17:03:21Z</time>
      </trkpt>
      <trkpt lat="50.618937" lon="6.439804">
        <ele>475.500000</ele>
        <time>2009-06-14T17:03:24Z</time>
      </trkpt>
      <trkpt lat="50.619028" lon="6.439756">
        <ele>481.800000</ele>
        <time>2009-06-14T17:03:27Z</time>
      </trkpt>
      <trkpt lat="50.619080" lon="6.439689">
        <ele>489.400000</ele>
        <time>2009-06-14T17:03:30Z</time>
      </trkpt>
      <trkpt lat="50.619048" lon="6.439666">
        <ele>488.000000</ele>
        <time>2009-06-14T17:03:32Z</time>
      </trkpt>
      <trkpt lat="50.619029" lon="6.439657">
        <ele>486.100000</ele>
        <time>2009-06-14T17:03:32Z</time>
      </trkpt>
      <trkpt lat="50.618869" lon="6.439607">
        <ele>477.900000</ele>
        <time>2009-06-14T17:03:39Z</time>
      </trkpt>
      <trkpt lat="50.618864" lon="6.439589">
        <ele>477.400000</ele>
        <time>2009-06-14T17:03:39Z</time>
      </trkpt>
      <trkpt lat="50.618832" lon="6.439523">
        <ele>476.000000</ele>
        <time>2009-06-14T17:03:42Z</time>
      </trkpt>
      <trkpt lat="50.618826" lon="6.439492">
        <ele>477.000000</ele>
        <time>2009-06-14T17:03:42Z</time>
      </trkpt>
      <trkpt lat="50.618834" lon="6.439444">
        <ele>478.900000</ele>
        <time>2009-06-14T17:03:44Z</time>
      </trkpt>
      <trkpt lat="50.618832" lon="6.439441">
        <ele>478.900000</ele>
        <time>2009-06-14T17:03:44Z</time>
      </trkpt>
      <trkpt lat="50.618914" lon="6.439432">
        <ele>477.900000</ele>
        <time>2009-06-14T17:03:47Z</time>
      </trkpt>
      <trkpt lat="50.618925" lon="6.439437">
        <ele>477.900000</ele>
        <time>2009-06-14T17:03:47Z</time>
      </trkpt>
      <trkpt lat="50.618989" lon="6.439420">
        <ele>478.900000</ele>
        <time>2009-06-14T17:03:50Z</time>
      </trkpt>
      <trkpt lat="50.619127" lon="6.439404">
        <ele>483.700000</ele>
        <time>2009-06-14T17:03:56Z</time>
      </trkpt>
      <trkpt lat="50.619156" lon="6.439399">
        <ele>484.600000</ele>
        <time>2009-06-14T17:03:57Z</time>
      </trkpt>
      <trkpt lat="50.619202" lon="6.439396">
        <ele>486.100000</ele>
        <time>2009-06-14T17:03:59Z</time>
      </trkpt>
      <trkpt lat="50.619247" lon="6.439409">
        <ele>482.700000</ele>
        <time>2009-06-14T17:04:00Z</time>
      </trkpt>
      <trkpt lat="50.619251" lon="6.439408">
        <ele>483.200000</ele>
        <time>2009-06-14T17:04:01Z</time>
      </trkpt>
      <trkpt lat="50.619378" lon="6.439407">
        <ele>482.700000</ele>
        <time>2009-06-14T17:04:06Z</time>
      </trkpt>
      <trkpt lat="50.619394" lon="6.439405">
        <ele>483.200000</ele>
        <time>2009-06-14T17:04:06Z</time>
      </trkpt>
      <trkpt lat="50.619448" lon="6.439422">
        <ele>481.800000</ele>
        <time>2009-06-14T17:04:09Z</time>
      </trkpt>
      <trkpt lat="50.619494" lon="6.439436">
        <ele>479.800000</ele>
        <time>2009-06-14T17:04:10Z</time>
      </trkpt>
      <trkpt lat="50.619578" lon="6.439438">
        <ele>476.000000</ele>
        <time>2009-06-14T17:04:14Z</time>
      </trkpt>
      <trkpt lat="50.619598" lon="6.439431">
        <ele>475.500000</ele>
        <time>2009-06-14T17:04:15Z</time>
      </trkpt>
      <trkpt lat="50.619687" lon="6.439372">
        <ele>476.500000</ele>
        <time>2009-06-14T17:04:18Z</time>
      </trkpt>
      <trkpt lat="50.619751" lon="6.439301">
        <ele>476.500000</ele>
        <time>2009-06-14T17:04:22Z</time>
      </trkpt>
      <trkpt lat="50.619817" lon="6.439237">
        <ele>477.900000</ele>
        <time>2009-06-14T17:04:25Z</time>
      </trkpt>
      <trkpt lat="50.619881" lon="6.439152">
        <ele>477.400000</ele>
        <time>2009-06-14T17:04:28Z</time>
      </trkpt>
      <trkpt lat="50.619920" lon="6.439022">
        <ele>478.900000</ele>
        <time>2009-06-14T17:04:32Z</time>
      </trkpt>
      <trkpt lat="50.619960" lon="6.438948">
        <ele>477.400000</ele>
        <time>2009-06-14T17:04:34Z</time>
      </trkpt>
      <trkpt lat="50.619999" lon="6.438859">
        <ele>476.500000</ele>
        <time>2009-06-14T17:04:37Z</time>
      </trkpt>
      <trkpt lat="50.620021" lon="6.438827">
        <ele>476.000000</ele>
        <time>2009-06-14T17:04:38Z</time>
      </trkpt>
      <trkpt lat="50.620039" lon="6.438718">
        <ele>475.000000</ele>
        <time>2009-06-14T17:04:41Z</time>
      </trkpt>
      <trkpt lat="50.620035" lon="6.438696">
        <ele>475.500000</ele>
        <time>2009-06-14T17:04:42Z</time>
      </trkpt>
      <trkpt lat="50.620035" lon="6.438578">
        <ele>477.400000</ele>
        <time>2009-06-14T17:04:45Z</time>
      </trkpt>
      <trkpt lat="50.620031" lon="6.438526">
        <ele>478.400000</ele>
        <time>2009-06-14T17:04:46Z</time>
      </trkpt>
      <trkpt lat="50.620018" lon="6.438437">
        <ele>480.800000</ele>
        <time>2009-06-14T17:04:48Z</time>
      </trkpt>
      <trkpt lat="50.620012" lon="6.438402">
        <ele>480.800000</ele>
        <time>2009-06-14T17:04:49Z</time>
      </trkpt>
      <trkpt lat="50.619985" lon="6.438235">
        <ele>483.200000</ele>
        <time>2009-06-14T17:04:53Z</time>
      </trkpt>
      <trkpt lat="50.619937" lon="6.438043">
        <ele>489.000000</ele>
        <time>2009-06-14T17:04:59Z</time>
      </trkpt>
      <trkpt lat="50.619921" lon="6.437869">
        <ele>489.000000</ele>
        <time>2009-06-14T17:05:03Z</time>
      </trkpt>
      <trkpt lat="50.619891" lon="6.437712">
        <ele>489.000000</ele>
        <time>2009-06-14T17:05:07Z</time>
      </trkpt>
      <trkpt lat="50.619860" lon="6.437542">
        <ele>491.900000</ele>
        <time>2009-06-14T17:05:12Z</time>
      </trkpt>
      <trkpt lat="50.619836" lon="6.437381">
        <ele>489.400000</ele>
        <time>2009-06-14T17:05:16Z</time>
      </trkpt>
      <trkpt lat="50.619808" lon="6.437256">
        <ele>490.400000</ele>
        <time>2009-06-14T17:05:19Z</time>
      </trkpt>
      <trkpt lat="50.619785" lon="6.437091">
        <ele>491.400000</ele>
        <time>2009-06-14T17:05:24Z</time>
      </trkpt>
      <trkpt lat="50.619817" lon="6.437032">
        <ele>490.400000</ele>
        <time>2009-06-14T17:05:26Z</time>
      </trkpt>
      <trkpt lat="50.619820" lon="6.436878">
        <ele>490.900000</ele>
        <time>2009-06-14T17:05:30Z</time>
      </trkpt>
      <trkpt lat="50.619831" lon="6.436786">
        <ele>490.400000</ele>
        <time>2009-06-14T17:05:32Z</time>
      </trkpt>
      <trkpt lat="50.619816" lon="6.436709">
        <ele>488.000000</ele>
        <time>2009-06-14T17:05:34Z</time>
      </trkpt>
      <trkpt lat="50.619777" lon="6.436598">
        <ele>487.500000</ele>
        <time>2009-06-14T17:05:37Z</time>
      </trkpt>
      <trkpt lat="50.619760" lon="6.436493">
        <ele>489.400000</ele>
        <time>2009-06-14T17:05:40Z</time>
      </trkpt>
      <trkpt lat="50.619764" lon="6.436390">
        <ele>493.300000</ele>
        <time>2009-06-14T17:05:43Z</time>
      </trkpt>
      <trkpt lat="50.619741" lon="6.436254">
        <ele>489.900000</ele>
        <time>2009-06-14T17:05:46Z</time>
      </trkpt>
      <trkpt lat="50.619712" lon="6.436172">
        <ele>488.000000</ele>
        <time>2009-06-14T17:05:49Z</time>
      </trkpt>
      <trkpt lat="50.619671" lon="6.436056">
        <ele>488.000000</ele>
        <time>2009-06-14T17:05:52Z</time>
      </trkpt>
      <trkpt lat="50.619647" lon="6.435902">
        <ele>487.000000</ele>
        <time>2009-06-14T17:05:56Z</time>
      </trkpt>
      <trkpt lat="50.619691" lon="6.435798">
        <ele>478.400000</ele>
        <time>2009-06-14T17:05:59Z</time>
      </trkpt>
      <trkpt lat="50.619726" lon="6.435753">
        <ele>478.000000</ele>
        <time>2009-06-14T17:06:01Z</time>
      </trkpt>
      <trkpt lat="50.619751" lon="6.435681">
        <ele>477.900000</ele>
        <time>2009-06-14T17:06:03Z</time>
      </trkpt>
      <trkpt lat="50.619785" lon="6.435581">
        <ele>477.900000</ele>
        <time>2009-06-14T17:06:06Z</time>
      </trkpt>
      <trkpt lat="50.619829" lon="6.435508">
        <ele>477.800000</ele>
        <time>2009-06-14T17:06:08Z</time>
      </trkpt>
      <trkpt lat="50.619872" lon="6.435449">
        <ele>477.600000</ele>
        <time>2009-06-14T17:06:11Z</time>
      </trkpt>
      <trkpt lat="50.619906" lon="6.435362">
        <ele>477.700000</ele>
        <time>2009-06-14T17:06:13Z</time>
      </trkpt>
      <trkpt lat="50.619933" lon="6.435332">
        <ele>477.600000</ele>
        <time>2009-06-14T17:06:15Z</time>
      </trkpt>
      <trkpt lat="50.619948" lon="6.435218">
        <ele>478.100000</ele>
        <time>2009-06-14T17:06:18Z</time>
      </trkpt>
      <trkpt lat="50.620010" lon="6.435173">
        <ele>477.700000</ele>
        <time>2009-06-14T17:06:20Z</time>
      </trkpt>
      <trkpt lat="50.620018" lon="6.435116">
        <ele>478.000000</ele>
        <time>2009-06-14T17:06:22Z</time>
      </trkpt>
      <trkpt lat="50.620070" lon="6.435056">
        <ele>477.900000</ele>
        <time>2009-06-14T17:06:24Z</time>
      </trkpt>
      <trkpt lat="50.620096" lon="6.435013">
        <ele>477.900000</ele>
        <time>2009-06-14T17:06:26Z</time>
      </trkpt>
      <trkpt lat="50.620178" lon="6.435051">
        <ele>476.900000</ele>
        <time>2009-06-14T17:06:29Z</time>
      </trkpt>
      <trkpt lat="50.620314" lon="6.435114">
        <ele>475.300000</ele>
        <time>2009-06-14T17:06:35Z</time>
      </trkpt>
      <trkpt lat="50.620414" lon="6.435137">
        <ele>474.300000</ele>
        <time>2009-06-14T17:06:39Z</time>
      </trkpt>
      <trkpt lat="50.620432" lon="6.435164">
        <ele>473.900000</ele>
        <time>2009-06-14T17:06:40Z</time>
      </trkpt>
      <trkpt lat="50.620513" lon="6.435145">
        <ele>473.300000</ele>
        <time>2009-06-14T17:06:43Z</time>
      </trkpt>
      <trkpt lat="50.620548" lon="6.435087">
        <ele>473.400000</ele>
        <time>2009-06-14T17:06:45Z</time>
      </trkpt>
      <trkpt lat="50.620637" lon="6.435082">
        <ele>472.700000</ele>
        <time>2009-06-14T17:06:49Z</time>
      </trkpt>
      <trkpt lat="50.620681" lon="6.435037">
        <ele>472.600000</ele>
        <time>2009-06-14T17:06:51Z</time>
      </trkpt>
      <trkpt lat="50.620744" lon="6.435034">
        <ele>472.000000</ele>
        <time>2009-06-14T17:06:54Z</time>
      </trkpt>
      <trkpt lat="50.620797" lon="6.435003">
        <ele>471.700000</ele>
        <time>2009-06-14T17:06:56Z</time>
      </trkpt>
      <trkpt lat="50.620923" lon="6.434968">
        <ele>470.600000</ele>
        <time>2009-06-14T17:07:01Z</time>
      </trkpt>
      <trkpt lat="50.620986" lon="6.434978">
        <ele>469.800000</ele>
        <time>2009-06-14T17:07:03Z</time>
      </trkpt>
      <trkpt lat="50.621075" lon="6.434945">
        <ele>468.900000</ele>
        <time>2009-06-14T17:07:07Z</time>
      </trkpt>
      <trkpt lat="50.621173" lon="6.434897">
        <ele>467.800000</ele>
        <time>2009-06-14T17:07:11Z</time>
      </trkpt>
      <trkpt lat="50.621252" lon="6.434837">
        <ele>466.900000</ele>
        <time>2009-06-14T17:07:15Z</time>
      </trkpt>
      <trkpt lat="50.621359" lon="6.434802">
        <ele>465.300000</ele>
        <time>2009-06-14T17:07:19Z</time>
      </trkpt>
      <trkpt lat="50.621439" lon="6.434742">
        <ele>464.000000</ele>
        <time>2009-06-14T17:07:23Z</time>
      </trkpt>
      <trkpt lat="50.621500" lon="6.434639">
        <ele>463.100000</ele>
        <time>2009-06-14T17:07:26Z</time>
      </trkpt>
      <trkpt lat="50.621586" lon="6.434493">
        <ele>461.700000</ele>
        <time>2009-06-14T17:07:31Z</time>
      </trkpt>
      <trkpt lat="50.621675" lon="6.434418">
        <ele>460.100000</ele>
        <time>2009-06-14T17:07:35Z</time>
      </trkpt>
      <trkpt lat="50.621736" lon="6.434330">
        <ele>459.100000</ele>
        <time>2009-06-14T17:07:39Z</time>
      </trkpt>
      <trkpt lat="50.621771" lon="6.434285">
        <ele>458.600000</ele>
        <time>2009-06-14T17:07:40Z</time>
      </trkpt>
      <trkpt lat="50.621823" lon="6.434198">
        <ele>457.900000</ele>
        <time>2009-06-14T17:07:44Z</time>
      </trkpt>
      <trkpt lat="50.621911" lon="6.434136">
        <ele>456.700000</ele>
        <time>2009-06-14T17:07:47Z</time>
      </trkpt>
      <trkpt lat="50.621991" lon="6.434090">
        <ele>455.600000</ele>
        <time>2009-06-14T17:07:51Z</time>
      </trkpt>
      <trkpt lat="50.622062" lon="6.434043">
        <ele>455.100000</ele>
        <time>2009-06-14T17:07:54Z</time>
      </trkpt>
      <trkpt lat="50.622143" lon="6.434039">
        <ele>454.100000</ele>
        <time>2009-06-14T17:07:57Z</time>
      </trkpt>
      <trkpt lat="50.622214" lon="6.434007">
        <ele>453.500000</ele>
        <time>2009-06-14T17:08:00Z</time>
      </trkpt>
      <trkpt lat="50.622286" lon="6.433989">
        <ele>453.000000</ele>
        <time>2009-06-14T17:08:03Z</time>
      </trkpt>
      <trkpt lat="50.622349" lon="6.434014">
        <ele>452.100000</ele>
        <time>2009-06-14T17:08:06Z</time>
      </trkpt>
      <trkpt lat="50.622411" lon="6.433968">
        <ele>452.000000</ele>
        <time>2009-06-14T17:08:08Z</time>
      </trkpt>
      <trkpt lat="50.622483" lon="6.433964">
        <ele>451.100000</ele>
        <time>2009-06-14T17:08:11Z</time>
      </trkpt>
      <trkpt lat="50.622554" lon="6.433932">
        <ele>450.400000</ele>
        <time>2009-06-14T17:08:14Z</time>
      </trkpt>
      <trkpt lat="50.622608" lon="6.433929">
        <ele>449.600000</ele>
        <time>2009-06-14T17:08:16Z</time>
      </trkpt>
      <trkpt lat="50.622697" lon="6.433882">
        <ele>448.400000</ele>
        <time>2009-06-14T17:08:20Z</time>
      </trkpt>
      <trkpt lat="50.622758" lon="6.433794">
        <ele>447.800000</ele>
        <time>2009-06-14T17:08:23Z</time>
      </trkpt>
      <trkpt lat="50.622837" lon="6.433719">
        <ele>446.600000</ele>
        <time>2009-06-14T17:08:27Z</time>
      </trkpt>
      <trkpt lat="50.622907" lon="6.433616">
        <ele>445.600000</ele>
        <time>2009-06-14T17:08:31Z</time>
      </trkpt>
      <trkpt lat="50.622986" lon="6.433527">
        <ele>444.300000</ele>
        <time>2009-06-14T17:08:35Z</time>
      </trkpt>
      <trkpt lat="50.623047" lon="6.433439">
        <ele>443.500000</ele>
        <time>2009-06-14T17:08:38Z</time>
      </trkpt>
      <trkpt lat="50.623080" lon="6.433251">
        <ele>463.000000</ele>
        <time>2009-06-14T17:08:43Z</time>
      </trkpt>
      <trkpt lat="50.623098" lon="6.433250">
        <ele>462.500000</ele>
        <time>2009-06-14T17:08:44Z</time>
      </trkpt>
      <trkpt lat="50.623093" lon="6.433202">
        <ele>457.700000</ele>
        <time>2009-06-14T17:08:45Z</time>
      </trkpt>
      <trkpt lat="50.623111" lon="6.433126">
        <ele>457.700000</ele>
        <time>2009-06-14T17:08:47Z</time>
      </trkpt>
      <trkpt lat="50.623163" lon="6.433004">
        <ele>454.400000</ele>
        <time>2009-06-14T17:08:51Z</time>
      </trkpt>
      <trkpt lat="50.623175" lon="6.432980">
        <ele>454.800000</ele>
        <time>2009-06-14T17:08:52Z</time>
      </trkpt>
      <trkpt lat="50.623249" lon="6.432854">
        <ele>454.800000</ele>
        <time>2009-06-14T17:08:56Z</time>
      </trkpt>
      <trkpt lat="50.623270" lon="6.432747">
        <ele>457.700000</ele>
        <time>2009-06-14T17:08:59Z</time>
      </trkpt>
      <trkpt lat="50.623304" lon="6.432591">
        <ele>461.600000</ele>
        <time>2009-06-14T17:09:03Z</time>
      </trkpt>
      <trkpt lat="50.623356" lon="6.432530">
        <ele>460.100000</ele>
        <time>2009-06-14T17:09:06Z</time>
      </trkpt>
      <trkpt lat="50.623416" lon="6.432453">
        <ele>458.700000</ele>
        <time>2009-06-14T17:09:09Z</time>
      </trkpt>
      <trkpt lat="50.623485" lon="6.432411">
        <ele>456.300000</ele>
        <time>2009-06-14T17:09:12Z</time>
      </trkpt>
      <trkpt lat="50.623554" lon="6.432331">
        <ele>454.800000</ele>
        <time>2009-06-14T17:09:15Z</time>
      </trkpt>
      <trkpt lat="50.623626" lon="6.432250">
        <ele>449.600000</ele>
        <time>2009-06-14T17:09:19Z</time>
      </trkpt>
      <trkpt lat="50.623655" lon="6.432203">
        <ele>448.600000</ele>
        <time>2009-06-14T17:09:20Z</time>
      </trkpt>
      <trkpt lat="50.623775" lon="6.432146">
        <ele>449.600000</ele>
        <time>2009-06-14T17:09:25Z</time>
      </trkpt>
      <trkpt lat="50.623844" lon="6.432107">
        <ele>446.700000</ele>
        <time>2009-06-14T17:09:28Z</time>
      </trkpt>
      <trkpt lat="50.623863" lon="6.432084">
        <ele>446.200000</ele>
        <time>2009-06-14T17:09:29Z</time>
      </trkpt>
      <trkpt lat="50.623932" lon="6.432061">
        <ele>445.700000</ele>
        <time>2009-06-14T17:09:32Z</time>
      </trkpt>
      <trkpt lat="50.624000" lon="6.432061">
        <ele>442.300000</ele>
        <time>2009-06-14T17:09:35Z</time>
      </trkpt>
      <trkpt lat="50.624013" lon="6.432061">
        <ele>441.900000</ele>
        <time>2009-06-14T17:09:35Z</time>
      </trkpt>
      <trkpt lat="50.624116" lon="6.431998">
        <ele>440.400000</ele>
        <time>2009-06-14T17:09:40Z</time>
      </trkpt>
      <trkpt lat="50.624176" lon="6.431959">
        <ele>440.400000</ele>
        <time>2009-06-14T17:09:42Z</time>
      </trkpt>
      <trkpt lat="50.624205" lon="6.431960">
        <ele>439.500000</ele>
        <time>2009-06-14T17:09:43Z</time>
      </trkpt>
      <trkpt lat="50.624278" lon="6.431926">
        <ele>436.600000</ele>
        <time>2009-06-14T17:09:46Z</time>
      </trkpt>
      <trkpt lat="50.624395" lon="6.431851">
        <ele>440.900000</ele>
        <time>2009-06-14T17:09:52Z</time>
      </trkpt>
      <trkpt lat="50.624480" lon="6.431723">
        <ele>441.900000</ele>
        <time>2009-06-14T17:09:56Z</time>
      </trkpt>
      <trkpt lat="50.624510" lon="6.431649">
        <ele>443.800000</ele>
        <time>2009-06-14T17:09:58Z</time>
      </trkpt>
      <trkpt lat="50.624562" lon="6.431471">
        <ele>450.000000</ele>
        <time>2009-06-14T17:10:03Z</time>
      </trkpt>
      <trkpt lat="50.624571" lon="6.431379">
        <ele>452.400000</ele>
        <time>2009-06-14T17:10:06Z</time>
      </trkpt>
      <trkpt lat="50.624556" lon="6.431200">
        <ele>450.500000</ele>
        <time>2009-06-14T17:10:10Z</time>
      </trkpt>
      <trkpt lat="50.624559" lon="6.431049">
        <ele>451.500000</ele>
        <time>2009-06-14T17:10:14Z</time>
      </trkpt>
      <trkpt lat="50.624563" lon="6.431038">
        <ele>448.600000</ele>
        <time>2009-06-14T17:10:15Z</time>
      </trkpt>
      <trkpt lat="50.624554" lon="6.430887">
        <ele>439.500000</ele>
        <time>2009-06-14T17:10:18Z</time>
      </trkpt>
      <trkpt lat="50.624553" lon="6.430865">
        <ele>439.500000</ele>
        <time>2009-06-14T17:10:19Z</time>
      </trkpt>
      <trkpt lat="50.624551" lon="6.430765">
        <ele>440.900000</ele>
        <time>2009-06-14T17:10:22Z</time>
      </trkpt>
      <trkpt lat="50.624534" lon="6.430604">
        <ele>439.900000</ele>
        <time>2009-06-14T17:10:26Z</time>
      </trkpt>
      <trkpt lat="50.624508" lon="6.430517">
        <ele>439.000000</ele>
        <time>2009-06-14T17:10:28Z</time>
      </trkpt>
      <trkpt lat="50.624467" lon="6.430384">
        <ele>439.900000</ele>
        <time>2009-06-14T17:10:32Z</time>
      </trkpt>
      <trkpt lat="50.624432" lon="6.430283">
        <ele>436.600000</ele>
        <time>2009-06-14T17:10:35Z</time>
      </trkpt>
      <trkpt lat="50.624404" lon="6.430252">
        <ele>434.700000</ele>
        <time>2009-06-14T17:10:36Z</time>
      </trkpt>
      <trkpt lat="50.624339" lon="6.430170">
        <ele>431.800000</ele>
        <time>2009-06-14T17:10:39Z</time>
      </trkpt>
      <trkpt lat="50.624334" lon="6.430157">
        <ele>431.800000</ele>
        <time>2009-06-14T17:10:40Z</time>
      </trkpt>
      <trkpt lat="50.624249" lon="6.430043">
        <ele>429.400000</ele>
        <time>2009-06-14T17:10:44Z</time>
      </trkpt>
      <trkpt lat="50.624173" lon="6.429949">
        <ele>428.400000</ele>
        <time>2009-06-14T17:10:48Z</time>
      </trkpt>
      <trkpt lat="50.624112" lon="6.429862">
        <ele>427.400000</ele>
        <time>2009-06-14T17:10:52Z</time>
      </trkpt>
      <trkpt lat="50.624085" lon="6.429805">
        <ele>428.900000</ele>
        <time>2009-06-14T17:10:53Z</time>
      </trkpt>
      <trkpt lat="50.624036" lon="6.429728">
        <ele>428.900000</ele>
        <time>2009-06-14T17:10:56Z</time>
      </trkpt>
      <trkpt lat="50.623979" lon="6.429668">
        <ele>429.400000</ele>
        <time>2009-06-14T17:10:59Z</time>
      </trkpt>
      <trkpt lat="50.623961" lon="6.429642">
        <ele>429.800000</ele>
        <time>2009-06-14T17:11:00Z</time>
      </trkpt>
      <trkpt lat="50.623893" lon="6.429577">
        <ele>433.200000</ele>
        <time>2009-06-14T17:11:03Z</time>
      </trkpt>
      <trkpt lat="50.623859" lon="6.429524">
        <ele>435.100000</ele>
        <time>2009-06-14T17:11:05Z</time>
      </trkpt>
      <trkpt lat="50.623765" lon="6.429387">
        <ele>438.500000</ele>
        <time>2009-06-14T17:11:10Z</time>
      </trkpt>
      <trkpt lat="50.623694" lon="6.429337">
        <ele>439.000000</ele>
        <time>2009-06-14T17:11:13Z</time>
      </trkpt>
      <trkpt lat="50.623635" lon="6.429256">
        <ele>439.500000</ele>
        <time>2009-06-14T17:11:16Z</time>
      </trkpt>
      <trkpt lat="50.623594" lon="6.429211">
        <ele>439.900000</ele>
        <time>2009-06-14T17:11:18Z</time>
      </trkpt>
      <trkpt lat="50.623572" lon="6.429187">
        <ele>441.400000</ele>
        <time>2009-06-14T17:11:19Z</time>
      </trkpt>
      <trkpt lat="50.623487" lon="6.429097">
        <ele>445.700000</ele>
        <time>2009-06-14T17:11:23Z</time>
      </trkpt>
      <trkpt lat="50.623437" lon="6.429058">
        <ele>446.700000</ele>
        <time>2009-06-14T17:11:26Z</time>
      </trkpt>
      <trkpt lat="50.623401" lon="6.429077">
        <ele>444.700000</ele>
        <time>2009-06-14T17:11:27Z</time>
      </trkpt>
      <trkpt lat="50.623354" lon="6.429104">
        <ele>443.300000</ele>
        <time>2009-06-14T17:11:29Z</time>
      </trkpt>
      <trkpt lat="50.623262" lon="6.429080">
        <ele>443.800000</ele>
        <time>2009-06-14T17:11:33Z</time>
      </trkpt>
      <trkpt lat="50.623225" lon="6.429079">
        <ele>444.300000</ele>
        <time>2009-06-14T17:11:34Z</time>
      </trkpt>
      <trkpt lat="50.623201" lon="6.429060">
        <ele>445.200000</ele>
        <time>2009-06-14T17:11:35Z</time>
      </trkpt>
      <trkpt lat="50.623123" lon="6.429019">
        <ele>446.700000</ele>
        <time>2009-06-14T17:11:39Z</time>
      </trkpt>
      <trkpt lat="50.623024" lon="6.428983">
        <ele>443.800000</ele>
        <time>2009-06-14T17:11:43Z</time>
      </trkpt>
      <trkpt lat="50.622969" lon="6.428929">
        <ele>441.900000</ele>
        <time>2009-06-14T17:11:45Z</time>
      </trkpt>
      <trkpt lat="50.622948" lon="6.428826">
        <ele>443.800000</ele>
        <time>2009-06-14T17:11:48Z</time>
      </trkpt>
      <trkpt lat="50.622893" lon="6.428738">
        <ele>445.700000</ele>
        <time>2009-06-14T17:11:51Z</time>
      </trkpt>
      <trkpt lat="50.622854" lon="6.428656">
        <ele>450.500000</ele>
        <time>2009-06-14T17:11:54Z</time>
      </trkpt>
      <trkpt lat="50.622797" lon="6.428632">
        <ele>449.100000</ele>
        <time>2009-06-14T17:11:56Z</time>
      </trkpt>
      <trkpt lat="50.622759" lon="6.428603">
        <ele>450.500000</ele>
        <time>2009-06-14T17:11:58Z</time>
      </trkpt>
      <trkpt lat="50.622711" lon="6.428555">
        <ele>451.500000</ele>
        <time>2009-06-14T17:12:00Z</time>
      </trkpt>
      <trkpt lat="50.622643" lon="6.428494">
        <ele>454.400000</ele>
        <time>2009-06-14T17:12:03Z</time>
      </trkpt>
      <trkpt lat="50.622549" lon="6.428430">
        <ele>458.700000</ele>
        <time>2009-06-14T17:12:07Z</time>
      </trkpt>
      <trkpt lat="50.622526" lon="6.428433">
        <ele>459.600000</ele>
        <time>2009-06-14T17:12:08Z</time>
      </trkpt>
      <trkpt lat="50.622473" lon="6.428400">
        <ele>462.100000</ele>
        <time>2009-06-14T17:12:11Z</time>
      </trkpt>
      <trkpt lat="50.622379" lon="6.428320">
        <ele>466.900000</ele>
        <time>2009-06-14T17:12:15Z</time>
      </trkpt>
      <trkpt lat="50.622365" lon="6.428307">
        <ele>466.900000</ele>
        <time>2009-06-14T17:12:16Z</time>
      </trkpt>
      <trkpt lat="50.622312" lon="6.428219">
        <ele>468.800000</ele>
        <time>2009-06-14T17:12:19Z</time>
      </trkpt>
      <trkpt lat="50.622226" lon="6.428221">
        <ele>464.900000</ele>
        <time>2009-06-14T17:12:22Z</time>
      </trkpt>
      <trkpt lat="50.622217" lon="6.428220">
        <ele>464.900000</ele>
        <time>2009-06-14T17:12:22Z</time>
      </trkpt>
      <trkpt lat="50.622145" lon="6.428191">
        <ele>459.200000</ele>
        <time>2009-06-14T17:12:25Z</time>
      </trkpt>
      <trkpt lat="50.622091" lon="6.428170">
        <ele>455.300000</ele>
        <time>2009-06-14T17:12:28Z</time>
      </trkpt>
      <trkpt lat="50.622013" lon="6.428054">
        <ele>453.900000</ele>
        <time>2009-06-14T17:12:32Z</time>
      </trkpt>
      <trkpt lat="50.622001" lon="6.428041">
        <ele>453.900000</ele>
        <time>2009-06-14T17:12:33Z</time>
      </trkpt>
      <trkpt lat="50.621934" lon="6.428020">
        <ele>452.000000</ele>
        <time>2009-06-14T17:12:35Z</time>
      </trkpt>
      <trkpt lat="50.621818" lon="6.427954">
        <ele>452.000000</ele>
        <time>2009-06-14T17:12:40Z</time>
      </trkpt>
      <trkpt lat="50.621717" lon="6.427856">
        <ele>455.300000</ele>
        <time>2009-06-14T17:12:45Z</time>
      </trkpt>
      <trkpt lat="50.621654" lon="6.427819">
        <ele>456.800000</ele>
        <time>2009-06-14T17:12:48Z</time>
      </trkpt>
      <trkpt lat="50.621569" lon="6.427766">
        <ele>460.600000</ele>
        <time>2009-06-14T17:12:51Z</time>
      </trkpt>
      <trkpt lat="50.621555" lon="6.427758">
        <ele>461.600000</ele>
        <time>2009-06-14T17:12:52Z</time>
      </trkpt>
      <trkpt lat="50.621538" lon="6.427737">
        <ele>462.500000</ele>
        <time>2009-06-14T17:12:53Z</time>
      </trkpt>
      <trkpt lat="50.621508" lon="6.427700">
        <ele>463.000000</ele>
        <time>2009-06-14T17:12:54Z</time>
      </trkpt>
      <trkpt lat="50.621477" lon="6.427571">
        <ele>465.400000</ele>
        <time>2009-06-14T17:12:58Z</time>
      </trkpt>
      <trkpt lat="50.621411" lon="6.427509">
        <ele>467.300000</ele>
        <time>2009-06-14T17:13:01Z</time>
      </trkpt>
      <trkpt lat="50.621369" lon="6.427371">
        <ele>468.300000</ele>
        <time>2009-06-14T17:13:05Z</time>
      </trkpt>
      <trkpt lat="50.621345" lon="6.427371">
        <ele>465.900000</ele>
        <time>2009-06-14T17:13:06Z</time>
      </trkpt>
      <trkpt lat="50.621330" lon="6.427363">
        <ele>463.500000</ele>
        <time>2009-06-14T17:13:06Z</time>
      </trkpt>
      <trkpt lat="50.621234" lon="6.427312">
        <ele>459.200000</ele>
        <time>2009-06-14T17:13:10Z</time>
      </trkpt>
      <trkpt lat="50.621210" lon="6.427289">
        <ele>457.200000</ele>
        <time>2009-06-14T17:13:12Z</time>
      </trkpt>
      <trkpt lat="50.621158" lon="6.427168">
        <ele>458.200000</ele>
        <time>2009-06-14T17:13:15Z</time>
      </trkpt>
      <trkpt lat="50.621170" lon="6.427007">
        <ele>464.500000</ele>
        <time>2009-06-14T17:13:19Z</time>
      </trkpt>
      <trkpt lat="50.621297" lon="6.426816">
        <ele>475.000000</ele>
        <time>2009-06-14T17:13:26Z</time>
      </trkpt>
      <trkpt lat="50.621369" lon="6.426830">
        <ele>474.500000</ele>
        <time>2009-06-14T17:13:29Z</time>
      </trkpt>
      <trkpt lat="50.621518" lon="6.426861">
        <ele>476.500000</ele>
        <time>2009-06-14T17:13:35Z</time>
      </trkpt>
      <trkpt lat="50.621644" lon="6.426901">
        <ele>479.400000</ele>
        <time>2009-06-14T17:13:40Z</time>
      </trkpt>
      <trkpt lat="50.621670" lon="6.426911">
        <ele>476.500000</ele>
        <time>2009-06-14T17:13:42Z</time>
      </trkpt>
      <trkpt lat="50.621752" lon="6.426938">
        <ele>476.000000</ele>
        <time>2009-06-14T17:13:45Z</time>
      </trkpt>
      <trkpt lat="50.621831" lon="6.426969">
        <ele>471.200000</ele>
        <time>2009-06-14T17:13:48Z</time>
      </trkpt>
      <trkpt lat="50.621844" lon="6.426967">
        <ele>467.300000</ele>
        <time>2009-06-14T17:13:49Z</time>
      </trkpt>
      <trkpt lat="50.621901" lon="6.426998">
        <ele>462.100000</ele>
        <time>2009-06-14T17:13:51Z</time>
      </trkpt>
      <trkpt lat="50.621984" lon="6.426989">
        <ele>459.600000</ele>
        <time>2009-06-14T17:13:54Z</time>
      </trkpt>
      <trkpt lat="50.622001" lon="6.426977">
        <ele>459.600000</ele>
        <time>2009-06-14T17:13:55Z</time>
      </trkpt>
      <trkpt lat="50.622040" lon="6.426963">
        <ele>461.100000</ele>
        <time>2009-06-14T17:13:57Z</time>
      </trkpt>
      <trkpt lat="50.622118" lon="6.426949">
        <ele>457.700000</ele>
        <time>2009-06-14T17:14:00Z</time>
      </trkpt>
      <trkpt lat="50.622154" lon="6.426941">
        <ele>456.300000</ele>
        <time>2009-06-14T17:14:01Z</time>
      </trkpt>
      <trkpt lat="50.622214" lon="6.426928">
        <ele>453.400000</ele>
        <time>2009-06-14T17:14:04Z</time>
      </trkpt>
      <trkpt lat="50.622291" lon="6.426875">
        <ele>450.000000</ele>
        <time>2009-06-14T17:14:07Z</time>
      </trkpt>
      <trkpt lat="50.622368" lon="6.426835">
        <ele>447.200000</ele>
        <time>2009-06-14T17:14:10Z</time>
      </trkpt>
      <trkpt lat="50.622384" lon="6.426830">
        <ele>446.700000</ele>
        <time>2009-06-14T17:14:11Z</time>
      </trkpt>
      <trkpt lat="50.622438" lon="6.426818">
        <ele>446.200000</ele>
        <time>2009-06-14T17:14:13Z</time>
      </trkpt>
      <trkpt lat="50.622485" lon="6.426793">
        <ele>444.300000</ele>
        <time>2009-06-14T17:14:15Z</time>
      </trkpt>
      <trkpt lat="50.622551" lon="6.426796">
        <ele>440.400000</ele>
        <time>2009-06-14T17:14:18Z</time>
      </trkpt>
      <trkpt lat="50.622573" lon="6.426773">
        <ele>440.400000</ele>
        <time>2009-06-14T17:14:19Z</time>
      </trkpt>
      <trkpt lat="50.622664" lon="6.426709">
        <ele>440.400000</ele>
        <time>2009-06-14T17:14:23Z</time>
      </trkpt>
      <trkpt lat="50.622709" lon="6.426680">
        <ele>439.900000</ele>
        <time>2009-06-14T17:14:25Z</time>
      </trkpt>
      <trkpt lat="50.622763" lon="6.426636">
        <ele>439.900000</ele>
        <time>2009-06-14T17:14:27Z</time>
      </trkpt>
      <trkpt lat="50.622836" lon="6.426532">
        <ele>439.900000</ele>
        <time>2009-06-14T17:14:31Z</time>
      </trkpt>
      <trkpt lat="50.622888" lon="6.426468">
        <ele>441.400000</ele>
        <time>2009-06-14T17:14:34Z</time>
      </trkpt>
      <trkpt lat="50.623004" lon="6.426355">
        <ele>443.300000</ele>
        <time>2009-06-14T17:14:39Z</time>
      </trkpt>
      <trkpt lat="50.623049" lon="6.426278">
        <ele>445.200000</ele>
        <time>2009-06-14T17:14:42Z</time>
      </trkpt>
      <trkpt lat="50.623099" lon="6.426264">
        <ele>443.800000</ele>
        <time>2009-06-14T17:14:44Z</time>
      </trkpt>
      <trkpt lat="50.623133" lon="6.426321">
        <ele>441.900000</ele>
        <time>2009-06-14T17:14:46Z</time>
      </trkpt>
      <trkpt lat="50.623149" lon="6.426339">
        <ele>443.300000</ele>
        <time>2009-06-14T17:14:47Z</time>
      </trkpt>
      <trkpt lat="50.623165" lon="6.426293">
        <ele>455.800000</ele>
        <time>2009-06-14T17:14:48Z</time>
      </trkpt>
      <trkpt lat="50.623167" lon="6.426269">
        <ele>455.800000</ele>
        <time>2009-06-14T17:14:49Z</time>
      </trkpt>
      <trkpt lat="50.623192" lon="6.426111">
        <ele>456.800000</ele>
        <time>2009-06-14T17:14:53Z</time>
      </trkpt>
      <trkpt lat="50.623211" lon="6.425976">
        <ele>457.200000</ele>
        <time>2009-06-14T17:14:56Z</time>
      </trkpt>
      <trkpt lat="50.623223" lon="6.425868">
        <ele>460.100000</ele>
        <time>2009-06-14T17:14:59Z</time>
      </trkpt>
      <trkpt lat="50.623241" lon="6.425759">
        <ele>460.600000</ele>
        <time>2009-06-14T17:15:02Z</time>
      </trkpt>
      <trkpt lat="50.623245" lon="6.425734">
        <ele>459.600000</ele>
        <time>2009-06-14T17:15:03Z</time>
      </trkpt>
      <trkpt lat="50.623260" lon="6.425567">
        <ele>458.200000</ele>
        <time>2009-06-14T17:15:07Z</time>
      </trkpt>
      <trkpt lat="50.623281" lon="6.425445">
        <ele>456.300000</ele>
        <time>2009-06-14T17:15:10Z</time>
      </trkpt>
      <trkpt lat="50.623290" lon="6.425409">
        <ele>455.300000</ele>
        <time>2009-06-14T17:15:11Z</time>
      </trkpt>
      <trkpt lat="50.623291" lon="6.425294">
        <ele>452.400000</ele>
        <time>2009-06-14T17:15:14Z</time>
      </trkpt>
      <trkpt lat="50.623302" lon="6.425146">
        <ele>452.400000</ele>
        <time>2009-06-14T17:15:18Z</time>
      </trkpt>
      <trkpt lat="50.623288" lon="6.425077">
        <ele>452.400000</ele>
        <time>2009-06-14T17:15:20Z</time>
      </trkpt>
      <trkpt lat="50.623294" lon="6.425005">
        <ele>451.500000</ele>
        <time>2009-06-14T17:15:22Z</time>
      </trkpt>
      <trkpt lat="50.623342" lon="6.424800">
        <ele>449.100000</ele>
        <time>2009-06-14T17:15:27Z</time>
      </trkpt>
      <trkpt lat="50.623361" lon="6.424747">
        <ele>447.200000</ele>
        <time>2009-06-14T17:15:29Z</time>
      </trkpt>
      <trkpt lat="50.623378" lon="6.424669">
        <ele>448.100000</ele>
        <time>2009-06-14T17:15:31Z</time>
      </trkpt>
      <trkpt lat="50.623399" lon="6.424487">
        <ele>450.000000</ele>
        <time>2009-06-14T17:15:35Z</time>
      </trkpt>
      <trkpt lat="50.623406" lon="6.424406">
        <ele>451.500000</ele>
        <time>2009-06-14T17:15:38Z</time>
      </trkpt>
      <trkpt lat="50.623437" lon="6.424247">
        <ele>452.900000</ele>
        <time>2009-06-14T17:15:42Z</time>
      </trkpt>
      <trkpt lat="50.623463" lon="6.424087">
        <ele>453.400000</ele>
        <time>2009-06-14T17:15:46Z</time>
      </trkpt>
      <trkpt lat="50.623440" lon="6.423961">
        <ele>450.300000</ele>
        <time>2009-06-14T17:15:49Z</time>
      </trkpt>
      <trkpt lat="50.623418" lon="6.423885">
        <ele>455.800000</ele>
        <time>2009-06-14T17:15:51Z</time>
      </trkpt>
      <trkpt lat="50.623367" lon="6.423883">
        <ele>455.800000</ele>
        <time>2009-06-14T17:15:53Z</time>
      </trkpt>
      <trkpt lat="50.623329" lon="6.423803">
        <ele>455.800000</ele>
        <time>2009-06-14T17:15:56Z</time>
      </trkpt>
      <trkpt lat="50.623313" lon="6.423778">
        <ele>455.800000</ele>
        <time>2009-06-14T17:15:57Z</time>
      </trkpt>
      <trkpt lat="50.623264" lon="6.423728">
        <ele>455.300000</ele>
        <time>2009-06-14T17:15:59Z</time>
      </trkpt>
      <trkpt lat="50.623193" lon="6.423677">
        <ele>454.800000</ele>
        <time>2009-06-14T17:16:02Z</time>
      </trkpt>
      <trkpt lat="50.623098" lon="6.423586">
        <ele>453.900000</ele>
        <time>2009-06-14T17:16:07Z</time>
      </trkpt>
      <trkpt lat="50.623009" lon="6.423486">
        <ele>454.400000</ele>
        <time>2009-06-14T17:16:11Z</time>
      </trkpt>
      <trkpt lat="50.622985" lon="6.423462">
        <ele>454.800000</ele>
        <time>2009-06-14T17:16:12Z</time>
      </trkpt>
      <trkpt lat="50.622913" lon="6.423389">
        <ele>455.300000</ele>
        <time>2009-06-14T17:16:16Z</time>
      </trkpt>
      <trkpt lat="50.622819" lon="6.423319">
        <ele>456.800000</ele>
        <time>2009-06-14T17:16:20Z</time>
      </trkpt>
      <trkpt lat="50.622761" lon="6.423280">
        <ele>457.200000</ele>
        <time>2009-06-14T17:16:22Z</time>
      </trkpt>
      <trkpt lat="50.622694" lon="6.423244">
        <ele>456.300000</ele>
        <time>2009-06-14T17:16:25Z</time>
      </trkpt>
      <trkpt lat="50.622618" lon="6.423205">
        <ele>456.800000</ele>
        <time>2009-06-14T17:16:28Z</time>
      </trkpt>
      <trkpt lat="50.622559" lon="6.423169">
        <ele>456.300000</ele>
        <time>2009-06-14T17:16:31Z</time>
      </trkpt>
      <trkpt lat="50.622474" lon="6.423182">
        <ele>458.200000</ele>
        <time>2009-06-14T17:16:34Z</time>
      </trkpt>
      <trkpt lat="50.622456" lon="6.423179">
        <ele>458.700000</ele>
        <time>2009-06-14T17:16:35Z</time>
      </trkpt>
      <trkpt lat="50.622365" lon="6.423141">
        <ele>460.600000</ele>
        <time>2009-06-14T17:16:39Z</time>
      </trkpt>
      <trkpt lat="50.622307" lon="6.423060">
        <ele>461.100000</ele>
        <time>2009-06-14T17:16:42Z</time>
      </trkpt>
      <trkpt lat="50.622265" lon="6.422971">
        <ele>462.100000</ele>
        <time>2009-06-14T17:16:45Z</time>
      </trkpt>
      <trkpt lat="50.622225" lon="6.422914">
        <ele>463.000000</ele>
        <time>2009-06-14T17:16:47Z</time>
      </trkpt>
      <trkpt lat="50.622169" lon="6.422786">
        <ele>464.900000</ele>
        <time>2009-06-14T17:16:51Z</time>
      </trkpt>
      <trkpt lat="50.622103" lon="6.422710">
        <ele>466.400000</ele>
        <time>2009-06-14T17:16:54Z</time>
      </trkpt>
      <trkpt lat="50.622117" lon="6.422687">
        <ele>470.700000</ele>
        <time>2009-06-14T17:16:55Z</time>
      </trkpt>
      <trkpt lat="50.621997" lon="6.422608">
        <ele>469.700000</ele>
        <time>2009-06-14T17:17:00Z</time>
      </trkpt>
      <trkpt lat="50.621911" lon="6.422451">
        <ele>468.300000</ele>
        <time>2009-06-14T17:17:05Z</time>
      </trkpt>
      <trkpt lat="50.621902" lon="6.422435">
        <ele>468.800000</ele>
        <time>2009-06-14T17:17:06Z</time>
      </trkpt>
      <trkpt lat="50.621863" lon="6.422370">
        <ele>470.700000</ele>
        <time>2009-06-14T17:17:08Z</time>
      </trkpt>
      <trkpt lat="50.621857" lon="6.422277">
        <ele>468.300000</ele>
        <time>2009-06-14T17:17:11Z</time>
      </trkpt>
      <trkpt lat="50.621809" lon="6.422120">
        <ele>466.400000</ele>
        <time>2009-06-14T17:17:15Z</time>
      </trkpt>
      <trkpt lat="50.621746" lon="6.421970">
        <ele>466.400000</ele>
        <time>2009-06-14T17:17:20Z</time>
      </trkpt>
      <trkpt lat="50.621718" lon="6.421906">
        <ele>467.300000</ele>
        <time>2009-06-14T17:17:22Z</time>
      </trkpt>
      <trkpt lat="50.621656" lon="6.421751">
        <ele>470.200000</ele>
        <time>2009-06-14T17:17:26Z</time>
      </trkpt>
      <trkpt lat="50.621646" lon="6.421727">
        <ele>470.700000</ele>
        <time>2009-06-14T17:17:27Z</time>
      </trkpt>
      <trkpt lat="50.621619" lon="6.421566">
        <ele>473.100000</ele>
        <time>2009-06-14T17:17:31Z</time>
      </trkpt>
      <trkpt lat="50.621600" lon="6.421424">
        <ele>475.500000</ele>
        <time>2009-06-14T17:17:35Z</time>
      </trkpt>
      <trkpt lat="50.621556" lon="6.421239">
        <ele>484.600000</ele>
        <time>2009-06-14T17:17:40Z</time>
      </trkpt>
      <trkpt lat="50.621541" lon="6.421098">
        <ele>488.500000</ele>
        <time>2009-06-14T17:17:44Z</time>
      </trkpt>
      <trkpt lat="50.621520" lon="6.420994">
        <ele>487.500000</ele>
        <time>2009-06-14T17:17:46Z</time>
      </trkpt>
      <trkpt lat="50.621526" lon="6.420912">
        <ele>486.600000</ele>
        <time>2009-06-14T17:17:48Z</time>
      </trkpt>
      <trkpt lat="50.621541" lon="6.420753">
        <ele>484.200000</ele>
        <time>2009-06-14T17:17:53Z</time>
      </trkpt>
      <trkpt lat="50.621561" lon="6.420671">
        <ele>484.600000</ele>
        <time>2009-06-14T17:17:55Z</time>
      </trkpt>
      <trkpt lat="50.621646" lon="6.420617">
        <ele>481.800000</ele>
        <time>2009-06-14T17:17:58Z</time>
      </trkpt>
      <trkpt lat="50.621704" lon="6.420573">
        <ele>478.900000</ele>
        <time>2009-06-14T17:18:01Z</time>
      </trkpt>
      <trkpt lat="50.621731" lon="6.420514">
        <ele>478.400000</ele>
        <time>2009-06-14T17:18:03Z</time>
      </trkpt>
      <trkpt lat="50.621738" lon="6.420455">
        <ele>478.400000</ele>
        <time>2009-06-14T17:18:04Z</time>
      </trkpt>
      <trkpt lat="50.621752" lon="6.420299">
        <ele>477.400000</ele>
        <time>2009-06-14T17:18:08Z</time>
      </trkpt>
      <trkpt lat="50.621743" lon="6.420153">
        <ele>476.500000</ele>
        <time>2009-06-14T17:18:12Z</time>
      </trkpt>
      <trkpt lat="50.621766" lon="6.420025">
        <ele>474.500000</ele>
        <time>2009-06-14T17:18:15Z</time>
      </trkpt>
      <trkpt lat="50.621780" lon="6.419915">
        <ele>473.100000</ele>
        <time>2009-06-14T17:18:18Z</time>
      </trkpt>
      <trkpt lat="50.621785" lon="6.419751">
        <ele>475.000000</ele>
        <time>2009-06-14T17:18:23Z</time>
      </trkpt>
      <trkpt lat="50.621788" lon="6.419654">
        <ele>476.500000</ele>
        <time>2009-06-14T17:18:25Z</time>
      </trkpt>
      <trkpt lat="50.621786" lon="6.419537">
        <ele>477.000000</ele>
        <time>2009-06-14T17:18:28Z</time>
      </trkpt>
      <trkpt lat="50.621790" lon="6.419413">
        <ele>479.400000</ele>
        <time>2009-06-14T17:18:31Z</time>
      </trkpt>
      <trkpt lat="50.621790" lon="6.419396">
        <ele>479.800000</ele>
        <time>2009-06-14T17:18:32Z</time>
      </trkpt>
      <trkpt lat="50.621759" lon="6.419165">
        <ele>480.300000</ele>
        <time>2009-06-14T17:18:38Z</time>
      </trkpt>
      <trkpt lat="50.621755" lon="6.419136">
        <ele>479.800000</ele>
        <time>2009-06-14T17:18:38Z</time>
      </trkpt>
      <trkpt lat="50.621746" lon="6.418997">
        <ele>479.800000</ele>
        <time>2009-06-14T17:18:42Z</time>
      </trkpt>
      <trkpt lat="50.621730" lon="6.418893">
        <ele>482.700000</ele>
        <time>2009-06-14T17:18:45Z</time>
      </trkpt>
      <trkpt lat="50.621729" lon="6.418814">
        <ele>482.700000</ele>
        <time>2009-06-14T17:18:47Z</time>
      </trkpt>
      <trkpt lat="50.621724" lon="6.418729">
        <ele>484.200000</ele>
        <time>2009-06-14T17:18:49Z</time>
      </trkpt>
      <trkpt lat="50.621726" lon="6.418570">
        <ele>483.700000</ele>
        <time>2009-06-14T17:18:53Z</time>
      </trkpt>
      <trkpt lat="50.621727" lon="6.418412">
        <ele>484.600000</ele>
        <time>2009-06-14T17:18:57Z</time>
      </trkpt>
      <trkpt lat="50.621726" lon="6.418361">
        <ele>484.200000</ele>
        <time>2009-06-14T17:18:58Z</time>
      </trkpt>
      <trkpt lat="50.621740" lon="6.418205">
        <ele>482.200000</ele>
        <time>2009-06-14T17:19:02Z</time>
      </trkpt>
      <trkpt lat="50.621769" lon="6.418090">
        <ele>480.300000</ele>
        <time>2009-06-14T17:19:05Z</time>
      </trkpt>
      <trkpt lat="50.621768" lon="6.418070">
        <ele>480.300000</ele>
        <time>2009-06-14T17:19:06Z</time>
      </trkpt>
      <trkpt lat="50.621784" lon="6.417967">
        <ele>478.400000</ele>
        <time>2009-06-14T17:19:08Z</time>
      </trkpt>
      <trkpt lat="50.621801" lon="6.417886">
        <ele>477.900000</ele>
        <time>2009-06-14T17:19:11Z</time>
      </trkpt>
      <trkpt lat="50.621825" lon="6.417750">
        <ele>478.400000</ele>
        <time>2009-06-14T17:19:14Z</time>
      </trkpt>
      <trkpt lat="50.621868" lon="6.417587">
        <ele>478.400000</ele>
        <time>2009-06-14T17:19:19Z</time>
      </trkpt>
      <trkpt lat="50.621901" lon="6.417429">
        <ele>479.800000</ele>
        <time>2009-06-14T17:19:23Z</time>
      </trkpt>
      <trkpt lat="50.621912" lon="6.417271">
        <ele>483.200000</ele>
        <time>2009-06-14T17:19:27Z</time>
      </trkpt>
      <trkpt lat="50.621938" lon="6.417085">
        <ele>487.500000</ele>
        <time>2009-06-14T17:19:32Z</time>
      </trkpt>
      <trkpt lat="50.621939" lon="6.417042">
        <ele>489.000000</ele>
        <time>2009-06-14T17:19:33Z</time>
      </trkpt>
      <trkpt lat="50.621959" lon="6.416830">
        <ele>489.900000</ele>
        <time>2009-06-14T17:19:38Z</time>
      </trkpt>
      <trkpt lat="50.621966" lon="6.416727">
        <ele>490.400000</ele>
        <time>2009-06-14T17:19:41Z</time>
      </trkpt>
      <trkpt lat="50.621955" lon="6.416669">
        <ele>491.900000</ele>
        <time>2009-06-14T17:19:42Z</time>
      </trkpt>
      <trkpt lat="50.621966" lon="6.416542">
        <ele>493.800000</ele>
        <time>2009-06-14T17:19:46Z</time>
      </trkpt>
      <trkpt lat="50.621971" lon="6.416446">
        <ele>495.700000</ele>
        <time>2009-06-14T17:19:48Z</time>
      </trkpt>
      <trkpt lat="50.621980" lon="6.416368">
        <ele>494.300000</ele>
        <time>2009-06-14T17:19:50Z</time>
      </trkpt>
      <trkpt lat="50.621995" lon="6.416283">
        <ele>493.800000</ele>
        <time>2009-06-14T17:19:52Z</time>
      </trkpt>
      <trkpt lat="50.622021" lon="6.416148">
        <ele>492.800000</ele>
        <time>2009-06-14T17:19:56Z</time>
      </trkpt>
      <trkpt lat="50.622055" lon="6.416052">
        <ele>491.900000</ele>
        <time>2009-06-14T17:19:59Z</time>
      </trkpt>
      <trkpt lat="50.622071" lon="6.415991">
        <ele>489.400000</ele>
        <time>2009-06-14T17:20:00Z</time>
      </trkpt>
      <trkpt lat="50.622072" lon="6.415913">
        <ele>488.500000</ele>
        <time>2009-06-14T17:20:02Z</time>
      </trkpt>
      <trkpt lat="50.622088" lon="6.415781">
        <ele>484.600000</ele>
        <time>2009-06-14T17:20:06Z</time>
      </trkpt>
      <trkpt lat="50.622089" lon="6.415631">
        <ele>485.600000</ele>
        <time>2009-06-14T17:20:10Z</time>
      </trkpt>
      <trkpt lat="50.622091" lon="6.415498">
        <ele>486.600000</ele>
        <time>2009-06-14T17:20:13Z</time>
      </trkpt>
      <trkpt lat="50.622084" lon="6.415388">
        <ele>489.000000</ele>
        <time>2009-06-14T17:20:16Z</time>
      </trkpt>
      <trkpt lat="50.622117" lon="6.415308">
        <ele>489.900000</ele>
        <time>2009-06-14T17:20:18Z</time>
      </trkpt>
      <trkpt lat="50.622179" lon="6.415244">
        <ele>488.000000</ele>
        <time>2009-06-14T17:20:21Z</time>
      </trkpt>
      <trkpt lat="50.622231" lon="6.415185">
        <ele>486.600000</ele>
        <time>2009-06-14T17:20:24Z</time>
      </trkpt>
      <trkpt lat="50.622239" lon="6.415169">
        <ele>487.500000</ele>
        <time>2009-06-14T17:20:24Z</time>
      </trkpt>
      <trkpt lat="50.622288" lon="6.415095">
        <ele>485.600000</ele>
        <time>2009-06-14T17:20:27Z</time>
      </trkpt>
      <trkpt lat="50.622339" lon="6.414988">
        <ele>483.200000</ele>
        <time>2009-06-14T17:20:30Z</time>
      </trkpt>
      <trkpt lat="50.622389" lon="6.414912">
        <ele>482.200000</ele>
        <time>2009-06-14T17:20:33Z</time>
      </trkpt>
      <trkpt lat="50.622395" lon="6.414898">
        <ele>482.200000</ele>
        <time>2009-06-14T17:20:34Z</time>
      </trkpt>
      <trkpt lat="50.622436" lon="6.414859">
        <ele>481.300000</ele>
        <time>2009-06-14T17:20:36Z</time>
      </trkpt>
      <trkpt lat="50.622219" lon="6.415171">
        <ele>483.700000</ele>
        <time>2009-06-14T17:20:47Z</time>
      </trkpt>
      <trkpt lat="50.622198" lon="6.415188">
        <ele>485.600000</ele>
        <time>2009-06-14T17:20:48Z</time>
      </trkpt>
      <trkpt lat="50.622149" lon="6.415235">
        <ele>486.600000</ele>
        <time>2009-06-14T17:20:51Z</time>
      </trkpt>
      <trkpt lat="50.622089" lon="6.415294">
        <ele>489.000000</ele>
        <time>2009-06-14T17:20:53Z</time>
      </trkpt>
      <trkpt lat="50.622072" lon="6.415254">
        <ele>488.500000</ele>
        <time>2009-06-14T17:20:55Z</time>
      </trkpt>
      <trkpt lat="50.622058" lon="6.415192">
        <ele>489.400000</ele>
        <time>2009-06-14T17:20:56Z</time>
      </trkpt>
      <trkpt lat="50.622031" lon="6.415070">
        <ele>491.400000</ele>
        <time>2009-06-14T17:21:00Z</time>
      </trkpt>
      <trkpt lat="50.621988" lon="6.414948">
        <ele>491.400000</ele>
        <time>2009-06-14T17:21:03Z</time>
      </trkpt>
      <trkpt lat="50.621929" lon="6.414787">
        <ele>494.700000</ele>
        <time>2009-06-14T17:21:08Z</time>
      </trkpt>
      <trkpt lat="50.621859" lon="6.414592">
        <ele>497.100000</ele>
        <time>2009-06-14T17:21:14Z</time>
      </trkpt>
      <trkpt lat="50.621809" lon="6.414468">
        <ele>497.100000</ele>
        <time>2009-06-14T17:21:17Z</time>
      </trkpt>
      <trkpt lat="50.621710" lon="6.414388">
        <ele>499.100000</ele>
        <time>2009-06-14T17:21:22Z</time>
      </trkpt>
      <trkpt lat="50.621624" lon="6.414312">
        <ele>501.000000</ele>
        <time>2009-06-14T17:21:26Z</time>
      </trkpt>
      <trkpt lat="50.621574" lon="6.414279">
        <ele>499.100000</ele>
        <time>2009-06-14T17:21:28Z</time>
      </trkpt>
      <trkpt lat="50.621503" lon="6.414231">
        <ele>498.100000</ele>
        <time>2009-06-14T17:21:31Z</time>
      </trkpt>
      <trkpt lat="50.621434" lon="6.414126">
        <ele>495.700000</ele>
        <time>2009-06-14T17:21:35Z</time>
      </trkpt>
      <trkpt lat="50.621362" lon="6.413989">
        <ele>492.800000</ele>
        <time>2009-06-14T17:21:39Z</time>
      </trkpt>
      <trkpt lat="50.621328" lon="6.413948">
        <ele>492.300000</ele>
        <time>2009-06-14T17:21:41Z</time>
      </trkpt>
      <trkpt lat="50.621267" lon="6.413866">
        <ele>491.900000</ele>
        <time>2009-06-14T17:21:44Z</time>
      </trkpt>
      <trkpt lat="50.621224" lon="6.413768">
        <ele>493.300000</ele>
        <time>2009-06-14T17:21:47Z</time>
      </trkpt>
      <trkpt lat="50.621144" lon="6.413600">
        <ele>497.100000</ele>
        <time>2009-06-14T17:21:53Z</time>
      </trkpt>
      <trkpt lat="50.621093" lon="6.413534">
        <ele>498.100000</ele>
        <time>2009-06-14T17:21:55Z</time>
      </trkpt>
      <trkpt lat="50.621051" lon="6.413502">
        <ele>498.100000</ele>
        <time>2009-06-14T17:21:57Z</time>
      </trkpt>
      <trkpt lat="50.621025" lon="6.413450">
        <ele>497.600000</ele>
        <time>2009-06-14T17:21:59Z</time>
      </trkpt>
      <trkpt lat="50.620935" lon="6.413336">
        <ele>496.200000</ele>
        <time>2009-06-14T17:22:03Z</time>
      </trkpt>
      <trkpt lat="50.620872" lon="6.413248">
        <ele>494.300000</ele>
        <time>2009-06-14T17:22:07Z</time>
      </trkpt>
      <trkpt lat="50.620814" lon="6.413162">
        <ele>493.800000</ele>
        <time>2009-06-14T17:22:10Z</time>
      </trkpt>
      <trkpt lat="50.620741" lon="6.413003">
        <ele>495.700000</ele>
        <time>2009-06-14T17:22:15Z</time>
      </trkpt>
      <trkpt lat="50.620710" lon="6.412952">
        <ele>495.200000</ele>
        <time>2009-06-14T17:22:17Z</time>
      </trkpt>
      <trkpt lat="50.620649" lon="6.412856">
        <ele>497.100000</ele>
        <time>2009-06-14T17:22:20Z</time>
      </trkpt>
      <trkpt lat="50.620587" lon="6.412753">
        <ele>498.100000</ele>
        <time>2009-06-14T17:22:24Z</time>
      </trkpt>
      <trkpt lat="50.620568" lon="6.412736">
        <ele>499.100000</ele>
        <time>2009-06-14T17:22:25Z</time>
      </trkpt>
      <trkpt lat="50.620548" lon="6.412685">
        <ele>500.500000</ele>
        <time>2009-06-14T17:22:26Z</time>
      </trkpt>
      <trkpt lat="50.620485" lon="6.412588">
        <ele>498.100000</ele>
        <time>2009-06-14T17:22:30Z</time>
      </trkpt>
      <trkpt lat="50.620414" lon="6.412463">
        <ele>499.500000</ele>
        <time>2009-06-14T17:22:34Z</time>
      </trkpt>
      <trkpt lat="50.620339" lon="6.412337">
        <ele>499.100000</ele>
        <time>2009-06-14T17:22:38Z</time>
      </trkpt>
      <trkpt lat="50.620325" lon="6.412317">
        <ele>498.600000</ele>
        <time>2009-06-14T17:22:39Z</time>
      </trkpt>
      <trkpt lat="50.620226" lon="6.412143">
        <ele>500.500000</ele>
        <time>2009-06-14T17:22:45Z</time>
      </trkpt>
      <trkpt lat="50.620208" lon="6.412117">
        <ele>501.000000</ele>
        <time>2009-06-14T17:22:46Z</time>
      </trkpt>
      <trkpt lat="50.620168" lon="6.412024">
        <ele>502.400000</ele>
        <time>2009-06-14T17:22:49Z</time>
      </trkpt>
      <trkpt lat="50.620129" lon="6.411933">
        <ele>501.000000</ele>
        <time>2009-06-14T17:22:52Z</time>
      </trkpt>
      <trkpt lat="50.620067" lon="6.411787">
        <ele>501.900000</ele>
        <time>2009-06-14T17:22:56Z</time>
      </trkpt>
      <trkpt lat="50.620055" lon="6.411769">
        <ele>502.900000</ele>
        <time>2009-06-14T17:22:57Z</time>
      </trkpt>
      <trkpt lat="50.620017" lon="6.411637">
        <ele>504.300000</ele>
        <time>2009-06-14T17:23:00Z</time>
      </trkpt>
      <trkpt lat="50.619936" lon="6.411445">
        <ele>505.300000</ele>
        <time>2009-06-14T17:23:06Z</time>
      </trkpt>
      <trkpt lat="50.619878" lon="6.411322">
        <ele>508.700000</ele>
        <time>2009-06-14T17:23:10Z</time>
      </trkpt>
      <trkpt lat="50.619828" lon="6.411174">
        <ele>505.300000</ele>
        <time>2009-06-14T17:23:14Z</time>
      </trkpt>
      <trkpt lat="50.619783" lon="6.411034">
        <ele>501.900000</ele>
        <time>2009-06-14T17:23:18Z</time>
      </trkpt>
      <trkpt lat="50.619739" lon="6.410913">
        <ele>501.500000</ele>
        <time>2009-06-14T17:23:22Z</time>
      </trkpt>
      <trkpt lat="50.619730" lon="6.410893">
        <ele>501.000000</ele>
        <time>2009-06-14T17:23:23Z</time>
      </trkpt>
      <trkpt lat="50.619675" lon="6.410766">
        <ele>502.400000</ele>
        <time>2009-06-14T17:23:27Z</time>
      </trkpt>
      <trkpt lat="50.619636" lon="6.410661">
        <ele>503.400000</ele>
        <time>2009-06-14T17:23:30Z</time>
      </trkpt>
      <trkpt lat="50.619583" lon="6.410524">
        <ele>503.400000</ele>
        <time>2009-06-14T17:23:34Z</time>
      </trkpt>
      <trkpt lat="50.619538" lon="6.410401">
        <ele>501.900000</ele>
        <time>2009-06-14T17:23:37Z</time>
      </trkpt>
      <trkpt lat="50.619481" lon="6.410264">
        <ele>502.400000</ele>
        <time>2009-06-14T17:23:41Z</time>
      </trkpt>
      <trkpt lat="50.619469" lon="6.410240">
        <ele>502.900000</ele>
        <time>2009-06-14T17:23:42Z</time>
      </trkpt>
      <trkpt lat="50.619419" lon="6.410146">
        <ele>501.500000</ele>
        <time>2009-06-14T17:23:45Z</time>
      </trkpt>
      <trkpt lat="50.619358" lon="6.410030">
        <ele>501.900000</ele>
        <time>2009-06-14T17:23:49Z</time>
      </trkpt>
      <trkpt lat="50.619349" lon="6.410018">
        <ele>501.900000</ele>
        <time>2009-06-14T17:23:50Z</time>
      </trkpt>
      <trkpt lat="50.619305" lon="6.409940">
        <ele>499.500000</ele>
        <time>2009-06-14T17:23:52Z</time>
      </trkpt>
      <trkpt lat="50.619271" lon="6.409908">
        <ele>499.500000</ele>
        <time>2009-06-14T17:23:54Z</time>
      </trkpt>
      <trkpt lat="50.619165" lon="6.409831">
        <ele>501.000000</ele>
        <time>2009-06-14T17:23:59Z</time>
      </trkpt>
      <trkpt lat="50.619135" lon="6.409841">
        <ele>501.000000</ele>
        <time>2009-06-14T17:24:00Z</time>
      </trkpt>
      <trkpt lat="50.619086" lon="6.409931">
        <ele>503.400000</ele>
        <time>2009-06-14T17:24:03Z</time>
      </trkpt>
      <trkpt lat="50.619085" lon="6.410034">
        <ele>505.300000</ele>
        <time>2009-06-14T17:24:05Z</time>
      </trkpt>
      <trkpt lat="50.619089" lon="6.410071">
        <ele>506.800000</ele>
        <time>2009-06-14T17:24:06Z</time>
      </trkpt>
      <trkpt lat="50.619056" lon="6.410219">
        <ele>509.600000</ele>
        <time>2009-06-14T17:24:10Z</time>
      </trkpt>
      <trkpt lat="50.619052" lon="6.410240">
        <ele>510.100000</ele>
        <time>2009-06-14T17:24:11Z</time>
      </trkpt>
      <trkpt lat="50.619024" lon="6.410391">
        <ele>508.700000</ele>
        <time>2009-06-14T17:24:15Z</time>
      </trkpt>
      <trkpt lat="50.619018" lon="6.410422">
        <ele>508.200000</ele>
        <time>2009-06-14T17:24:16Z</time>
      </trkpt>
      <trkpt lat="50.618993" lon="6.410584">
        <ele>507.200000</ele>
        <time>2009-06-14T17:24:20Z</time>
      </trkpt>
      <trkpt lat="50.618959" lon="6.410784">
        <ele>508.200000</ele>
        <time>2009-06-14T17:24:25Z</time>
      </trkpt>
      <trkpt lat="50.618947" lon="6.410922">
        <ele>509.200000</ele>
        <time>2009-06-14T17:24:29Z</time>
      </trkpt>
      <trkpt lat="50.618905" lon="6.411023">
        <ele>507.700000</ele>
        <time>2009-06-14T17:24:32Z</time>
      </trkpt>
      <trkpt lat="50.618893" lon="6.411063">
        <ele>507.700000</ele>
        <time>2009-06-14T17:24:33Z</time>
      </trkpt>
      <trkpt lat="50.618880" lon="6.411182">
        <ele>508.200000</ele>
        <time>2009-06-14T17:24:36Z</time>
      </trkpt>
      <trkpt lat="50.618850" lon="6.411412">
        <ele>508.700000</ele>
        <time>2009-06-14T17:24:42Z</time>
      </trkpt>
      <trkpt lat="50.618850" lon="6.411436">
        <ele>508.700000</ele>
        <time>2009-06-14T17:24:43Z</time>
      </trkpt>
      <trkpt lat="50.618844" lon="6.411660">
        <ele>506.300000</ele>
        <time>2009-06-14T17:24:48Z</time>
      </trkpt>
      <trkpt lat="50.618843" lon="6.411844">
        <ele>505.300000</ele>
        <time>2009-06-14T17:24:53Z</time>
      </trkpt>
      <trkpt lat="50.618865" lon="6.412003">
        <ele>505.800000</ele>
        <time>2009-06-14T17:24:57Z</time>
      </trkpt>
      <trkpt lat="50.618867" lon="6.412169">
        <ele>505.800000</ele>
        <time>2009-06-14T17:25:01Z</time>
      </trkpt>
      <trkpt lat="50.618870" lon="6.412196">
        <ele>505.800000</ele>
        <time>2009-06-14T17:25:02Z</time>
      </trkpt>
      <trkpt lat="50.618884" lon="6.412369">
        <ele>503.900000</ele>
        <time>2009-06-14T17:25:06Z</time>
      </trkpt>
      <trkpt lat="50.618908" lon="6.412510">
        <ele>505.300000</ele>
        <time>2009-06-14T17:25:10Z</time>
      </trkpt>
      <trkpt lat="50.618890" lon="6.412754">
        <ele>509.200000</ele>
        <time>2009-06-14T17:25:16Z</time>
      </trkpt>
      <trkpt lat="50.618858" lon="6.412990">
        <ele>514.000000</ele>
        <time>2009-06-14T17:25:23Z</time>
      </trkpt>
      <trkpt lat="50.618854" lon="6.413065">
        <ele>515.400000</ele>
        <time>2009-06-14T17:25:24Z</time>
      </trkpt>
      <trkpt lat="50.618844" lon="6.413204">
        <ele>513.500000</ele>
        <time>2009-06-14T17:25:28Z</time>
      </trkpt>
      <trkpt lat="50.618872" lon="6.413356">
        <ele>511.600000</ele>
        <time>2009-06-14T17:25:32Z</time>
      </trkpt>
      <trkpt lat="50.618911" lon="6.413457">
        <ele>508.700000</ele>
        <time>2009-06-14T17:25:35Z</time>
      </trkpt>
      <trkpt lat="50.618948" lon="6.413604">
        <ele>507.700000</ele>
        <time>2009-06-14T17:25:39Z</time>
      </trkpt>
      <trkpt lat="50.618941" lon="6.413683">
        <ele>506.800000</ele>
        <time>2009-06-14T17:25:41Z</time>
      </trkpt>
      <trkpt lat="50.618944" lon="6.413840">
        <ele>508.700000</ele>
        <time>2009-06-14T17:25:45Z</time>
      </trkpt>
      <trkpt lat="50.618963" lon="6.413941">
        <ele>509.200000</ele>
        <time>2009-06-14T17:25:48Z</time>
      </trkpt>
      <trkpt lat="50.618964" lon="6.414075">
        <ele>510.600000</ele>
        <time>2009-06-14T17:25:51Z</time>
      </trkpt>
      <trkpt lat="50.618956" lon="6.414147">
        <ele>512.000000</ele>
        <time>2009-06-14T17:25:53Z</time>
      </trkpt>
      <trkpt lat="50.618951" lon="6.414318">
        <ele>515.400000</ele>
        <time>2009-06-14T17:25:57Z</time>
      </trkpt>
      <trkpt lat="50.618921" lon="6.414447">
        <ele>515.900000</ele>
        <time>2009-06-14T17:26:01Z</time>
      </trkpt>
      <trkpt lat="50.618901" lon="6.414486">
        <ele>514.900000</ele>
        <time>2009-06-14T17:26:02Z</time>
      </trkpt>
      <trkpt lat="50.618873" lon="6.414644">
        <ele>511.100000</ele>
        <time>2009-06-14T17:26:06Z</time>
      </trkpt>
      <trkpt lat="50.618862" lon="6.414754">
        <ele>509.200000</ele>
        <time>2009-06-14T17:26:09Z</time>
      </trkpt>
      <trkpt lat="50.618841" lon="6.414926">
        <ele>506.800000</ele>
        <time>2009-06-14T17:26:14Z</time>
      </trkpt>
      <trkpt lat="50.618788" lon="6.415089">
        <ele>508.700000</ele>
        <time>2009-06-14T17:26:18Z</time>
      </trkpt>
      <trkpt lat="50.618759" lon="6.415211">
        <ele>508.700000</ele>
        <time>2009-06-14T17:26:21Z</time>
      </trkpt>
      <trkpt lat="50.618715" lon="6.415393">
        <ele>508.700000</ele>
        <time>2009-06-14T17:26:26Z</time>
      </trkpt>
      <trkpt lat="50.618693" lon="6.415569">
        <ele>509.600000</ele>
        <time>2009-06-14T17:26:31Z</time>
      </trkpt>
      <trkpt lat="50.618681" lon="6.415695">
        <ele>510.600000</ele>
        <time>2009-06-14T17:26:34Z</time>
      </trkpt>
      <trkpt lat="50.618668" lon="6.415780">
        <ele>510.600000</ele>
        <time>2009-06-14T17:26:36Z</time>
      </trkpt>
      <trkpt lat="50.618658" lon="6.415823">
        <ele>509.600000</ele>
        <time>2009-06-14T17:26:38Z</time>
      </trkpt>
      <trkpt lat="50.618647" lon="6.415988">
        <ele>509.600000</ele>
        <time>2009-06-14T17:26:42Z</time>
      </trkpt>
      <trkpt lat="50.618643" lon="6.416012">
        <ele>509.600000</ele>
        <time>2009-06-14T17:26:42Z</time>
      </trkpt>
      <trkpt lat="50.618619" lon="6.416116">
        <ele>508.200000</ele>
        <time>2009-06-14T17:26:45Z</time>
      </trkpt>
      <trkpt lat="50.618584" lon="6.416285">
        <ele>508.200000</ele>
        <time>2009-06-14T17:26:50Z</time>
      </trkpt>
      <trkpt lat="50.618580" lon="6.416358">
        <ele>508.200000</ele>
        <time>2009-06-14T17:26:52Z</time>
      </trkpt>
      <trkpt lat="50.618559" lon="6.416521">
        <ele>507.200000</ele>
        <time>2009-06-14T17:26:56Z</time>
      </trkpt>
      <trkpt lat="50.618538" lon="6.416648">
        <ele>506.800000</ele>
        <time>2009-06-14T17:26:59Z</time>
      </trkpt>
      <trkpt lat="50.618507" lon="6.416869">
        <ele>511.600000</ele>
        <time>2009-06-14T17:27:05Z</time>
      </trkpt>
      <trkpt lat="50.618494" lon="6.416952">
        <ele>513.000000</ele>
        <time>2009-06-14T17:27:07Z</time>
      </trkpt>
      <trkpt lat="50.618480" lon="6.417088">
        <ele>513.000000</ele>
        <time>2009-06-14T17:27:11Z</time>
      </trkpt>
      <trkpt lat="50.618442" lon="6.417264">
        <ele>514.400000</ele>
        <time>2009-06-14T17:27:15Z</time>
      </trkpt>
      <trkpt lat="50.618423" lon="6.417396">
        <ele>513.000000</ele>
        <time>2009-06-14T17:27:19Z</time>
      </trkpt>
      <trkpt lat="50.618415" lon="6.417421">
        <ele>512.500000</ele>
        <time>2009-06-14T17:27:19Z</time>
      </trkpt>
      <trkpt lat="50.618398" lon="6.417536">
        <ele>511.600000</ele>
        <time>2009-06-14T17:27:22Z</time>
      </trkpt>
      <trkpt lat="50.618379" lon="6.417712">
        <ele>509.200000</ele>
        <time>2009-06-14T17:27:27Z</time>
      </trkpt>
      <trkpt lat="50.618349" lon="6.417820">
        <ele>508.700000</ele>
        <time>2009-06-14T17:27:30Z</time>
      </trkpt>
      <trkpt lat="50.618322" lon="6.417876">
        <ele>509.200000</ele>
        <time>2009-06-14T17:27:32Z</time>
      </trkpt>
      <trkpt lat="50.618298" lon="6.418002">
        <ele>511.600000</ele>
        <time>2009-06-14T17:27:35Z</time>
      </trkpt>
      <trkpt lat="50.618252" lon="6.418158">
        <ele>513.000000</ele>
        <time>2009-06-14T17:27:39Z</time>
      </trkpt>
      <trkpt lat="50.618250" lon="6.418210">
        <ele>514.900000</ele>
        <time>2009-06-14T17:27:41Z</time>
      </trkpt>
      <trkpt lat="50.618246" lon="6.418345">
        <ele>519.700000</ele>
        <time>2009-06-14T17:27:44Z</time>
      </trkpt>
      <trkpt lat="50.618238" lon="6.418410">
        <ele>519.700000</ele>
        <time>2009-06-14T17:27:46Z</time>
      </trkpt>
      <trkpt lat="50.618226" lon="6.418457">
        <ele>519.700000</ele>
        <time>2009-06-14T17:27:47Z</time>
      </trkpt>
      <trkpt lat="50.618219" lon="6.418573">
        <ele>519.200000</ele>
        <time>2009-06-14T17:27:50Z</time>
      </trkpt>
      <trkpt lat="50.618210" lon="6.418690">
        <ele>519.200000</ele>
        <time>2009-06-14T17:27:53Z</time>
      </trkpt>
      <trkpt lat="50.618170" lon="6.418870">
        <ele>518.300000</ele>
        <time>2009-06-14T17:27:58Z</time>
      </trkpt>
      <trkpt lat="50.618144" lon="6.419036">
        <ele>519.700000</ele>
        <time>2009-06-14T17:28:02Z</time>
      </trkpt>
      <trkpt lat="50.618115" lon="6.419184">
        <ele>521.200000</ele>
        <time>2009-06-14T17:28:06Z</time>
      </trkpt>
      <trkpt lat="50.618091" lon="6.419279">
        <ele>522.100000</ele>
        <time>2009-06-14T17:28:09Z</time>
      </trkpt>
      <trkpt lat="50.618079" lon="6.419348">
        <ele>522.600000</ele>
        <time>2009-06-14T17:28:11Z</time>
      </trkpt>
      <trkpt lat="50.618078" lon="6.419436">
        <ele>524.500000</ele>
        <time>2009-06-14T17:28:13Z</time>
      </trkpt>
      <trkpt lat="50.618060" lon="6.419550">
        <ele>524.500000</ele>
        <time>2009-06-14T17:28:16Z</time>
      </trkpt>
      <trkpt lat="50.618023" lon="6.419732">
        <ele>524.100000</ele>
        <time>2009-06-14T17:28:21Z</time>
      </trkpt>
      <trkpt lat="50.617995" lon="6.419841">
        <ele>523.600000</ele>
        <time>2009-06-14T17:28:24Z</time>
      </trkpt>
      <trkpt lat="50.617962" lon="6.420003">
        <ele>525.000000</ele>
        <time>2009-06-14T17:28:28Z</time>
      </trkpt>
      <trkpt lat="50.617958" lon="6.420020">
        <ele>525.000000</ele>
        <time>2009-06-14T17:28:29Z</time>
      </trkpt>
      <trkpt lat="50.617936" lon="6.420105">
        <ele>525.000000</ele>
        <time>2009-06-14T17:28:31Z</time>
      </trkpt>
      <trkpt lat="50.617926" lon="6.420190">
        <ele>526.000000</ele>
        <time>2009-06-14T17:28:33Z</time>
      </trkpt>
      <trkpt lat="50.617890" lon="6.420339">
        <ele>524.500000</ele>
        <time>2009-06-14T17:28:37Z</time>
      </trkpt>
      <trkpt lat="50.617886" lon="6.420410">
        <ele>525.000000</ele>
        <time>2009-06-14T17:28:39Z</time>
      </trkpt>
      <trkpt lat="50.617854" lon="6.420537">
        <ele>528.400000</ele>
        <time>2009-06-14T17:28:42Z</time>
      </trkpt>
      <trkpt lat="50.617848" lon="6.420667">
        <ele>529.800000</ele>
        <time>2009-06-14T17:28:46Z</time>
      </trkpt>
      <trkpt lat="50.617822" lon="6.420800">
        <ele>529.300000</ele>
        <time>2009-06-14T17:28:49Z</time>
      </trkpt>
      <trkpt lat="50.617798" lon="6.420862">
        <ele>529.800000</ele>
        <time>2009-06-14T17:28:51Z</time>
      </trkpt>
      <trkpt lat="50.617769" lon="6.420991">
        <ele>528.400000</ele>
        <time>2009-06-14T17:28:55Z</time>
      </trkpt>
      <trkpt lat="50.617768" lon="6.421013">
        <ele>528.400000</ele>
        <time>2009-06-14T17:28:55Z</time>
      </trkpt>
      <trkpt lat="50.617758" lon="6.421095">
        <ele>528.400000</ele>
        <time>2009-06-14T17:28:57Z</time>
      </trkpt>
      <trkpt lat="50.617728" lon="6.421237">
        <ele>527.900000</ele>
        <time>2009-06-14T17:29:01Z</time>
      </trkpt>
      <trkpt lat="50.617725" lon="6.421256">
        <ele>527.900000</ele>
        <time>2009-06-14T17:29:02Z</time>
      </trkpt>
      <trkpt lat="50.617685" lon="6.421425">
        <ele>527.900000</ele>
        <time>2009-06-14T17:29:06Z</time>
      </trkpt>
      <trkpt lat="50.617661" lon="6.421492">
        <ele>526.500000</ele>
        <time>2009-06-14T17:29:08Z</time>
      </trkpt>
      <trkpt lat="50.617655" lon="6.421532">
        <ele>526.900000</ele>
        <time>2009-06-14T17:29:09Z</time>
      </trkpt>
      <trkpt lat="50.617624" lon="6.421703">
        <ele>528.900000</ele>
        <time>2009-06-14T17:29:14Z</time>
      </trkpt>
      <trkpt lat="50.617588" lon="6.421851">
        <ele>527.900000</ele>
        <time>2009-06-14T17:29:18Z</time>
      </trkpt>
      <trkpt lat="50.617552" lon="6.421954">
        <ele>527.900000</ele>
        <time>2009-06-14T17:29:21Z</time>
      </trkpt>
      <trkpt lat="50.617491" lon="6.422114">
        <ele>524.500000</ele>
        <time>2009-06-14T17:29:25Z</time>
      </trkpt>
      <trkpt lat="50.617458" lon="6.422238">
        <ele>523.100000</ele>
        <time>2009-06-14T17:29:29Z</time>
      </trkpt>
      <trkpt lat="50.617443" lon="6.422296">
        <ele>522.600000</ele>
        <time>2009-06-14T17:29:30Z</time>
      </trkpt>
      <trkpt lat="50.617423" lon="6.422386">
        <ele>522.100000</ele>
        <time>2009-06-14T17:29:33Z</time>
      </trkpt>
      <trkpt lat="50.617376" lon="6.422566">
        <ele>520.700000</ele>
        <time>2009-06-14T17:29:38Z</time>
      </trkpt>
      <trkpt lat="50.617356" lon="6.422655">
        <ele>521.200000</ele>
        <time>2009-06-14T17:29:40Z</time>
      </trkpt>
      <trkpt lat="50.617340" lon="6.422771">
        <ele>520.200000</ele>
        <time>2009-06-14T17:29:43Z</time>
      </trkpt>
      <trkpt lat="50.617329" lon="6.422874">
        <ele>520.700000</ele>
        <time>2009-06-14T17:29:46Z</time>
      </trkpt>
      <trkpt lat="50.617315" lon="6.422939">
        <ele>521.200000</ele>
        <time>2009-06-14T17:29:48Z</time>
      </trkpt>
      <trkpt lat="50.617296" lon="6.423007">
        <ele>521.700000</ele>
        <time>2009-06-14T17:29:49Z</time>
      </trkpt>
      <trkpt lat="50.617261" lon="6.423146">
        <ele>518.800000</ele>
        <time>2009-06-14T17:29:53Z</time>
      </trkpt>
      <trkpt lat="50.617251" lon="6.423251">
        <ele>519.200000</ele>
        <time>2009-06-14T17:29:56Z</time>
      </trkpt>
      <trkpt lat="50.617243" lon="6.423300">
        <ele>518.800000</ele>
        <time>2009-06-14T17:29:57Z</time>
      </trkpt>
      <trkpt lat="50.617229" lon="6.423490">
        <ele>519.200000</ele>
        <time>2009-06-14T17:30:02Z</time>
      </trkpt>
      <trkpt lat="50.617202" lon="6.423617">
        <ele>520.200000</ele>
        <time>2009-06-14T17:30:06Z</time>
      </trkpt>
      <trkpt lat="50.617190" lon="6.423730">
        <ele>520.700000</ele>
        <time>2009-06-14T17:30:08Z</time>
      </trkpt>
      <trkpt lat="50.617179" lon="6.423829">
        <ele>520.200000</ele>
        <time>2009-06-14T17:30:11Z</time>
      </trkpt>
      <trkpt lat="50.617144" lon="6.423992">
        <ele>518.800000</ele>
        <time>2009-06-14T17:30:15Z</time>
      </trkpt>
      <trkpt lat="50.617101" lon="6.424143">
        <ele>518.800000</ele>
        <time>2009-06-14T17:30:20Z</time>
      </trkpt>
      <trkpt lat="50.617077" lon="6.424274">
        <ele>515.900000</ele>
        <time>2009-06-14T17:30:23Z</time>
      </trkpt>
      <trkpt lat="50.617085" lon="6.424374">
        <ele>513.000000</ele>
        <time>2009-06-14T17:30:26Z</time>
      </trkpt>
      <trkpt lat="50.617072" lon="6.424484">
        <ele>511.600000</ele>
        <time>2009-06-14T17:30:28Z</time>
      </trkpt>
      <trkpt lat="50.617056" lon="6.424593">
        <ele>511.600000</ele>
        <time>2009-06-14T17:30:31Z</time>
      </trkpt>
      <trkpt lat="50.617022" lon="6.424800">
        <ele>511.600000</ele>
        <time>2009-06-14T17:30:37Z</time>
      </trkpt>
      <trkpt lat="50.617006" lon="6.424848">
        <ele>511.100000</ele>
        <time>2009-06-14T17:30:38Z</time>
      </trkpt>
      <trkpt lat="50.616964" lon="6.425022">
        <ele>510.600000</ele>
        <time>2009-06-14T17:30:43Z</time>
      </trkpt>
      <trkpt lat="50.616935" lon="6.425158">
        <ele>510.600000</ele>
        <time>2009-06-14T17:30:46Z</time>
      </trkpt>
      <trkpt lat="50.616910" lon="6.425317">
        <ele>509.600000</ele>
        <time>2009-06-14T17:30:51Z</time>
      </trkpt>
      <trkpt lat="50.616916" lon="6.425381">
        <ele>508.700000</ele>
        <time>2009-06-14T17:30:52Z</time>
      </trkpt>
      <trkpt lat="50.616896" lon="6.425519">
        <ele>506.800000</ele>
        <time>2009-06-14T17:30:56Z</time>
      </trkpt>
      <trkpt lat="50.616894" lon="6.425539">
        <ele>506.300000</ele>
        <time>2009-06-14T17:30:56Z</time>
      </trkpt>
      <trkpt lat="50.616873" lon="6.425642">
        <ele>504.800000</ele>
        <time>2009-06-14T17:30:59Z</time>
      </trkpt>
      <trkpt lat="50.616872" lon="6.425748">
        <ele>501.500000</ele>
        <time>2009-06-14T17:31:02Z</time>
      </trkpt>
      <trkpt lat="50.616868" lon="6.425854">
        <ele>500.000000</ele>
        <time>2009-06-14T17:31:04Z</time>
      </trkpt>
      <trkpt lat="50.616859" lon="6.425930">
        <ele>498.600000</ele>
        <time>2009-06-14T17:31:06Z</time>
      </trkpt>
      <trkpt lat="50.616861" lon="6.426094">
        <ele>497.600000</ele>
        <time>2009-06-14T17:31:11Z</time>
      </trkpt>
      <trkpt lat="50.616902" lon="6.426235">
        <ele>497.600000</ele>
        <time>2009-06-14T17:31:15Z</time>
      </trkpt>
      <trkpt lat="50.616890" lon="6.426337">
        <ele>496.200000</ele>
        <time>2009-06-14T17:31:17Z</time>
      </trkpt>
      <trkpt lat="50.616883" lon="6.426429">
        <ele>494.700000</ele>
        <time>2009-06-14T17:31:20Z</time>
      </trkpt>
      <trkpt lat="50.616889" lon="6.426556">
        <ele>495.200000</ele>
        <time>2009-06-14T17:31:23Z</time>
      </trkpt>
      <trkpt lat="50.616903" lon="6.426635">
        <ele>495.700000</ele>
        <time>2009-06-14T17:31:25Z</time>
      </trkpt>
      <trkpt lat="50.616907" lon="6.426767">
        <ele>493.800000</ele>
        <time>2009-06-14T17:31:28Z</time>
      </trkpt>
      <trkpt lat="50.616909" lon="6.426936">
        <ele>492.800000</ele>
        <time>2009-06-14T17:31:33Z</time>
      </trkpt>
      <trkpt lat="50.616907" lon="6.427026">
        <ele>492.300000</ele>
        <time>2009-06-14T17:31:35Z</time>
      </trkpt>
      <trkpt lat="50.616905" lon="6.427177">
        <ele>489.400000</ele>
        <time>2009-06-14T17:31:39Z</time>
      </trkpt>
      <trkpt lat="50.616921" lon="6.427348">
        <ele>490.900000</ele>
        <time>2009-06-14T17:31:43Z</time>
      </trkpt>
      <trkpt lat="50.616933" lon="6.427471">
        <ele>489.400000</ele>
        <time>2009-06-14T17:31:46Z</time>
      </trkpt>
      <trkpt lat="50.616934" lon="6.427581">
        <ele>489.900000</ele>
        <time>2009-06-14T17:31:49Z</time>
      </trkpt>
      <trkpt lat="50.616940" lon="6.427720">
        <ele>491.900000</ele>
        <time>2009-06-14T17:31:53Z</time>
      </trkpt>
      <trkpt lat="50.616945" lon="6.427785">
        <ele>492.800000</ele>
        <time>2009-06-14T17:31:54Z</time>
      </trkpt>
      <trkpt lat="50.616942" lon="6.427956">
        <ele>495.200000</ele>
        <time>2009-06-14T17:31:59Z</time>
      </trkpt>
      <trkpt lat="50.616929" lon="6.428088">
        <ele>494.300000</ele>
        <time>2009-06-14T17:32:02Z</time>
      </trkpt>
      <trkpt lat="50.616939" lon="6.428269">
        <ele>496.700000</ele>
        <time>2009-06-14T17:32:07Z</time>
      </trkpt>
      <trkpt lat="50.616918" lon="6.428406">
        <ele>496.700000</ele>
        <time>2009-06-14T17:32:10Z</time>
      </trkpt>
      <trkpt lat="50.616929" lon="6.428482">
        <ele>496.200000</ele>
        <time>2009-06-14T17:32:12Z</time>
      </trkpt>
      <trkpt lat="50.616934" lon="6.428577">
        <ele>497.100000</ele>
        <time>2009-06-14T17:32:15Z</time>
      </trkpt>
      <trkpt lat="50.616961" lon="6.428686">
        <ele>493.300000</ele>
        <time>2009-06-14T17:32:17Z</time>
      </trkpt>
      <trkpt lat="50.616974" lon="6.428852">
        <ele>491.900000</ele>
        <time>2009-06-14T17:32:22Z</time>
      </trkpt>
      <trkpt lat="50.616981" lon="6.428963">
        <ele>490.400000</ele>
        <time>2009-06-14T17:32:25Z</time>
      </trkpt>
      <trkpt lat="50.616989" lon="6.429102">
        <ele>489.400000</ele>
        <time>2009-06-14T17:32:28Z</time>
      </trkpt>
      <trkpt lat="50.616996" lon="6.429254">
        <ele>489.900000</ele>
        <time>2009-06-14T17:32:32Z</time>
      </trkpt>
      <trkpt lat="50.617012" lon="6.429465">
        <ele>489.400000</ele>
        <time>2009-06-14T17:32:37Z</time>
      </trkpt>
      <trkpt lat="50.617030" lon="6.429641">
        <ele>489.400000</ele>
        <time>2009-06-14T17:32:42Z</time>
      </trkpt>
      <trkpt lat="50.617039" lon="6.429847">
        <ele>489.400000</ele>
        <time>2009-06-14T17:32:47Z</time>
      </trkpt>
      <trkpt lat="50.617054" lon="6.430046">
        <ele>488.500000</ele>
        <time>2009-06-14T17:32:52Z</time>
      </trkpt>
      <trkpt lat="50.617071" lon="6.430221">
        <ele>488.500000</ele>
        <time>2009-06-14T17:32:57Z</time>
      </trkpt>
      <trkpt lat="50.617085" lon="6.430377">
        <ele>488.000000</ele>
        <time>2009-06-14T17:33:01Z</time>
      </trkpt>
      <trkpt lat="50.617096" lon="6.430528">
        <ele>489.000000</ele>
        <time>2009-06-14T17:33:05Z</time>
      </trkpt>
      <trkpt lat="50.617105" lon="6.430675">
        <ele>488.000000</ele>
        <time>2009-06-14T17:33:08Z</time>
      </trkpt>
      <trkpt lat="50.617118" lon="6.430856">
        <ele>488.000000</ele>
        <time>2009-06-14T17:33:13Z</time>
      </trkpt>
      <trkpt lat="50.617127" lon="6.430983">
        <ele>488.000000</ele>
        <time>2009-06-14T17:33:16Z</time>
      </trkpt>
      <trkpt lat="50.617141" lon="6.431145">
        <ele>489.900000</ele>
        <time>2009-06-14T17:33:20Z</time>
      </trkpt>
      <trkpt lat="50.617153" lon="6.431312">
        <ele>488.000000</ele>
        <time>2009-06-14T17:33:25Z</time>
      </trkpt>
      <trkpt lat="50.617158" lon="6.431425">
        <ele>488.000000</ele>
        <time>2009-06-14T17:33:28Z</time>
      </trkpt>
      <trkpt lat="50.617170" lon="6.431598">
        <ele>489.000000</ele>
        <time>2009-06-14T17:33:32Z</time>
      </trkpt>
      <trkpt lat="50.617165" lon="6.431803">
        <ele>490.400000</ele>
        <time>2009-06-14T17:33:37Z</time>
      </trkpt>
      <trkpt lat="50.617171" lon="6.431932">
        <ele>496.700000</ele>
        <time>2009-06-14T17:33:40Z</time>
      </trkpt>
      <trkpt lat="50.617127" lon="6.432168">
        <ele>494.700000</ele>
        <time>2009-06-14T17:33:47Z</time>
      </trkpt>
      <trkpt lat="50.617104" lon="6.432303">
        <ele>495.200000</ele>
        <time>2009-06-14T17:33:50Z</time>
      </trkpt>
      <trkpt lat="50.617076" lon="6.432453">
        <ele>499.100000</ele>
        <time>2009-06-14T17:33:54Z</time>
      </trkpt>
      <trkpt lat="50.617044" lon="6.432619">
        <ele>501.900000</ele>
        <time>2009-06-14T17:33:59Z</time>
      </trkpt>
      <trkpt lat="50.617023" lon="6.432757">
        <ele>502.400000</ele>
        <time>2009-06-14T17:34:02Z</time>
      </trkpt>
      <trkpt lat="50.617003" lon="6.432882">
        <ele>502.400000</ele>
        <time>2009-06-14T17:34:06Z</time>
      </trkpt>
      <trkpt lat="50.616982" lon="6.432999">
        <ele>500.500000</ele>
        <time>2009-06-14T17:34:09Z</time>
      </trkpt>
      <trkpt lat="50.616956" lon="6.433122">
        <ele>499.100000</ele>
        <time>2009-06-14T17:34:12Z</time>
      </trkpt>
      <trkpt lat="50.616863" lon="6.433369">
        <ele>502.400000</ele>
        <time>2009-06-14T17:34:19Z</time>
      </trkpt>
      <trkpt lat="50.616800" lon="6.433513">
        <ele>506.800000</ele>
        <time>2009-06-14T17:34:24Z</time>
      </trkpt>
      <trkpt lat="50.616756" lon="6.433693">
        <ele>505.300000</ele>
        <time>2009-06-14T17:34:29Z</time>
      </trkpt>
      <trkpt lat="50.616705" lon="6.433911">
        <ele>505.300000</ele>
        <time>2009-06-14T17:34:34Z</time>
      </trkpt>
      <trkpt lat="50.616666" lon="6.434093">
        <ele>505.300000</ele>
        <time>2009-06-14T17:34:39Z</time>
      </trkpt>
      <trkpt lat="50.616657" lon="6.434205">
        <ele>504.800000</ele>
        <time>2009-06-14T17:34:42Z</time>
      </trkpt>
      <trkpt lat="50.616619" lon="6.434319">
        <ele>505.800000</ele>
        <time>2009-06-14T17:34:45Z</time>
      </trkpt>
      <trkpt lat="50.616551" lon="6.434458">
        <ele>508.200000</ele>
        <time>2009-06-14T17:34:50Z</time>
      </trkpt>
      <trkpt lat="50.616502" lon="6.434573">
        <ele>510.100000</ele>
        <time>2009-06-14T17:34:53Z</time>
      </trkpt>
      <trkpt lat="50.616509" lon="6.434653">
        <ele>508.200000</ele>
        <time>2009-06-14T17:34:55Z</time>
      </trkpt>
      <trkpt lat="50.616498" lon="6.434788">
        <ele>507.200000</ele>
        <time>2009-06-14T17:34:59Z</time>
      </trkpt>
      <trkpt lat="50.616469" lon="6.434959">
        <ele>504.800000</ele>
        <time>2009-06-14T17:35:03Z</time>
      </trkpt>
      <trkpt lat="50.616434" lon="6.435087">
        <ele>504.300000</ele>
        <time>2009-06-14T17:35:07Z</time>
      </trkpt>
      <trkpt lat="50.616388" lon="6.435247">
        <ele>504.800000</ele>
        <time>2009-06-14T17:35:11Z</time>
      </trkpt>
      <trkpt lat="50.616382" lon="6.435344">
        <ele>506.300000</ele>
        <time>2009-06-14T17:35:14Z</time>
      </trkpt>
      <trkpt lat="50.616335" lon="6.435563">
        <ele>506.300000</ele>
        <time>2009-06-14T17:35:20Z</time>
      </trkpt>
      <trkpt lat="50.616284" lon="6.435706">
        <ele>507.700000</ele>
        <time>2009-06-14T17:35:24Z</time>
      </trkpt>
      <trkpt lat="50.616248" lon="6.435870">
        <ele>508.200000</ele>
        <time>2009-06-14T17:35:28Z</time>
      </trkpt>
      <trkpt lat="50.616230" lon="6.436011">
        <ele>508.200000</ele>
        <time>2009-06-14T17:35:32Z</time>
      </trkpt>
      <trkpt lat="50.616207" lon="6.436159">
        <ele>512.500000</ele>
        <time>2009-06-14T17:35:36Z</time>
      </trkpt>
      <trkpt lat="50.616180" lon="6.436291">
        <ele>514.000000</ele>
        <time>2009-06-14T17:35:39Z</time>
      </trkpt>
      <trkpt lat="50.616132" lon="6.436452">
        <ele>516.400000</ele>
        <time>2009-06-14T17:35:44Z</time>
      </trkpt>
      <trkpt lat="50.616098" lon="6.436566">
        <ele>514.900000</ele>
        <time>2009-06-14T17:35:47Z</time>
      </trkpt>
      <trkpt lat="50.616058" lon="6.436698">
        <ele>513.500000</ele>
        <time>2009-06-14T17:35:51Z</time>
      </trkpt>
      <trkpt lat="50.616030" lon="6.436789">
        <ele>512.500000</ele>
        <time>2009-06-14T17:35:53Z</time>
      </trkpt>
      <trkpt lat="50.615995" lon="6.436919">
        <ele>509.200000</ele>
        <time>2009-06-14T17:35:57Z</time>
      </trkpt>
      <trkpt lat="50.615953" lon="6.437049">
        <ele>507.700000</ele>
        <time>2009-06-14T17:36:01Z</time>
      </trkpt>
      <trkpt lat="50.615895" lon="6.437223">
        <ele>505.800000</ele>
        <time>2009-06-14T17:36:06Z</time>
      </trkpt>
      <trkpt lat="50.615861" lon="6.437379">
        <ele>504.300000</ele>
        <time>2009-06-14T17:36:10Z</time>
      </trkpt>
      <trkpt lat="50.615821" lon="6.437574">
        <ele>505.300000</ele>
        <time>2009-06-14T17:36:15Z</time>
      </trkpt>
      <trkpt lat="50.615763" lon="6.437753">
        <ele>503.900000</ele>
        <time>2009-06-14T17:36:20Z</time>
      </trkpt>
      <trkpt lat="50.615719" lon="6.437882">
        <ele>504.300000</ele>
        <time>2009-06-14T17:36:24Z</time>
      </trkpt>
      <trkpt lat="50.615707" lon="6.437913">
        <ele>503.900000</ele>
        <time>2009-06-14T17:36:25Z</time>
      </trkpt>
      <trkpt lat="50.615682" lon="6.438061">
        <ele>505.300000</ele>
        <time>2009-06-14T17:36:29Z</time>
      </trkpt>
      <trkpt lat="50.615646" lon="6.438213">
        <ele>505.300000</ele>
        <time>2009-06-14T17:36:33Z</time>
      </trkpt>
      <trkpt lat="50.615616" lon="6.438318">
        <ele>503.400000</ele>
        <time>2009-06-14T17:36:36Z</time>
      </trkpt>
      <trkpt lat="50.615563" lon="6.438493">
        <ele>501.900000</ele>
        <time>2009-06-14T17:36:41Z</time>
      </trkpt>
      <trkpt lat="50.615539" lon="6.438572">
        <ele>502.900000</ele>
        <time>2009-06-14T17:36:43Z</time>
      </trkpt>
      <trkpt lat="50.615508" lon="6.438738">
        <ele>503.400000</ele>
        <time>2009-06-14T17:36:47Z</time>
      </trkpt>
      <trkpt lat="50.615483" lon="6.438882">
        <ele>500.500000</ele>
        <time>2009-06-14T17:36:51Z</time>
      </trkpt>
      <trkpt lat="50.615478" lon="6.438943">
        <ele>499.500000</ele>
        <time>2009-06-14T17:36:53Z</time>
      </trkpt>
      <trkpt lat="50.615465" lon="6.439083">
        <ele>497.600000</ele>
        <time>2009-06-14T17:36:56Z</time>
      </trkpt>
      <trkpt lat="50.615437" lon="6.439193">
        <ele>497.100000</ele>
        <time>2009-06-14T17:36:59Z</time>
      </trkpt>
      <trkpt lat="50.615431" lon="6.439216">
        <ele>497.100000</ele>
        <time>2009-06-14T17:37:00Z</time>
      </trkpt>
      <trkpt lat="50.615385" lon="6.439390">
        <ele>497.100000</ele>
        <time>2009-06-14T17:37:05Z</time>
      </trkpt>
      <trkpt lat="50.615340" lon="6.439524">
        <ele>498.100000</ele>
        <time>2009-06-14T17:37:09Z</time>
      </trkpt>
      <trkpt lat="50.615300" lon="6.439696">
        <ele>498.600000</ele>
        <time>2009-06-14T17:37:13Z</time>
      </trkpt>
      <trkpt lat="50.615288" lon="6.439817">
        <ele>499.500000</ele>
        <time>2009-06-14T17:37:16Z</time>
      </trkpt>
      <trkpt lat="50.615272" lon="6.439903">
        <ele>499.500000</ele>
        <time>2009-06-14T17:37:19Z</time>
      </trkpt>
      <trkpt lat="50.615260" lon="6.440063">
        <ele>497.100000</ele>
        <time>2009-06-14T17:37:23Z</time>
      </trkpt>
      <trkpt lat="50.615261" lon="6.440088">
        <ele>497.600000</ele>
        <time>2009-06-14T17:37:23Z</time>
      </trkpt>
      <trkpt lat="50.615243" lon="6.440188">
        <ele>496.700000</ele>
        <time>2009-06-14T17:37:26Z</time>
      </trkpt>
      <trkpt lat="50.615239" lon="6.440350">
        <ele>495.700000</ele>
        <time>2009-06-14T17:37:30Z</time>
      </trkpt>
      <trkpt lat="50.615220" lon="6.440545">
        <ele>496.200000</ele>
        <time>2009-06-14T17:37:35Z</time>
      </trkpt>
      <trkpt lat="50.615188" lon="6.440798">
        <ele>496.700000</ele>
        <time>2009-06-14T17:37:42Z</time>
      </trkpt>
      <trkpt lat="50.615168" lon="6.440960">
        <ele>497.100000</ele>
        <time>2009-06-14T17:37:46Z</time>
      </trkpt>
      <trkpt lat="50.615162" lon="6.441176">
        <ele>501.000000</ele>
        <time>2009-06-14T17:37:51Z</time>
      </trkpt>
      <trkpt lat="50.615158" lon="6.441221">
        <ele>501.000000</ele>
        <time>2009-06-14T17:37:52Z</time>
      </trkpt>
      <trkpt lat="50.615173" lon="6.441305">
        <ele>500.000000</ele>
        <time>2009-06-14T17:37:55Z</time>
      </trkpt>
      <trkpt lat="50.615191" lon="6.441361">
        <ele>501.000000</ele>
        <time>2009-06-14T17:37:56Z</time>
      </trkpt>
      <trkpt lat="50.615245" lon="6.441461">
        <ele>503.400000</ele>
        <time>2009-06-14T17:38:00Z</time>
      </trkpt>
      <trkpt lat="50.615306" lon="6.441580">
        <ele>503.400000</ele>
        <time>2009-06-14T17:38:03Z</time>
      </trkpt>
      <trkpt lat="50.615317" lon="6.441604">
        <ele>503.900000</ele>
        <time>2009-06-14T17:38:04Z</time>
      </trkpt>
      <trkpt lat="50.615324" lon="6.441637">
        <ele>503.400000</ele>
        <time>2009-06-14T17:38:05Z</time>
      </trkpt>
      <trkpt lat="50.615405" lon="6.441710">
        <ele>504.300000</ele>
        <time>2009-06-14T17:38:09Z</time>
      </trkpt>
      <trkpt lat="50.615411" lon="6.441809">
        <ele>502.400000</ele>
        <time>2009-06-14T17:38:11Z</time>
      </trkpt>
      <trkpt lat="50.615429" lon="6.441857">
        <ele>501.900000</ele>
        <time>2009-06-14T17:38:13Z</time>
      </trkpt>
      <trkpt lat="50.615468" lon="6.441960">
        <ele>499.500000</ele>
        <time>2009-06-14T17:38:16Z</time>
      </trkpt>
      <trkpt lat="50.615492" lon="6.442010">
        <ele>499.100000</ele>
        <time>2009-06-14T17:38:17Z</time>
      </trkpt>
      <trkpt lat="50.615520" lon="6.442090">
        <ele>498.100000</ele>
        <time>2009-06-14T17:38:20Z</time>
      </trkpt>
      <trkpt lat="50.615525" lon="6.442107">
        <ele>497.600000</ele>
        <time>2009-06-14T17:38:20Z</time>
      </trkpt>
      <trkpt lat="50.615594" lon="6.442265">
        <ele>498.600000</ele>
        <time>2009-06-14T17:38:25Z</time>
      </trkpt>
      <trkpt lat="50.615634" lon="6.442382">
        <ele>500.000000</ele>
        <time>2009-06-14T17:38:28Z</time>
      </trkpt>
      <trkpt lat="50.615640" lon="6.442398">
        <ele>500.500000</ele>
        <time>2009-06-14T17:38:29Z</time>
      </trkpt>
      <trkpt lat="50.615734" lon="6.442517">
        <ele>503.900000</ele>
        <time>2009-06-14T17:38:34Z</time>
      </trkpt>
      <trkpt lat="50.615762" lon="6.442583">
        <ele>503.400000</ele>
        <time>2009-06-14T17:38:36Z</time>
      </trkpt>
      <trkpt lat="50.615819" lon="6.442691">
        <ele>502.900000</ele>
        <time>2009-06-14T17:38:39Z</time>
      </trkpt>
      <trkpt lat="50.615831" lon="6.442704">
        <ele>502.400000</ele>
        <time>2009-06-14T17:38:40Z</time>
      </trkpt>
      <trkpt lat="50.615908" lon="6.442795">
        <ele>499.500000</ele>
        <time>2009-06-14T17:38:44Z</time>
      </trkpt>
      <trkpt lat="50.615946" lon="6.442936">
        <ele>501.000000</ele>
        <time>2009-06-14T17:38:48Z</time>
      </trkpt>
      <trkpt lat="50.615956" lon="6.442949">
        <ele>501.000000</ele>
        <time>2009-06-14T17:38:48Z</time>
      </trkpt>
      <trkpt lat="50.615977" lon="6.442967">
        <ele>499.500000</ele>
        <time>2009-06-14T17:38:49Z</time>
      </trkpt>
      <trkpt lat="50.616032" lon="6.443045">
        <ele>500.000000</ele>
        <time>2009-06-14T17:38:52Z</time>
      </trkpt>
      <trkpt lat="50.616122" lon="6.443166">
        <ele>507.700000</ele>
        <time>2009-06-14T17:38:57Z</time>
      </trkpt>
      <trkpt lat="50.616151" lon="6.443251">
        <ele>506.300000</ele>
        <time>2009-06-14T17:38:59Z</time>
      </trkpt>
      <trkpt lat="50.616184" lon="6.443303">
        <ele>505.800000</ele>
        <time>2009-06-14T17:39:01Z</time>
      </trkpt>
      <trkpt lat="50.616249" lon="6.443400">
        <ele>502.400000</ele>
        <time>2009-06-14T17:39:05Z</time>
      </trkpt>
      <trkpt lat="50.616280" lon="6.443450">
        <ele>500.500000</ele>
        <time>2009-06-14T17:39:07Z</time>
      </trkpt>
      <trkpt lat="50.616349" lon="6.443583">
        <ele>496.200000</ele>
        <time>2009-06-14T17:39:11Z</time>
      </trkpt>
      <trkpt lat="50.616386" lon="6.443652">
        <ele>494.300000</ele>
        <time>2009-06-14T17:39:13Z</time>
      </trkpt>
      <trkpt lat="50.616447" lon="6.443793">
        <ele>492.300000</ele>
        <time>2009-06-14T17:39:18Z</time>
      </trkpt>
      <trkpt lat="50.616465" lon="6.443825">
        <ele>492.800000</ele>
        <time>2009-06-14T17:39:19Z</time>
      </trkpt>
      <trkpt lat="50.616526" lon="6.443942">
        <ele>490.400000</ele>
        <time>2009-06-14T17:39:22Z</time>
      </trkpt>
      <trkpt lat="50.616585" lon="6.444056">
        <ele>490.900000</ele>
        <time>2009-06-14T17:39:26Z</time>
      </trkpt>
      <trkpt lat="50.616653" lon="6.444159">
        <ele>491.400000</ele>
        <time>2009-06-14T17:39:30Z</time>
      </trkpt>
      <trkpt lat="50.616684" lon="6.444244">
        <ele>489.900000</ele>
        <time>2009-06-14T17:39:32Z</time>
      </trkpt>
      <trkpt lat="50.616719" lon="6.444326">
        <ele>488.000000</ele>
        <time>2009-06-14T17:39:35Z</time>
      </trkpt>
      <trkpt lat="50.616816" lon="6.444503">
        <ele>490.900000</ele>
        <time>2009-06-14T17:39:41Z</time>
      </trkpt>
      <trkpt lat="50.616890" lon="6.444605">
        <ele>495.200000</ele>
        <time>2009-06-14T17:39:45Z</time>
      </trkpt>
      <trkpt lat="50.616916" lon="6.444625">
        <ele>496.200000</ele>
        <time>2009-06-14T17:39:46Z</time>
      </trkpt>
      <trkpt lat="50.616949" lon="6.444698">
        <ele>496.700000</ele>
        <time>2009-06-14T17:39:48Z</time>
      </trkpt>
      <trkpt lat="50.617004" lon="6.444795">
        <ele>494.300000</ele>
        <time>2009-06-14T17:39:52Z</time>
      </trkpt>
      <trkpt lat="50.617057" lon="6.444886">
        <ele>492.300000</ele>
        <time>2009-06-14T17:39:55Z</time>
      </trkpt>
      <trkpt lat="50.617104" lon="6.444997">
        <ele>489.900000</ele>
        <time>2009-06-14T17:39:58Z</time>
      </trkpt>
      <trkpt lat="50.617194" lon="6.445079">
        <ele>489.000000</ele>
        <time>2009-06-14T17:40:02Z</time>
      </trkpt>
      <trkpt lat="50.617264" lon="6.445227">
        <ele>492.300000</ele>
        <time>2009-06-14T17:40:07Z</time>
      </trkpt>
      <trkpt lat="50.617291" lon="6.445296">
        <ele>493.300000</ele>
        <time>2009-06-14T17:40:09Z</time>
      </trkpt>
      <trkpt lat="50.617336" lon="6.445391">
        <ele>493.300000</ele>
        <time>2009-06-14T17:40:12Z</time>
      </trkpt>
      <trkpt lat="50.617383" lon="6.445498">
        <ele>492.800000</ele>
        <time>2009-06-14T17:40:15Z</time>
      </trkpt>
      <trkpt lat="50.617415" lon="6.445598">
        <ele>493.300000</ele>
        <time>2009-06-14T17:40:18Z</time>
      </trkpt>
      <trkpt lat="50.617465" lon="6.445739">
        <ele>492.800000</ele>
        <time>2009-06-14T17:40:22Z</time>
      </trkpt>
      <trkpt lat="50.617509" lon="6.445805">
        <ele>494.700000</ele>
        <time>2009-06-14T17:40:25Z</time>
      </trkpt>
      <trkpt lat="50.617570" lon="6.445906">
        <ele>492.800000</ele>
        <time>2009-06-14T17:40:28Z</time>
      </trkpt>
      <trkpt lat="50.617641" lon="6.446017">
        <ele>491.900000</ele>
        <time>2009-06-14T17:40:32Z</time>
      </trkpt>
      <trkpt lat="50.617672" lon="6.446156">
        <ele>491.400000</ele>
        <time>2009-06-14T17:40:36Z</time>
      </trkpt>
      <trkpt lat="50.617691" lon="6.446247">
        <ele>491.900000</ele>
        <time>2009-06-14T17:40:38Z</time>
      </trkpt>
      <trkpt lat="50.617730" lon="6.446364">
        <ele>492.300000</ele>
        <time>2009-06-14T17:40:42Z</time>
      </trkpt>
      <trkpt lat="50.617755" lon="6.446426">
        <ele>493.800000</ele>
        <time>2009-06-14T17:40:44Z</time>
      </trkpt>
      <trkpt lat="50.617788" lon="6.446478">
        <ele>496.200000</ele>
        <time>2009-06-14T17:40:46Z</time>
      </trkpt>
      <trkpt lat="50.617860" lon="6.446565">
        <ele>494.300000</ele>
        <time>2009-06-14T17:40:49Z</time>
      </trkpt>
      <trkpt lat="50.617859" lon="6.446591">
        <ele>494.300000</ele>
        <time>2009-06-14T17:40:50Z</time>
      </trkpt>
      <trkpt lat="50.617905" lon="6.446719">
        <ele>491.400000</ele>
        <time>2009-06-14T17:40:54Z</time>
      </trkpt>
      <trkpt lat="50.617929" lon="6.446779">
        <ele>491.900000</ele>
        <time>2009-06-14T17:40:55Z</time>
      </trkpt>
      <trkpt lat="50.618009" lon="6.446895">
        <ele>489.000000</ele>
        <time>2009-06-14T17:41:00Z</time>
      </trkpt>
      <trkpt lat="50.618101" lon="6.446976">
        <ele>487.500000</ele>
        <time>2009-06-14T17:41:04Z</time>
      </trkpt>
      <trkpt lat="50.618124" lon="6.446989">
        <ele>487.000000</ele>
        <time>2009-06-14T17:41:05Z</time>
      </trkpt>
      <trkpt lat="50.618196" lon="6.447077">
        <ele>485.600000</ele>
        <time>2009-06-14T17:41:09Z</time>
      </trkpt>
      <trkpt lat="50.618266" lon="6.447219">
        <ele>485.600000</ele>
        <time>2009-06-14T17:41:13Z</time>
      </trkpt>
      <trkpt lat="50.618277" lon="6.447258">
        <ele>485.100000</ele>
        <time>2009-06-14T17:41:14Z</time>
      </trkpt>
      <trkpt lat="50.618263" lon="6.447275">
        <ele>484.600000</ele>
        <time>2009-06-14T17:41:15Z</time>
      </trkpt>
      <trkpt lat="50.618346" lon="6.447357">
        <ele>488.500000</ele>
        <time>2009-06-14T17:41:19Z</time>
      </trkpt>
      <trkpt lat="50.618378" lon="6.447388">
        <ele>492.300000</ele>
        <time>2009-06-14T17:41:20Z</time>
      </trkpt>
      <trkpt lat="50.618417" lon="6.447516">
        <ele>494.700000</ele>
        <time>2009-06-14T17:41:24Z</time>
      </trkpt>
      <trkpt lat="50.618471" lon="6.447561">
        <ele>495.200000</ele>
        <time>2009-06-14T17:41:26Z</time>
      </trkpt>
      <trkpt lat="50.618545" lon="6.447630">
        <ele>494.700000</ele>
        <time>2009-06-14T17:41:30Z</time>
      </trkpt>
      <trkpt lat="50.618603" lon="6.447690">
        <ele>495.200000</ele>
        <time>2009-06-14T17:41:33Z</time>
      </trkpt>
      <trkpt lat="50.618667" lon="6.447762">
        <ele>493.300000</ele>
        <time>2009-06-14T17:41:36Z</time>
      </trkpt>
      <trkpt lat="50.618730" lon="6.447861">
        <ele>492.300000</ele>
        <time>2009-06-14T17:41:39Z</time>
      </trkpt>
      <trkpt lat="50.618740" lon="6.448010">
        <ele>488.500000</ele>
        <time>2009-06-14T17:41:43Z</time>
      </trkpt>
      <trkpt lat="50.618741" lon="6.448092">
        <ele>486.600000</ele>
        <time>2009-06-14T17:41:45Z</time>
      </trkpt>
      <trkpt lat="50.618730" lon="6.448226">
        <ele>485.100000</ele>
        <time>2009-06-14T17:41:49Z</time>
      </trkpt>
      <trkpt lat="50.618730" lon="6.448318">
        <ele>483.700000</ele>
        <time>2009-06-14T17:41:51Z</time>
      </trkpt>
      <trkpt lat="50.618728" lon="6.448337">
        <ele>483.200000</ele>
        <time>2009-06-14T17:41:51Z</time>
      </trkpt>
      <trkpt lat="50.618732" lon="6.448467">
        <ele>487.500000</ele>
        <time>2009-06-14T17:41:55Z</time>
      </trkpt>
      <trkpt lat="50.618743" lon="6.448592">
        <ele>489.900000</ele>
        <time>2009-06-14T17:41:58Z</time>
      </trkpt>
      <trkpt lat="50.618731" lon="6.448714">
        <ele>491.400000</ele>
        <time>2009-06-14T17:42:01Z</time>
      </trkpt>
      <trkpt lat="50.618714" lon="6.448862">
        <ele>493.800000</ele>
        <time>2009-06-14T17:42:05Z</time>
      </trkpt>
      <trkpt lat="50.618708" lon="6.448883">
        <ele>493.300000</ele>
        <time>2009-06-14T17:42:06Z</time>
      </trkpt>
      <trkpt lat="50.618685" lon="6.449032">
        <ele>495.200000</ele>
        <time>2009-06-14T17:42:09Z</time>
      </trkpt>
      <trkpt lat="50.618673" lon="6.449092">
        <ele>493.300000</ele>
        <time>2009-06-14T17:42:11Z</time>
      </trkpt>
      <trkpt lat="50.618665" lon="6.449189">
        <ele>492.800000</ele>
        <time>2009-06-14T17:42:14Z</time>
      </trkpt>
      <trkpt lat="50.618657" lon="6.449283">
        <ele>495.200000</ele>
        <time>2009-06-14T17:42:16Z</time>
      </trkpt>
      <trkpt lat="50.618640" lon="6.449335">
        <ele>494.700000</ele>
        <time>2009-06-14T17:42:17Z</time>
      </trkpt>
      <trkpt lat="50.618577" lon="6.449605">
        <ele>492.300000</ele>
        <time>2009-06-14T17:42:25Z</time>
      </trkpt>
      <trkpt lat="50.618567" lon="6.449725">
        <ele>491.400000</ele>
        <time>2009-06-14T17:42:28Z</time>
      </trkpt>
      <trkpt lat="50.618563" lon="6.449832">
        <ele>491.900000</ele>
        <time>2009-06-14T17:42:31Z</time>
      </trkpt>
      <trkpt lat="50.618534" lon="6.449961">
        <ele>492.300000</ele>
        <time>2009-06-14T17:42:34Z</time>
      </trkpt>
      <trkpt lat="50.618470" lon="6.450152">
        <ele>500.000000</ele>
        <time>2009-06-14T17:42:39Z</time>
      </trkpt>
      <trkpt lat="50.618407" lon="6.450089">
        <ele>503.400000</ele>
        <time>2009-06-14T17:42:42Z</time>
      </trkpt>
      <trkpt lat="50.618381" lon="6.450162">
        <ele>500.000000</ele>
        <time>2009-06-14T17:42:45Z</time>
      </trkpt>
      <trkpt lat="50.618339" lon="6.450256">
        <ele>500.000000</ele>
        <time>2009-06-14T17:42:48Z</time>
      </trkpt>
      <trkpt lat="50.618254" lon="6.450397">
        <ele>504.300000</ele>
        <time>2009-06-14T17:42:52Z</time>
      </trkpt>
      <trkpt lat="50.618188" lon="6.450473">
        <ele>505.300000</ele>
        <time>2009-06-14T17:42:56Z</time>
      </trkpt>
      <trkpt lat="50.618145" lon="6.450426">
        <ele>499.500000</ele>
        <time>2009-06-14T17:42:58Z</time>
      </trkpt>
      <trkpt lat="50.618128" lon="6.450412">
        <ele>497.600000</ele>
        <time>2009-06-14T17:42:59Z</time>
      </trkpt>
      <trkpt lat="50.618092" lon="6.450396">
        <ele>496.700000</ele>
        <time>2009-06-14T17:43:00Z</time>
      </trkpt>
      <trkpt lat="50.618028" lon="6.450425">
        <ele>498.100000</ele>
        <time>2009-06-14T17:43:03Z</time>
      </trkpt>
      <trkpt lat="50.617968" lon="6.450398">
        <ele>499.100000</ele>
        <time>2009-06-14T17:43:05Z</time>
      </trkpt>
      <trkpt lat="50.617884" lon="6.450296">
        <ele>492.300000</ele>
        <time>2009-06-14T17:43:09Z</time>
      </trkpt>
      <trkpt lat="50.617792" lon="6.450284">
        <ele>489.400000</ele>
        <time>2009-06-14T17:43:13Z</time>
      </trkpt>
      <trkpt lat="50.617688" lon="6.450304">
        <ele>487.500000</ele>
        <time>2009-06-14T17:43:17Z</time>
      </trkpt>
      <trkpt lat="50.617585" lon="6.450355">
        <ele>490.400000</ele>
        <time>2009-06-14T17:43:22Z</time>
      </trkpt>
      <trkpt lat="50.617496" lon="6.450397">
        <ele>496.700000</ele>
        <time>2009-06-14T17:43:25Z</time>
      </trkpt>
      <trkpt lat="50.617442" lon="6.450444">
        <ele>504.300000</ele>
        <time>2009-06-14T17:43:28Z</time>
      </trkpt>
      <trkpt lat="50.617381" lon="6.450542">
        <ele>504.800000</ele>
        <time>2009-06-14T17:43:31Z</time>
      </trkpt>
      <trkpt lat="50.617302" lon="6.450610">
        <ele>508.200000</ele>
        <time>2009-06-14T17:43:35Z</time>
      </trkpt>
      <trkpt lat="50.617228" lon="6.450625">
        <ele>502.900000</ele>
        <time>2009-06-14T17:43:38Z</time>
      </trkpt>
      <trkpt lat="50.617192" lon="6.450653">
        <ele>504.300000</ele>
        <time>2009-06-14T17:43:40Z</time>
      </trkpt>
      <trkpt lat="50.617118" lon="6.450736">
        <ele>506.800000</ele>
        <time>2009-06-14T17:43:43Z</time>
      </trkpt>
      <trkpt lat="50.617066" lon="6.450778">
        <ele>506.800000</ele>
        <time>2009-06-14T17:43:46Z</time>
      </trkpt>
      <trkpt lat="50.616953" lon="6.450847">
        <ele>506.300000</ele>
        <time>2009-06-14T17:43:50Z</time>
      </trkpt>
      <trkpt lat="50.616895" lon="6.450861">
        <ele>505.800000</ele>
        <time>2009-06-14T17:43:53Z</time>
      </trkpt>
      <trkpt lat="50.616840" lon="6.450864">
        <ele>503.400000</ele>
        <time>2009-06-14T17:43:55Z</time>
      </trkpt>
      <trkpt lat="50.616784" lon="6.450887">
        <ele>502.900000</ele>
        <time>2009-06-14T17:43:57Z</time>
      </trkpt>
      <trkpt lat="50.616694" lon="6.450868">
        <ele>498.600000</ele>
        <time>2009-06-14T17:44:01Z</time>
      </trkpt>
      <trkpt lat="50.616624" lon="6.450825">
        <ele>494.300000</ele>
        <time>2009-06-14T17:44:04Z</time>
      </trkpt>
      <trkpt lat="50.616566" lon="6.450793">
        <ele>492.300000</ele>
        <time>2009-06-14T17:44:06Z</time>
      </trkpt>
      <trkpt lat="50.616536" lon="6.450783">
        <ele>492.300000</ele>
        <time>2009-06-14T17:44:08Z</time>
      </trkpt>
      <trkpt lat="50.616504" lon="6.450770">
        <ele>493.300000</ele>
        <time>2009-06-14T17:44:09Z</time>
      </trkpt>
      <trkpt lat="50.616407" lon="6.450755">
        <ele>497.100000</ele>
        <time>2009-06-14T17:44:13Z</time>
      </trkpt>
      <trkpt lat="50.616328" lon="6.450742">
        <ele>497.600000</ele>
        <time>2009-06-14T17:44:16Z</time>
      </trkpt>
      <trkpt lat="50.616255" lon="6.450737">
        <ele>496.700000</ele>
        <time>2009-06-14T17:44:19Z</time>
      </trkpt>
      <trkpt lat="50.616213" lon="6.450752">
        <ele>496.200000</ele>
        <time>2009-06-14T17:44:21Z</time>
      </trkpt>
      <trkpt lat="50.616174" lon="6.450764">
        <ele>496.700000</ele>
        <time>2009-06-14T17:44:22Z</time>
      </trkpt>
      <trkpt lat="50.616065" lon="6.450783">
        <ele>496.700000</ele>
        <time>2009-06-14T17:44:27Z</time>
      </trkpt>
      <trkpt lat="50.616049" lon="6.450790">
        <ele>497.100000</ele>
        <time>2009-06-14T17:44:27Z</time>
      </trkpt>
      <trkpt lat="50.616004" lon="6.450817">
        <ele>497.100000</ele>
        <time>2009-06-14T17:44:29Z</time>
      </trkpt>
      <trkpt lat="50.615923" lon="6.450903">
        <ele>499.500000</ele>
        <time>2009-06-14T17:44:33Z</time>
      </trkpt>
      <trkpt lat="50.615824" lon="6.450997">
        <ele>504.300000</ele>
        <time>2009-06-14T17:44:38Z</time>
      </trkpt>
      <trkpt lat="50.615774" lon="6.450988">
        <ele>502.900000</ele>
        <time>2009-06-14T17:44:40Z</time>
      </trkpt>
      <trkpt lat="50.615721" lon="6.451044">
        <ele>505.300000</ele>
        <time>2009-06-14T17:44:42Z</time>
      </trkpt>
      <trkpt lat="50.615638" lon="6.451142">
        <ele>508.200000</ele>
        <time>2009-06-14T17:44:46Z</time>
      </trkpt>
      <trkpt lat="50.615565" lon="6.451259">
        <ele>507.200000</ele>
        <time>2009-06-14T17:44:51Z</time>
      </trkpt>
      <trkpt lat="50.615525" lon="6.451304">
        <ele>508.200000</ele>
        <time>2009-06-14T17:44:53Z</time>
      </trkpt>
      <trkpt lat="50.615436" lon="6.451325">
        <ele>507.200000</ele>
        <time>2009-06-14T17:44:56Z</time>
      </trkpt>
      <trkpt lat="50.615382" lon="6.451325">
        <ele>505.800000</ele>
        <time>2009-06-14T17:44:58Z</time>
      </trkpt>
      <trkpt lat="50.615406" lon="6.451277">
        <ele>501.900000</ele>
        <time>2009-06-14T17:45:00Z</time>
      </trkpt>
      <trkpt lat="50.615453" lon="6.451241">
        <ele>497.100000</ele>
        <time>2009-06-14T17:45:02Z</time>
      </trkpt>
      <trkpt lat="50.615476" lon="6.451239">
        <ele>494.700000</ele>
        <time>2009-06-14T17:45:03Z</time>
      </trkpt>
      <trkpt lat="50.615439" lon="6.451343">
        <ele>495.200000</ele>
        <time>2009-06-14T17:45:06Z</time>
      </trkpt>
      <trkpt lat="50.615409" lon="6.451398">
        <ele>494.300000</ele>
        <time>2009-06-14T17:45:08Z</time>
      </trkpt>
      <trkpt lat="50.615362" lon="6.451504">
        <ele>492.800000</ele>
        <time>2009-06-14T17:45:11Z</time>
      </trkpt>
      <trkpt lat="50.615307" lon="6.451606">
        <ele>492.300000</ele>
        <time>2009-06-14T17:45:14Z</time>
      </trkpt>
      <trkpt lat="50.615298" lon="6.451618">
        <ele>493.300000</ele>
        <time>2009-06-14T17:45:15Z</time>
      </trkpt>
      <trkpt lat="50.615247" lon="6.451748">
        <ele>495.700000</ele>
        <time>2009-06-14T17:45:19Z</time>
      </trkpt>
      <trkpt lat="50.615208" lon="6.451817">
        <ele>498.100000</ele>
        <time>2009-06-14T17:45:21Z</time>
      </trkpt>
      <trkpt lat="50.615102" lon="6.451982">
        <ele>505.300000</ele>
        <time>2009-06-14T17:45:27Z</time>
      </trkpt>
      <trkpt lat="50.615085" lon="6.452006">
        <ele>506.800000</ele>
        <time>2009-06-14T17:45:28Z</time>
      </trkpt>
      <trkpt lat="50.615044" lon="6.452092">
        <ele>509.600000</ele>
        <time>2009-06-14T17:45:31Z</time>
      </trkpt>
      <trkpt lat="50.615039" lon="6.452107">
        <ele>508.700000</ele>
        <time>2009-06-14T17:45:31Z</time>
      </trkpt>
      <trkpt lat="50.615035" lon="6.452253">
        <ele>508.700000</ele>
        <time>2009-06-14T17:45:35Z</time>
      </trkpt>
      <trkpt lat="50.615037" lon="6.452310">
        <ele>507.200000</ele>
        <time>2009-06-14T17:45:36Z</time>
      </trkpt>
      <trkpt lat="50.615051" lon="6.452381">
        <ele>504.800000</ele>
        <time>2009-06-14T17:45:38Z</time>
      </trkpt>
      <trkpt lat="50.615092" lon="6.452537">
        <ele>488.500000</ele>
        <time>2009-06-14T17:45:43Z</time>
      </trkpt>
      <trkpt lat="50.615111" lon="6.452661">
        <ele>482.200000</ele>
        <time>2009-06-14T17:45:46Z</time>
      </trkpt>
      <trkpt lat="50.615140" lon="6.452726">
        <ele>481.300000</ele>
        <time>2009-06-14T17:45:48Z</time>
      </trkpt>
      <trkpt lat="50.615174" lon="6.452836">
        <ele>479.800000</ele>
        <time>2009-06-14T17:45:51Z</time>
      </trkpt>
      <trkpt lat="50.615195" lon="6.452919">
        <ele>479.800000</ele>
        <time>2009-06-14T17:45:53Z</time>
      </trkpt>
      <trkpt lat="50.615178" lon="6.453138">
        <ele>486.100000</ele>
        <time>2009-06-14T17:45:59Z</time>
      </trkpt>
      <trkpt lat="50.615196" lon="6.453252">
        <ele>487.000000</ele>
        <time>2009-06-14T17:46:02Z</time>
      </trkpt>
      <trkpt lat="50.615253" lon="6.453345">
        <ele>484.600000</ele>
        <time>2009-06-14T17:46:05Z</time>
      </trkpt>
      <trkpt lat="50.615312" lon="6.453456">
        <ele>482.700000</ele>
        <time>2009-06-14T17:46:09Z</time>
      </trkpt>
      <trkpt lat="50.615336" lon="6.453509">
        <ele>481.800000</ele>
        <time>2009-06-14T17:46:10Z</time>
      </trkpt>
      <trkpt lat="50.615339" lon="6.453558">
        <ele>483.200000</ele>
        <time>2009-06-14T17:46:12Z</time>
      </trkpt>
      <trkpt lat="50.615358" lon="6.453688">
        <ele>485.600000</ele>
        <time>2009-06-14T17:46:15Z</time>
      </trkpt>
      <trkpt lat="50.615389" lon="6.453723">
        <ele>484.200000</ele>
        <time>2009-06-14T17:46:17Z</time>
      </trkpt>
      <trkpt lat="50.615413" lon="6.453793">
        <ele>483.200000</ele>
        <time>2009-06-14T17:46:19Z</time>
      </trkpt>
      <trkpt lat="50.615443" lon="6.453884">
        <ele>484.600000</ele>
        <time>2009-06-14T17:46:21Z</time>
      </trkpt>
      <trkpt lat="50.615490" lon="6.454054">
        <ele>486.100000</ele>
        <time>2009-06-14T17:46:26Z</time>
      </trkpt>
      <trkpt lat="50.615499" lon="6.454178">
        <ele>487.500000</ele>
        <time>2009-06-14T17:46:29Z</time>
      </trkpt>
      <trkpt lat="50.615544" lon="6.454313">
        <ele>488.000000</ele>
        <time>2009-06-14T17:46:33Z</time>
      </trkpt>
      <trkpt lat="50.615543" lon="6.454374">
        <ele>489.000000</ele>
        <time>2009-06-14T17:46:35Z</time>
      </trkpt>
      <trkpt lat="50.615604" lon="6.454479">
        <ele>486.600000</ele>
        <time>2009-06-14T17:46:38Z</time>
      </trkpt>
      <trkpt lat="50.615644" lon="6.454524">
        <ele>487.000000</ele>
        <time>2009-06-14T17:46:40Z</time>
      </trkpt>
      <trkpt lat="50.615690" lon="6.454698">
        <ele>488.500000</ele>
        <time>2009-06-14T17:46:45Z</time>
      </trkpt>
      <trkpt lat="50.615722" lon="6.454798">
        <ele>489.900000</ele>
        <time>2009-06-14T17:46:48Z</time>
      </trkpt>
      <trkpt lat="50.615732" lon="6.454809">
        <ele>489.400000</ele>
        <time>2009-06-14T17:46:48Z</time>
      </trkpt>
      <trkpt lat="50.615767" lon="6.454924">
        <ele>485.100000</ele>
        <time>2009-06-14T17:46:51Z</time>
      </trkpt>
      <trkpt lat="50.615782" lon="6.454999">
        <ele>483.700000</ele>
        <time>2009-06-14T17:46:53Z</time>
      </trkpt>
      <trkpt lat="50.615845" lon="6.455122">
        <ele>483.200000</ele>
        <time>2009-06-14T17:46:57Z</time>
      </trkpt>
      <trkpt lat="50.615847" lon="6.455170">
        <ele>482.700000</ele>
        <time>2009-06-14T17:46:59Z</time>
      </trkpt>
      <trkpt lat="50.615859" lon="6.455292">
        <ele>480.300000</ele>
        <time>2009-06-14T17:47:02Z</time>
      </trkpt>
      <trkpt lat="50.615869" lon="6.455372">
        <ele>479.400000</ele>
        <time>2009-06-14T17:47:04Z</time>
      </trkpt>
      <trkpt lat="50.615892" lon="6.455512">
        <ele>480.800000</ele>
        <time>2009-06-14T17:47:08Z</time>
      </trkpt>
      <trkpt lat="50.615886" lon="6.455627">
        <ele>483.700000</ele>
        <time>2009-06-14T17:47:11Z</time>
      </trkpt>
      <trkpt lat="50.615849" lon="6.455762">
        <ele>486.600000</ele>
        <time>2009-06-14T17:47:14Z</time>
      </trkpt>
      <trkpt lat="50.615816" lon="6.455923">
        <ele>489.900000</ele>
        <time>2009-06-14T17:47:19Z</time>
      </trkpt>
      <trkpt lat="50.615816" lon="6.455978">
        <ele>489.900000</ele>
        <time>2009-06-14T17:47:20Z</time>
      </trkpt>
      <trkpt lat="50.615790" lon="6.456129">
        <ele>491.900000</ele>
        <time>2009-06-14T17:47:24Z</time>
      </trkpt>
      <trkpt lat="50.615712" lon="6.456363">
        <ele>495.200000</ele>
        <time>2009-06-14T17:47:31Z</time>
      </trkpt>
      <trkpt lat="50.615649" lon="6.456557">
        <ele>501.500000</ele>
        <time>2009-06-14T17:47:36Z</time>
      </trkpt>
      <trkpt lat="50.615603" lon="6.456671">
        <ele>501.900000</ele>
        <time>2009-06-14T17:47:40Z</time>
      </trkpt>
      <trkpt lat="50.615567" lon="6.456813">
        <ele>506.800000</ele>
        <time>2009-06-14T17:47:43Z</time>
      </trkpt>
      <trkpt lat="50.615515" lon="6.456929">
        <ele>499.100000</ele>
        <time>2009-06-14T17:47:47Z</time>
      </trkpt>
      <trkpt lat="50.615508" lon="6.456933">
        <ele>495.700000</ele>
        <time>2009-06-14T17:47:47Z</time>
      </trkpt>
      <trkpt lat="50.615503" lon="6.456954">
        <ele>495.200000</ele>
        <time>2009-06-14T17:47:48Z</time>
      </trkpt>
      <trkpt lat="50.615494" lon="6.456987">
        <ele>494.300000</ele>
        <time>2009-06-14T17:47:49Z</time>
      </trkpt>
      <trkpt lat="50.615468" lon="6.457121">
        <ele>495.200000</ele>
        <time>2009-06-14T17:47:52Z</time>
      </trkpt>
      <trkpt lat="50.615433" lon="6.457219">
        <ele>491.400000</ele>
        <time>2009-06-14T17:47:55Z</time>
      </trkpt>
      <trkpt lat="50.615391" lon="6.457303">
        <ele>489.900000</ele>
        <time>2009-06-14T17:47:58Z</time>
      </trkpt>
      <trkpt lat="50.615322" lon="6.457479">
        <ele>489.900000</ele>
        <time>2009-06-14T17:48:03Z</time>
      </trkpt>
      <trkpt lat="50.615321" lon="6.457496">
        <ele>489.400000</ele>
        <time>2009-06-14T17:48:04Z</time>
      </trkpt>
      <trkpt lat="50.615300" lon="6.457591">
        <ele>490.900000</ele>
        <time>2009-06-14T17:48:06Z</time>
      </trkpt>
      <trkpt lat="50.615302" lon="6.457681">
        <ele>483.700000</ele>
        <time>2009-06-14T17:48:09Z</time>
      </trkpt>
      <trkpt lat="50.615355" lon="6.457780">
        <ele>483.200000</ele>
        <time>2009-06-14T17:48:12Z</time>
      </trkpt>
      <trkpt lat="50.615388" lon="6.457903">
        <ele>484.200000</ele>
        <time>2009-06-14T17:48:15Z</time>
      </trkpt>
      <trkpt lat="50.615390" lon="6.458029">
        <ele>484.200000</ele>
        <time>2009-06-14T17:48:18Z</time>
      </trkpt>
      <trkpt lat="50.615449" lon="6.458100">
        <ele>483.200000</ele>
        <time>2009-06-14T17:48:21Z</time>
      </trkpt>
      <trkpt lat="50.615470" lon="6.458181">
        <ele>484.600000</ele>
        <time>2009-06-14T17:48:24Z</time>
      </trkpt>
      <trkpt lat="50.615520" lon="6.458252">
        <ele>486.100000</ele>
        <time>2009-06-14T17:48:26Z</time>
      </trkpt>
      <trkpt lat="50.615557" lon="6.458371">
        <ele>487.000000</ele>
        <time>2009-06-14T17:48:30Z</time>
      </trkpt>
      <trkpt lat="50.615580" lon="6.458458">
        <ele>485.100000</ele>
        <time>2009-06-14T17:48:32Z</time>
      </trkpt>
      <trkpt lat="50.615592" lon="6.458606">
        <ele>484.600000</ele>
        <time>2009-06-14T17:48:36Z</time>
      </trkpt>
      <trkpt lat="50.615610" lon="6.458706">
        <ele>484.600000</ele>
        <time>2009-06-14T17:48:38Z</time>
      </trkpt>
      <trkpt lat="50.615633" lon="6.458747">
        <ele>483.700000</ele>
        <time>2009-06-14T17:48:40Z</time>
      </trkpt>
      <trkpt lat="50.615641" lon="6.458771">
        <ele>483.200000</ele>
        <time>2009-06-14T17:48:41Z</time>
      </trkpt>
      <trkpt lat="50.615662" lon="6.458851">
        <ele>487.000000</ele>
        <time>2009-06-14T17:48:43Z</time>
      </trkpt>
      <trkpt lat="50.615660" lon="6.458856">
        <ele>487.000000</ele>
        <time>2009-06-14T17:48:43Z</time>
      </trkpt>
      <trkpt lat="50.615689" lon="6.458914">
        <ele>489.000000</ele>
        <time>2009-06-14T17:48:45Z</time>
      </trkpt>
      <trkpt lat="50.615734" lon="6.458959">
        <ele>489.000000</ele>
        <time>2009-06-14T17:48:47Z</time>
      </trkpt>
      <trkpt lat="50.615762" lon="6.459008">
        <ele>489.900000</ele>
        <time>2009-06-14T17:48:49Z</time>
      </trkpt>
      <trkpt lat="50.615836" lon="6.459062">
        <ele>491.900000</ele>
        <time>2009-06-14T17:48:52Z</time>
      </trkpt>
      <trkpt lat="50.615881" lon="6.459082">
        <ele>492.800000</ele>
        <time>2009-06-14T17:48:54Z</time>
      </trkpt>
      <trkpt lat="50.615930" lon="6.459142">
        <ele>486.600000</ele>
        <time>2009-06-14T17:48:56Z</time>
      </trkpt>
      <trkpt lat="50.615974" lon="6.459190">
        <ele>486.100000</ele>
        <time>2009-06-14T17:48:58Z</time>
      </trkpt>
      <trkpt lat="50.616083" lon="6.459303">
        <ele>485.600000</ele>
        <time>2009-06-14T17:49:04Z</time>
      </trkpt>
      <trkpt lat="50.616151" lon="6.459374">
        <ele>484.600000</ele>
        <time>2009-06-14T17:49:07Z</time>
      </trkpt>
      <trkpt lat="50.616221" lon="6.459430">
        <ele>484.600000</ele>
        <time>2009-06-14T17:49:10Z</time>
      </trkpt>
      <trkpt lat="50.616328" lon="6.459519">
        <ele>486.100000</ele>
        <time>2009-06-14T17:49:15Z</time>
      </trkpt>
      <trkpt lat="50.616379" lon="6.459567">
        <ele>484.200000</ele>
        <time>2009-06-14T17:49:17Z</time>
      </trkpt>
      <trkpt lat="50.616450" lon="6.459650">
        <ele>482.700000</ele>
        <time>2009-06-14T17:49:21Z</time>
      </trkpt>
      <trkpt lat="50.616461" lon="6.459661">
        <ele>482.700000</ele>
        <time>2009-06-14T17:49:21Z</time>
      </trkpt>
      <trkpt lat="50.616516" lon="6.459775">
        <ele>480.800000</ele>
        <time>2009-06-14T17:49:25Z</time>
      </trkpt>
      <trkpt lat="50.616574" lon="6.459921">
        <ele>478.900000</ele>
        <time>2009-06-14T17:49:29Z</time>
      </trkpt>
      <trkpt lat="50.616592" lon="6.460004">
        <ele>477.900000</ele>
        <time>2009-06-14T17:49:32Z</time>
      </trkpt>
      <trkpt lat="50.616622" lon="6.460062">
        <ele>477.900000</ele>
        <time>2009-06-14T17:49:33Z</time>
      </trkpt>
      <trkpt lat="50.616695" lon="6.460192">
        <ele>479.800000</ele>
        <time>2009-06-14T17:49:38Z</time>
      </trkpt>
      <trkpt lat="50.616711" lon="6.460304">
        <ele>479.800000</ele>
        <time>2009-06-14T17:49:41Z</time>
      </trkpt>
      <trkpt lat="50.616716" lon="6.460418">
        <ele>480.300000</ele>
        <time>2009-06-14T17:49:44Z</time>
      </trkpt>
      <trkpt lat="50.616711" lon="6.460563">
        <ele>485.100000</ele>
        <time>2009-06-14T17:49:47Z</time>
      </trkpt>
      <trkpt lat="50.616696" lon="6.460588">
        <ele>485.600000</ele>
        <time>2009-06-14T17:49:48Z</time>
      </trkpt>
      <trkpt lat="50.616705" lon="6.460731">
        <ele>486.100000</ele>
        <time>2009-06-14T17:49:52Z</time>
      </trkpt>
      <trkpt lat="50.616703" lon="6.460931">
        <ele>485.100000</ele>
        <time>2009-06-14T17:49:57Z</time>
      </trkpt>
      <trkpt lat="50.616687" lon="6.461059">
        <ele>483.200000</ele>
        <time>2009-06-14T17:50:00Z</time>
      </trkpt>
      <trkpt lat="50.616686" lon="6.461107">
        <ele>482.700000</ele>
        <time>2009-06-14T17:50:01Z</time>
      </trkpt>
      <trkpt lat="50.616680" lon="6.461193">
        <ele>483.200000</ele>
        <time>2009-06-14T17:50:04Z</time>
      </trkpt>
      <trkpt lat="50.616657" lon="6.461359">
        <ele>484.600000</ele>
        <time>2009-06-14T17:50:08Z</time>
      </trkpt>
      <trkpt lat="50.616646" lon="6.461424">
        <ele>484.200000</ele>
        <time>2009-06-14T17:50:10Z</time>
      </trkpt>
      <trkpt lat="50.616637" lon="6.461495">
        <ele>484.600000</ele>
        <time>2009-06-14T17:50:12Z</time>
      </trkpt>
      <trkpt lat="50.616619" lon="6.461681">
        <ele>486.100000</ele>
        <time>2009-06-14T17:50:16Z</time>
      </trkpt>
      <trkpt lat="50.616605" lon="6.461785">
        <ele>487.500000</ele>
        <time>2009-06-14T17:50:19Z</time>
      </trkpt>
      <trkpt lat="50.616573" lon="6.461921">
        <ele>489.000000</ele>
        <time>2009-06-14T17:50:23Z</time>
      </trkpt>
      <trkpt lat="50.616560" lon="6.461977">
        <ele>489.000000</ele>
        <time>2009-06-14T17:50:24Z</time>
      </trkpt>
      <trkpt lat="50.616540" lon="6.462122">
        <ele>489.000000</ele>
        <time>2009-06-14T17:50:28Z</time>
      </trkpt>
      <trkpt lat="50.616499" lon="6.462233">
        <ele>489.000000</ele>
        <time>2009-06-14T17:50:31Z</time>
      </trkpt>
      <trkpt lat="50.616451" lon="6.462403">
        <ele>492.300000</ele>
        <time>2009-06-14T17:50:36Z</time>
      </trkpt>
      <trkpt lat="50.616420" lon="6.462558">
        <ele>494.700000</ele>
        <time>2009-06-14T17:50:40Z</time>
      </trkpt>
      <trkpt lat="50.616391" lon="6.462666">
        <ele>496.700000</ele>
        <time>2009-06-14T17:50:43Z</time>
      </trkpt>
      <trkpt lat="50.616361" lon="6.462728">
        <ele>496.700000</ele>
        <time>2009-06-14T17:50:45Z</time>
      </trkpt>
      <trkpt lat="50.616349" lon="6.462794">
        <ele>497.600000</ele>
        <time>2009-06-14T17:50:47Z</time>
      </trkpt>
      <trkpt lat="50.616312" lon="6.462952">
        <ele>499.100000</ele>
        <time>2009-06-14T17:50:51Z</time>
      </trkpt>
      <trkpt lat="50.616290" lon="6.463036">
        <ele>499.100000</ele>
        <time>2009-06-14T17:50:53Z</time>
      </trkpt>
      <trkpt lat="50.616247" lon="6.463211">
        <ele>498.100000</ele>
        <time>2009-06-14T17:50:58Z</time>
      </trkpt>
      <trkpt lat="50.616233" lon="6.463313">
        <ele>494.300000</ele>
        <time>2009-06-14T17:51:01Z</time>
      </trkpt>
      <trkpt lat="50.616217" lon="6.463443">
        <ele>494.700000</ele>
        <time>2009-06-14T17:51:04Z</time>
      </trkpt>
      <trkpt lat="50.616185" lon="6.463564">
        <ele>495.200000</ele>
        <time>2009-06-14T17:51:07Z</time>
      </trkpt>
      <trkpt lat="50.616184" lon="6.463579">
        <ele>494.300000</ele>
        <time>2009-06-14T17:51:08Z</time>
      </trkpt>
      <trkpt lat="50.616174" lon="6.463638">
        <ele>490.900000</ele>
        <time>2009-06-14T17:51:09Z</time>
      </trkpt>
      <trkpt lat="50.616135" lon="6.463780">
        <ele>488.500000</ele>
        <time>2009-06-14T17:51:13Z</time>
      </trkpt>
      <trkpt lat="50.616083" lon="6.463908">
        <ele>487.500000</ele>
        <time>2009-06-14T17:51:17Z</time>
      </trkpt>
      <trkpt lat="50.616072" lon="6.463929">
        <ele>487.500000</ele>
        <time>2009-06-14T17:51:18Z</time>
      </trkpt>
      <trkpt lat="50.616031" lon="6.464115">
        <ele>492.800000</ele>
        <time>2009-06-14T17:51:23Z</time>
      </trkpt>
      <trkpt lat="50.615976" lon="6.464326">
        <ele>500.000000</ele>
        <time>2009-06-14T17:51:29Z</time>
      </trkpt>
      <trkpt lat="50.615942" lon="6.464473">
        <ele>506.300000</ele>
        <time>2009-06-14T17:51:33Z</time>
      </trkpt>
      <trkpt lat="50.615934" lon="6.464520">
        <ele>505.300000</ele>
        <time>2009-06-14T17:51:34Z</time>
      </trkpt>
      <trkpt lat="50.615926" lon="6.464607">
        <ele>502.400000</ele>
        <time>2009-06-14T17:51:36Z</time>
      </trkpt>
      <trkpt lat="50.615938" lon="6.464729">
        <ele>494.700000</ele>
        <time>2009-06-14T17:51:39Z</time>
      </trkpt>
      <trkpt lat="50.615917" lon="6.464826">
        <ele>494.300000</ele>
        <time>2009-06-14T17:51:42Z</time>
      </trkpt>
      <trkpt lat="50.615916" lon="6.464908">
        <ele>493.800000</ele>
        <time>2009-06-14T17:51:44Z</time>
      </trkpt>
      <trkpt lat="50.615911" lon="6.464999">
        <ele>494.700000</ele>
        <time>2009-06-14T17:51:46Z</time>
      </trkpt>
      <trkpt lat="50.615876" lon="6.465172">
        <ele>492.300000</ele>
        <time>2009-06-14T17:51:51Z</time>
      </trkpt>
      <trkpt lat="50.615854" lon="6.465316">
        <ele>493.800000</ele>
        <time>2009-06-14T17:51:55Z</time>
      </trkpt>
      <trkpt lat="50.615848" lon="6.465352">
        <ele>493.800000</ele>
        <time>2009-06-14T17:51:56Z</time>
      </trkpt>
      <trkpt lat="50.615819" lon="6.465438">
        <ele>492.800000</ele>
        <time>2009-06-14T17:51:58Z</time>
      </trkpt>
      <trkpt lat="50.615775" lon="6.465538">
        <ele>492.300000</ele>
        <time>2009-06-14T17:52:01Z</time>
      </trkpt>
      <trkpt lat="50.615744" lon="6.465645">
        <ele>490.400000</ele>
        <time>2009-06-14T17:52:04Z</time>
      </trkpt>
      <trkpt lat="50.615667" lon="6.465750">
        <ele>489.900000</ele>
        <time>2009-06-14T17:52:08Z</time>
      </trkpt>
      <trkpt lat="50.615625" lon="6.465800">
        <ele>490.900000</ele>
        <time>2009-06-14T17:52:10Z</time>
      </trkpt>
      <trkpt lat="50.615549" lon="6.465885">
        <ele>491.900000</ele>
        <time>2009-06-14T17:52:14Z</time>
      </trkpt>
      <trkpt lat="50.615509" lon="6.465921">
        <ele>493.300000</ele>
        <time>2009-06-14T17:52:16Z</time>
      </trkpt>
      <trkpt lat="50.615453" lon="6.466007">
        <ele>498.600000</ele>
        <time>2009-06-14T17:52:19Z</time>
      </trkpt>
      <trkpt lat="50.615452" lon="6.466005">
        <ele>499.500000</ele>
        <time>2009-06-14T17:52:19Z</time>
      </trkpt>
      <trkpt lat="50.615358" lon="6.466073">
        <ele>496.700000</ele>
        <time>2009-06-14T17:52:23Z</time>
      </trkpt>
      <trkpt lat="50.615342" lon="6.466079">
        <ele>498.100000</ele>
        <time>2009-06-14T17:52:24Z</time>
      </trkpt>
      <trkpt lat="50.615214" lon="6.466153">
        <ele>503.400000</ele>
        <time>2009-06-14T17:52:29Z</time>
      </trkpt>
      <trkpt lat="50.615181" lon="6.466235">
        <ele>508.200000</ele>
        <time>2009-06-14T17:52:32Z</time>
      </trkpt>
      <trkpt lat="50.615131" lon="6.466348">
        <ele>511.600000</ele>
        <time>2009-06-14T17:52:35Z</time>
      </trkpt>
      <trkpt lat="50.615101" lon="6.466355">
        <ele>508.700000</ele>
        <time>2009-06-14T17:52:37Z</time>
      </trkpt>
      <trkpt lat="50.615019" lon="6.466462">
        <ele>506.800000</ele>
        <time>2009-06-14T17:52:41Z</time>
      </trkpt>
      <trkpt lat="50.614961" lon="6.466555">
        <ele>505.300000</ele>
        <time>2009-06-14T17:52:44Z</time>
      </trkpt>
      <trkpt lat="50.614883" lon="6.466644">
        <ele>504.800000</ele>
        <time>2009-06-14T17:52:48Z</time>
      </trkpt>
      <trkpt lat="50.614870" lon="6.466655">
        <ele>504.300000</ele>
        <time>2009-06-14T17:52:49Z</time>
      </trkpt>
      <trkpt lat="50.614793" lon="6.466767">
        <ele>507.200000</ele>
        <time>2009-06-14T17:52:53Z</time>
      </trkpt>
      <trkpt lat="50.614712" lon="6.466892">
        <ele>509.600000</ele>
        <time>2009-06-14T17:52:57Z</time>
      </trkpt>
      <trkpt lat="50.614655" lon="6.466958">
        <ele>508.200000</ele>
        <time>2009-06-14T17:53:00Z</time>
      </trkpt>
      <trkpt lat="50.614652" lon="6.466957">
        <ele>506.300000</ele>
        <time>2009-06-14T17:53:00Z</time>
      </trkpt>
      <trkpt lat="50.614607" lon="6.466966">
        <ele>502.900000</ele>
        <time>2009-06-14T17:53:02Z</time>
      </trkpt>
      <trkpt lat="50.614582" lon="6.467015">
        <ele>502.400000</ele>
        <time>2009-06-14T17:53:04Z</time>
      </trkpt>
      <trkpt lat="50.614527" lon="6.467127">
        <ele>503.900000</ele>
        <time>2009-06-14T17:53:07Z</time>
      </trkpt>
      <trkpt lat="50.614443" lon="6.467255">
        <ele>502.900000</ele>
        <time>2009-06-14T17:53:12Z</time>
      </trkpt>
      <trkpt lat="50.614359" lon="6.467423">
        <ele>505.800000</ele>
        <time>2009-06-14T17:53:17Z</time>
      </trkpt>
      <trkpt lat="50.614305" lon="6.467505">
        <ele>503.400000</ele>
        <time>2009-06-14T17:53:20Z</time>
      </trkpt>
      <trkpt lat="50.614246" lon="6.467592">
        <ele>504.300000</ele>
        <time>2009-06-14T17:53:24Z</time>
      </trkpt>
      <trkpt lat="50.614185" lon="6.467674">
        <ele>504.300000</ele>
        <time>2009-06-14T17:53:27Z</time>
      </trkpt>
      <trkpt lat="50.614124" lon="6.467778">
        <ele>505.300000</ele>
        <time>2009-06-14T17:53:30Z</time>
      </trkpt>
      <trkpt lat="50.614057" lon="6.467891">
        <ele>506.300000</ele>
        <time>2009-06-14T17:53:34Z</time>
      </trkpt>
      <trkpt lat="50.613985" lon="6.468001">
        <ele>506.800000</ele>
        <time>2009-06-14T17:53:38Z</time>
      </trkpt>
      <trkpt lat="50.613915" lon="6.468070">
        <ele>505.800000</ele>
        <time>2009-06-14T17:53:42Z</time>
      </trkpt>
      <trkpt lat="50.613897" lon="6.468086">
        <ele>505.800000</ele>
        <time>2009-06-14T17:53:42Z</time>
      </trkpt>
      <trkpt lat="50.613792" lon="6.468151">
        <ele>505.800000</ele>
        <time>2009-06-14T17:53:47Z</time>
      </trkpt>
      <trkpt lat="50.613724" lon="6.468187">
        <ele>505.800000</ele>
        <time>2009-06-14T17:53:50Z</time>
      </trkpt>
      <trkpt lat="50.613660" lon="6.468197">
        <ele>503.400000</ele>
        <time>2009-06-14T17:53:52Z</time>
      </trkpt>
      <trkpt lat="50.613602" lon="6.468222">
        <ele>503.400000</ele>
        <time>2009-06-14T17:53:55Z</time>
      </trkpt>
      <trkpt lat="50.613523" lon="6.468230">
        <ele>501.500000</ele>
        <time>2009-06-14T17:53:58Z</time>
      </trkpt>
      <trkpt lat="50.613441" lon="6.468286">
        <ele>503.900000</ele>
        <time>2009-06-14T17:54:02Z</time>
      </trkpt>
      <trkpt lat="50.613357" lon="6.468317">
        <ele>504.800000</ele>
        <time>2009-06-14T17:54:05Z</time>
      </trkpt>
      <trkpt lat="50.613283" lon="6.468354">
        <ele>505.800000</ele>
        <time>2009-06-14T17:54:08Z</time>
      </trkpt>
      <trkpt lat="50.613228" lon="6.468362">
        <ele>501.900000</ele>
        <time>2009-06-14T17:54:10Z</time>
      </trkpt>
      <trkpt lat="50.613152" lon="6.468396">
        <ele>504.300000</ele>
        <time>2009-06-14T17:54:14Z</time>
      </trkpt>
      <trkpt lat="50.613095" lon="6.468403">
        <ele>502.400000</ele>
        <time>2009-06-14T17:54:16Z</time>
      </trkpt>
      <trkpt lat="50.613035" lon="6.468404">
        <ele>503.400000</ele>
        <time>2009-06-14T17:54:18Z</time>
      </trkpt>
      <trkpt lat="50.613022" lon="6.468392">
        <ele>503.400000</ele>
        <time>2009-06-14T17:54:19Z</time>
      </trkpt>
      <trkpt lat="50.612923" lon="6.468358">
        <ele>500.000000</ele>
        <time>2009-06-14T17:54:23Z</time>
      </trkpt>
      <trkpt lat="50.612841" lon="6.468341">
        <ele>501.500000</ele>
        <time>2009-06-14T17:54:26Z</time>
      </trkpt>
      <trkpt lat="50.612780" lon="6.468345">
        <ele>504.800000</ele>
        <time>2009-06-14T17:54:29Z</time>
      </trkpt>
      <trkpt lat="50.612695" lon="6.468379">
        <ele>508.700000</ele>
        <time>2009-06-14T17:54:32Z</time>
      </trkpt>
      <trkpt lat="50.612643" lon="6.468420">
        <ele>510.600000</ele>
        <time>2009-06-14T17:54:34Z</time>
      </trkpt>
      <trkpt lat="50.612596" lon="6.468442">
        <ele>511.600000</ele>
        <time>2009-06-14T17:54:36Z</time>
      </trkpt>
      <trkpt lat="50.612680" lon="6.468210">
        <ele>491.400000</ele>
        <time>2009-06-14T17:54:43Z</time>
      </trkpt>
      <trkpt lat="50.612582" lon="6.468251">
        <ele>490.400000</ele>
        <time>2009-06-14T17:54:47Z</time>
      </trkpt>
      <trkpt lat="50.612516" lon="6.468289">
        <ele>491.400000</ele>
        <time>2009-06-14T17:54:50Z</time>
      </trkpt>
      <trkpt lat="50.612426" lon="6.468406">
        <ele>497.600000</ele>
        <time>2009-06-14T17:54:55Z</time>
      </trkpt>
      <trkpt lat="50.612395" lon="6.468453">
        <ele>500.000000</ele>
        <time>2009-06-14T17:54:56Z</time>
      </trkpt>
      <trkpt lat="50.612339" lon="6.468624">
        <ele>506.300000</ele>
        <time>2009-06-14T17:55:01Z</time>
      </trkpt>
      <trkpt lat="50.612330" lon="6.468665">
        <ele>503.900000</ele>
        <time>2009-06-14T17:55:02Z</time>
      </trkpt>
      <trkpt lat="50.612346" lon="6.468744">
        <ele>501.000000</ele>
        <time>2009-06-14T17:55:05Z</time>
      </trkpt>
      <trkpt lat="50.612399" lon="6.468818">
        <ele>498.100000</ele>
        <time>2009-06-14T17:55:07Z</time>
      </trkpt>
      <trkpt lat="50.612451" lon="6.468911">
        <ele>494.300000</ele>
        <time>2009-06-14T17:55:11Z</time>
      </trkpt>
      <trkpt lat="50.612493" lon="6.468996">
        <ele>493.800000</ele>
        <time>2009-06-14T17:55:13Z</time>
      </trkpt>
      <trkpt lat="50.612515" lon="6.469026">
        <ele>493.800000</ele>
        <time>2009-06-14T17:55:14Z</time>
      </trkpt>
      <trkpt lat="50.612547" lon="6.469111">
        <ele>493.300000</ele>
        <time>2009-06-14T17:55:17Z</time>
      </trkpt>
      <trkpt lat="50.612587" lon="6.469263">
        <ele>492.300000</ele>
        <time>2009-06-14T17:55:21Z</time>
      </trkpt>
      <trkpt lat="50.612594" lon="6.469321">
        <ele>492.300000</ele>
        <time>2009-06-14T17:55:23Z</time>
      </trkpt>
      <trkpt lat="50.612633" lon="6.469463">
        <ele>493.800000</ele>
        <time>2009-06-14T17:55:27Z</time>
      </trkpt>
      <trkpt lat="50.612645" lon="6.469515">
        <ele>493.800000</ele>
        <time>2009-06-14T17:55:28Z</time>
      </trkpt>
      <trkpt lat="50.612662" lon="6.469562">
        <ele>494.300000</ele>
        <time>2009-06-14T17:55:29Z</time>
      </trkpt>
      <trkpt lat="50.612636" lon="6.469624">
        <ele>495.200000</ele>
        <time>2009-06-14T17:55:31Z</time>
      </trkpt>
      <trkpt lat="50.612621" lon="6.469666">
        <ele>494.700000</ele>
        <time>2009-06-14T17:55:32Z</time>
      </trkpt>
      <trkpt lat="50.612587" lon="6.469773">
        <ele>495.200000</ele>
        <time>2009-06-14T17:55:36Z</time>
      </trkpt>
      <trkpt lat="50.612551" lon="6.469932">
        <ele>498.600000</ele>
        <time>2009-06-14T17:55:40Z</time>
      </trkpt>
      <trkpt lat="50.612556" lon="6.470026">
        <ele>501.000000</ele>
        <time>2009-06-14T17:55:42Z</time>
      </trkpt>
      <trkpt lat="50.612554" lon="6.470110">
        <ele>504.300000</ele>
        <time>2009-06-14T17:55:44Z</time>
      </trkpt>
      <trkpt lat="50.612573" lon="6.470248">
        <ele>504.800000</ele>
        <time>2009-06-14T17:55:48Z</time>
      </trkpt>
      <trkpt lat="50.612636" lon="6.470381">
        <ele>503.400000</ele>
        <time>2009-06-14T17:55:52Z</time>
      </trkpt>
      <trkpt lat="50.612640" lon="6.470430">
        <ele>503.400000</ele>
        <time>2009-06-14T17:55:53Z</time>
      </trkpt>
      <trkpt lat="50.612686" lon="6.470565">
        <ele>500.500000</ele>
        <time>2009-06-14T17:55:57Z</time>
      </trkpt>
      <trkpt lat="50.612705" lon="6.470654">
        <ele>499.500000</ele>
        <time>2009-06-14T17:56:00Z</time>
      </trkpt>
      <trkpt lat="50.612719" lon="6.470684">
        <ele>500.000000</ele>
        <time>2009-06-14T17:56:01Z</time>
      </trkpt>
      <trkpt lat="50.612749" lon="6.470826">
        <ele>498.600000</ele>
        <time>2009-06-14T17:56:04Z</time>
      </trkpt>
      <trkpt lat="50.612749" lon="6.470850">
        <ele>499.100000</ele>
        <time>2009-06-14T17:56:05Z</time>
      </trkpt>
      <trkpt lat="50.612753" lon="6.470905">
        <ele>500.500000</ele>
        <time>2009-06-14T17:56:06Z</time>
      </trkpt>
      <trkpt lat="50.612752" lon="6.471006">
        <ele>501.500000</ele>
        <time>2009-06-14T17:56:09Z</time>
      </trkpt>
      <trkpt lat="50.612748" lon="6.471099">
        <ele>503.900000</ele>
        <time>2009-06-14T17:56:11Z</time>
      </trkpt>
      <trkpt lat="50.612711" lon="6.471247">
        <ele>504.800000</ele>
        <time>2009-06-14T17:56:15Z</time>
      </trkpt>
      <trkpt lat="50.612672" lon="6.471334">
        <ele>506.300000</ele>
        <time>2009-06-14T17:56:18Z</time>
      </trkpt>
      <trkpt lat="50.612630" lon="6.471447">
        <ele>505.800000</ele>
        <time>2009-06-14T17:56:21Z</time>
      </trkpt>
      <trkpt lat="50.612541" lon="6.471609">
        <ele>506.800000</ele>
        <time>2009-06-14T17:56:27Z</time>
      </trkpt>
      <trkpt lat="50.612478" lon="6.471676">
        <ele>506.800000</ele>
        <time>2009-06-14T17:56:30Z</time>
      </trkpt>
      <trkpt lat="50.612461" lon="6.471680">
        <ele>505.300000</ele>
        <time>2009-06-14T17:56:31Z</time>
      </trkpt>
      <trkpt lat="50.612384" lon="6.471683">
        <ele>500.000000</ele>
        <time>2009-06-14T17:56:34Z</time>
      </trkpt>
      <trkpt lat="50.612372" lon="6.471693">
        <ele>499.500000</ele>
        <time>2009-06-14T17:56:34Z</time>
      </trkpt>
      <trkpt lat="50.612355" lon="6.471767">
        <ele>500.500000</ele>
        <time>2009-06-14T17:56:36Z</time>
      </trkpt>
      <trkpt lat="50.612360" lon="6.471855">
        <ele>499.500000</ele>
        <time>2009-06-14T17:56:38Z</time>
      </trkpt>
      <trkpt lat="50.612371" lon="6.471886">
        <ele>498.100000</ele>
        <time>2009-06-14T17:56:39Z</time>
      </trkpt>
      <trkpt lat="50.612387" lon="6.471967">
        <ele>495.200000</ele>
        <time>2009-06-14T17:56:42Z</time>
      </trkpt>
      <trkpt lat="50.612434" lon="6.472054">
        <ele>494.700000</ele>
        <time>2009-06-14T17:56:44Z</time>
      </trkpt>
      <trkpt lat="50.612499" lon="6.472188">
        <ele>497.100000</ele>
        <time>2009-06-14T17:56:49Z</time>
      </trkpt>
      <trkpt lat="50.612518" lon="6.472276">
        <ele>496.700000</ele>
        <time>2009-06-14T17:56:51Z</time>
      </trkpt>
      <trkpt lat="50.612547" lon="6.472346">
        <ele>497.600000</ele>
        <time>2009-06-14T17:56:53Z</time>
      </trkpt>
      <trkpt lat="50.612611" lon="6.472434">
        <ele>498.100000</ele>
        <time>2009-06-14T17:56:57Z</time>
      </trkpt>
      <trkpt lat="50.612619" lon="6.472442">
        <ele>498.100000</ele>
        <time>2009-06-14T17:56:57Z</time>
      </trkpt>
      <trkpt lat="50.612685" lon="6.472490">
        <ele>497.600000</ele>
        <time>2009-06-14T17:57:00Z</time>
      </trkpt>
      <trkpt lat="50.612727" lon="6.472544">
        <ele>494.300000</ele>
        <time>2009-06-14T17:57:02Z</time>
      </trkpt>
      <trkpt lat="50.612742" lon="6.472568">
        <ele>493.800000</ele>
        <time>2009-06-14T17:57:03Z</time>
      </trkpt>
      <trkpt lat="50.612801" lon="6.472659">
        <ele>491.400000</ele>
        <time>2009-06-14T17:57:06Z</time>
      </trkpt>
      <trkpt lat="50.612821" lon="6.472712">
        <ele>491.400000</ele>
        <time>2009-06-14T17:57:08Z</time>
      </trkpt>
      <trkpt lat="50.612864" lon="6.472787">
        <ele>487.500000</ele>
        <time>2009-06-14T17:57:10Z</time>
      </trkpt>
      <trkpt lat="50.612908" lon="6.472848">
        <ele>485.600000</ele>
        <time>2009-06-14T17:57:13Z</time>
      </trkpt>
      <trkpt lat="50.612950" lon="6.472939">
        <ele>485.600000</ele>
        <time>2009-06-14T17:57:16Z</time>
      </trkpt>
      <trkpt lat="50.613001" lon="6.473015">
        <ele>485.600000</ele>
        <time>2009-06-14T17:57:18Z</time>
      </trkpt>
      <trkpt lat="50.613014" lon="6.473028">
        <ele>486.100000</ele>
        <time>2009-06-14T17:57:19Z</time>
      </trkpt>
      <trkpt lat="50.613101" lon="6.473115">
        <ele>486.100000</ele>
        <time>2009-06-14T17:57:23Z</time>
      </trkpt>
      <trkpt lat="50.613172" lon="6.473179">
        <ele>487.000000</ele>
        <time>2009-06-14T17:57:26Z</time>
      </trkpt>
      <trkpt lat="50.613277" lon="6.473269">
        <ele>487.500000</ele>
        <time>2009-06-14T17:57:31Z</time>
      </trkpt>
      <trkpt lat="50.613370" lon="6.473383">
        <ele>487.500000</ele>
        <time>2009-06-14T17:57:36Z</time>
      </trkpt>
      <trkpt lat="50.613428" lon="6.473468">
        <ele>488.000000</ele>
        <time>2009-06-14T17:57:39Z</time>
      </trkpt>
      <trkpt lat="50.613447" lon="6.473496">
        <ele>488.000000</ele>
        <time>2009-06-14T17:57:40Z</time>
      </trkpt>
      <trkpt lat="50.613504" lon="6.473571">
        <ele>484.600000</ele>
        <time>2009-06-14T17:57:43Z</time>
      </trkpt>
      <trkpt lat="50.613516" lon="6.473593">
        <ele>484.200000</ele>
        <time>2009-06-14T17:57:44Z</time>
      </trkpt>
      <trkpt lat="50.613580" lon="6.473704">
        <ele>480.300000</ele>
        <time>2009-06-14T17:57:48Z</time>
      </trkpt>
      <trkpt lat="50.613625" lon="6.473777">
        <ele>477.900000</ele>
        <time>2009-06-14T17:57:50Z</time>
      </trkpt>
      <trkpt lat="50.613638" lon="6.473793">
        <ele>477.900000</ele>
        <time>2009-06-14T17:57:51Z</time>
      </trkpt>
      <trkpt lat="50.613765" lon="6.473904">
        <ele>479.800000</ele>
        <time>2009-06-14T17:57:57Z</time>
      </trkpt>
      <trkpt lat="50.613848" lon="6.473980">
        <ele>482.200000</ele>
        <time>2009-06-14T17:58:01Z</time>
      </trkpt>
      <trkpt lat="50.613951" lon="6.474067">
        <ele>484.200000</ele>
        <time>2009-06-14T17:58:05Z</time>
      </trkpt>
      <trkpt lat="50.614011" lon="6.474138">
        <ele>484.200000</ele>
        <time>2009-06-14T17:58:08Z</time>
      </trkpt>
      <trkpt lat="50.614090" lon="6.474220">
        <ele>484.600000</ele>
        <time>2009-06-14T17:58:12Z</time>
      </trkpt>
      <trkpt lat="50.614187" lon="6.474318">
        <ele>483.200000</ele>
        <time>2009-06-14T17:58:17Z</time>
      </trkpt>
      <trkpt lat="50.614226" lon="6.474359">
        <ele>482.200000</ele>
        <time>2009-06-14T17:58:18Z</time>
      </trkpt>
      <trkpt lat="50.614288" lon="6.474460">
        <ele>480.800000</ele>
        <time>2009-06-14T17:58:22Z</time>
      </trkpt>
      <trkpt lat="50.614314" lon="6.474513">
        <ele>479.800000</ele>
        <time>2009-06-14T17:58:24Z</time>
      </trkpt>
      <trkpt lat="50.614347" lon="6.474584">
        <ele>478.400000</ele>
        <time>2009-06-14T17:58:26Z</time>
      </trkpt>
      <trkpt lat="50.614357" lon="6.474597">
        <ele>478.400000</ele>
        <time>2009-06-14T17:58:27Z</time>
      </trkpt>
      <trkpt lat="50.614401" lon="6.474631">
        <ele>478.900000</ele>
        <time>2009-06-14T17:58:28Z</time>
      </trkpt>
      <trkpt lat="50.614458" lon="6.474682">
        <ele>477.900000</ele>
        <time>2009-06-14T17:58:31Z</time>
      </trkpt>
      <trkpt lat="50.614488" lon="6.474722">
        <ele>477.900000</ele>
        <time>2009-06-14T17:58:33Z</time>
      </trkpt>
      <trkpt lat="50.614554" lon="6.474807">
        <ele>476.500000</ele>
        <time>2009-06-14T17:58:36Z</time>
      </trkpt>
      <trkpt lat="50.614605" lon="6.474889">
        <ele>475.500000</ele>
        <time>2009-06-14T17:58:39Z</time>
      </trkpt>
      <trkpt lat="50.614623" lon="6.474914">
        <ele>475.000000</ele>
        <time>2009-06-14T17:58:40Z</time>
      </trkpt>
      <trkpt lat="50.614656" lon="6.474947">
        <ele>474.500000</ele>
        <time>2009-06-14T17:58:42Z</time>
      </trkpt>
      <trkpt lat="50.614716" lon="6.475002">
        <ele>474.500000</ele>
        <time>2009-06-14T17:58:44Z</time>
      </trkpt>
      <trkpt lat="50.614784" lon="6.475089">
        <ele>472.600000</ele>
        <time>2009-06-14T17:58:48Z</time>
      </trkpt>
      <trkpt lat="50.614853" lon="6.475184">
        <ele>470.700000</ele>
        <time>2009-06-14T17:58:51Z</time>
      </trkpt>
      <trkpt lat="50.614911" lon="6.475252">
        <ele>470.200000</ele>
        <time>2009-06-14T17:58:54Z</time>
      </trkpt>
      <trkpt lat="50.614963" lon="6.475313">
        <ele>469.700000</ele>
        <time>2009-06-14T17:58:57Z</time>
      </trkpt>
      <trkpt lat="50.615039" lon="6.475446">
        <ele>467.800000</ele>
        <time>2009-06-14T17:59:02Z</time>
      </trkpt>
      <trkpt lat="50.615099" lon="6.475525">
        <ele>466.900000</ele>
        <time>2009-06-14T17:59:05Z</time>
      </trkpt>
      <trkpt lat="50.615171" lon="6.475618">
        <ele>467.300000</ele>
        <time>2009-06-14T17:59:08Z</time>
      </trkpt>
      <trkpt lat="50.615246" lon="6.475717">
        <ele>469.300000</ele>
        <time>2009-06-14T17:59:12Z</time>
      </trkpt>
      <trkpt lat="50.615268" lon="6.475788">
        <ele>467.800000</ele>
        <time>2009-06-14T17:59:14Z</time>
      </trkpt>
      <trkpt lat="50.615282" lon="6.475829">
        <ele>467.800000</ele>
        <time>2009-06-14T17:59:15Z</time>
      </trkpt>
      <trkpt lat="50.615320" lon="6.475919">
        <ele>466.900000</ele>
        <time>2009-06-14T17:59:18Z</time>
      </trkpt>
      <trkpt lat="50.615338" lon="6.475989">
        <ele>465.900000</ele>
        <time>2009-06-14T17:59:20Z</time>
      </trkpt>
      <trkpt lat="50.615366" lon="6.476062">
        <ele>464.900000</ele>
        <time>2009-06-14T17:59:22Z</time>
      </trkpt>
      <trkpt lat="50.615400" lon="6.476085">
        <ele>464.900000</ele>
        <time>2009-06-14T17:59:24Z</time>
      </trkpt>
      <trkpt lat="50.615439" lon="6.476147">
        <ele>462.100000</ele>
        <time>2009-06-14T17:59:26Z</time>
      </trkpt>
      <trkpt lat="50.615456" lon="6.476206">
        <ele>460.600000</ele>
        <time>2009-06-14T17:59:28Z</time>
      </trkpt>
      <trkpt lat="50.615525" lon="6.476289">
        <ele>460.600000</ele>
        <time>2009-06-14T17:59:31Z</time>
      </trkpt>
      <trkpt lat="50.615550" lon="6.476342">
        <ele>460.100000</ele>
        <time>2009-06-14T17:59:33Z</time>
      </trkpt>
      <trkpt lat="50.615596" lon="6.476456">
        <ele>459.200000</ele>
        <time>2009-06-14T17:59:36Z</time>
      </trkpt>
      <trkpt lat="50.615617" lon="6.476569">
        <ele>456.800000</ele>
        <time>2009-06-14T17:59:39Z</time>
      </trkpt>
      <trkpt lat="50.615643" lon="6.476609">
        <ele>458.200000</ele>
        <time>2009-06-14T17:59:41Z</time>
      </trkpt>
      <trkpt lat="50.615683" lon="6.476723">
        <ele>462.100000</ele>
        <time>2009-06-14T17:59:44Z</time>
      </trkpt>
      <trkpt lat="50.615716" lon="6.476800">
        <ele>461.100000</ele>
        <time>2009-06-14T17:59:46Z</time>
      </trkpt>
      <trkpt lat="50.615760" lon="6.476935">
        <ele>457.700000</ele>
        <time>2009-06-14T17:59:50Z</time>
      </trkpt>
      <trkpt lat="50.615784" lon="6.476966">
        <ele>458.200000</ele>
        <time>2009-06-14T17:59:51Z</time>
      </trkpt>
      <trkpt lat="50.615832" lon="6.477082">
        <ele>453.400000</ele>
        <time>2009-06-14T17:59:55Z</time>
      </trkpt>
      <trkpt lat="50.615846" lon="6.477117">
        <ele>452.000000</ele>
        <time>2009-06-14T17:59:56Z</time>
      </trkpt>
      <trkpt lat="50.615873" lon="6.477166">
        <ele>451.000000</ele>
        <time>2009-06-14T17:59:58Z</time>
      </trkpt>
      <trkpt lat="50.615919" lon="6.477265">
        <ele>450.500000</ele>
        <time>2009-06-14T18:00:01Z</time>
      </trkpt>
      <trkpt lat="50.615980" lon="6.477416">
        <ele>452.400000</ele>
        <time>2009-06-14T18:00:05Z</time>
      </trkpt>
      <trkpt lat="50.616023" lon="6.477547">
        <ele>450.500000</ele>
        <time>2009-06-14T18:00:09Z</time>
      </trkpt>
      <trkpt lat="50.616038" lon="6.477596">
        <ele>449.600000</ele>
        <time>2009-06-14T18:00:10Z</time>
      </trkpt>
      <trkpt lat="50.616066" lon="6.477715">
        <ele>448.600000</ele>
        <time>2009-06-14T18:00:14Z</time>
      </trkpt>
      <trkpt lat="50.616068" lon="6.477736">
        <ele>448.600000</ele>
        <time>2009-06-14T18:00:14Z</time>
      </trkpt>
      <trkpt lat="50.616130" lon="6.477900">
        <ele>444.700000</ele>
        <time>2009-06-14T18:00:19Z</time>
      </trkpt>
      <trkpt lat="50.616202" lon="6.477996">
        <ele>443.800000</ele>
        <time>2009-06-14T18:00:23Z</time>
      </trkpt>
      <trkpt lat="50.616250" lon="6.478048">
        <ele>442.800000</ele>
        <time>2009-06-14T18:00:25Z</time>
      </trkpt>
      <trkpt lat="50.616329" lon="6.478162">
        <ele>441.900000</ele>
        <time>2009-06-14T18:00:29Z</time>
      </trkpt>
      <trkpt lat="50.616357" lon="6.478205">
        <ele>444.700000</ele>
        <time>2009-06-14T18:00:31Z</time>
      </trkpt>
      <trkpt lat="50.616380" lon="6.478241">
        <ele>445.200000</ele>
        <time>2009-06-14T18:00:32Z</time>
      </trkpt>
      <trkpt lat="50.616458" lon="6.478258">
        <ele>441.900000</ele>
        <time>2009-06-14T18:00:35Z</time>
      </trkpt>
      <trkpt lat="50.616486" lon="6.478270">
        <ele>439.500000</ele>
        <time>2009-06-14T18:00:37Z</time>
      </trkpt>
      <trkpt lat="50.616548" lon="6.478288">
        <ele>438.000000</ele>
        <time>2009-06-14T18:00:39Z</time>
      </trkpt>
      <trkpt lat="50.616619" lon="6.478293">
        <ele>437.100000</ele>
        <time>2009-06-14T18:00:42Z</time>
      </trkpt>
      <trkpt lat="50.616718" lon="6.478334">
        <ele>436.600000</ele>
        <time>2009-06-14T18:00:46Z</time>
      </trkpt>
      <trkpt lat="50.616792" lon="6.478359">
        <ele>437.500000</ele>
        <time>2009-06-14T18:00:49Z</time>
      </trkpt>
      <trkpt lat="50.616812" lon="6.478373">
        <ele>437.100000</ele>
        <time>2009-06-14T18:00:50Z</time>
      </trkpt>
      <trkpt lat="50.616858" lon="6.478412">
        <ele>436.600000</ele>
        <time>2009-06-14T18:00:52Z</time>
      </trkpt>
      <trkpt lat="50.616868" lon="6.478444">
        <ele>434.700000</ele>
        <time>2009-06-14T18:00:53Z</time>
      </trkpt>
      <trkpt lat="50.617120" lon="6.478612">
        <ele>428.400000</ele>
        <time>2009-06-14T18:01:04Z</time>
      </trkpt>
      <trkpt lat="50.617215" lon="6.478592">
        <ele>432.200000</ele>
        <time>2009-06-14T18:01:08Z</time>
      </trkpt>
      <trkpt lat="50.617238" lon="6.478587">
        <ele>432.700000</ele>
        <time>2009-06-14T18:01:09Z</time>
      </trkpt>
      <trkpt lat="50.617268" lon="6.478583">
        <ele>431.300000</ele>
        <time>2009-06-14T18:01:10Z</time>
      </trkpt>
      <trkpt lat="50.617313" lon="6.478566">
        <ele>429.800000</ele>
        <time>2009-06-14T18:01:12Z</time>
      </trkpt>
      <trkpt lat="50.617393" lon="6.478505">
        <ele>431.800000</ele>
        <time>2009-06-14T18:01:15Z</time>
      </trkpt>
      <trkpt lat="50.617406" lon="6.478458">
        <ele>433.700000</ele>
        <time>2009-06-14T18:01:17Z</time>
      </trkpt>
      <trkpt lat="50.617405" lon="6.478379">
        <ele>434.200000</ele>
        <time>2009-06-14T18:01:19Z</time>
      </trkpt>
      <trkpt lat="50.617429" lon="6.478304">
        <ele>433.700000</ele>
        <time>2009-06-14T18:01:21Z</time>
      </trkpt>
      <trkpt lat="50.617433" lon="6.478278">
        <ele>432.700000</ele>
        <time>2009-06-14T18:01:21Z</time>
      </trkpt>
    </trkseg>
  </trk>

</gpx>
